[[[{"header":{"parameterUnit":"kt","parameterCategory":2,"dx":1,"dy":1,"la1":29.285339999999998,"la2":30.599998999999997,"lo1":-89.70041500000002,"lo2":-87.6738589999976,"nx":112,"ny":82,"refTime":"2022-10-01T00:00:00:Z","depth":0,"parameterNumber":1,"parameterNumberName":"U-component_of_WINDS"},"data":[7.8679,7.9755,7.8742,6.9976,6.842,6.6538,5.664,5.5983,5.6953,5.507,5.6419,5.8321,5.948,0.0,0.0,0.0,0.0,0.0,0.0,4.3065,0.0,0.0,0.0,0.0,0.0,0.0,6.7486,7.8485,7.6267,7.8274,8.7276,8.7411,8.8329,9.0925,8.8057,8.7914,9.0927,8.946,8.8818,8.9045,8.8935,8.9037,8.9228,8.9228,8.9228,8.9228,8.9228,8.9228,8.9228,8.9228,8.9228,8.9228,8.9228,8.9228,8.9228,8.9228,8.9228,8.9228,8.9228,8.9228,8.9228,8.9228,8.9228,8.9228,8.9228,8.9228,8.9228,8.9228,8.8452,8.758,8.7266,8.5973,8.4521,8.3635,8.2983,8.2393,8.1816,8.0878,8.0177,8.0177,7.9705,7.949,7.986,8.0072,8.0615,8.1908,8.094,8.0112,8.0112,8.0112,8.0112,8.0112,8.0112,7.9888,7.9416,7.8266,7.7335,7.6879,7.5754,7.4714,7.39,7.3842,7.3491,7.2708,7.2708,7.2708,7.2708,7.2708,7.2708,7.2729,7.3286,7.4412,7.6645,7.7423,7.584,6.6145,6.405,6.1902,5.2474,5.2332,5.3749,5.2282,5.5219,5.7496,0.0,0.0,0.0,0.0,0.0,0.0,0.0,0.0,0.0,0.0,0.0,0.0,0.0,0.0,7.307,8.0942,7.8139,7.9954,8.8745,8.8457,8.9151,9.1689,8.9325,8.9468,9.2452,9.1203,9.0768,9.1155,9.0369,8.9971,8.9853,8.9403,8.9228,8.9228,8.9228,8.9228,8.9228,8.9228,8.9228,8.9228,8.9228,8.9228,8.9228,8.9228,8.9228,8.9228,8.9228,8.9228,8.9228,8.9228,8.9228,8.9228,8.9228,8.9228,8.9228,8.9228,8.8717,8.8114,8.7758,8.6699,8.5699,8.5332,8.4528,8.3855,8.3855,8.3108,8.2438,8.2438,8.2045,8.1785,8.2112,8.2816,8.3541,8.4252,8.2419,8.0923,8.0923,8.0446,8.0112,8.0112,8.0112,8.0112,8.0112,7.9281,7.8605,7.8187,7.7016,7.5812,7.4482,7.4424,7.39,7.2708,7.2708,7.2708,7.2708,7.2708,7.2878,7.3159,7.4433,7.5747,7.3716,7.2729,7.0336,5.9869,5.8199,5.7422,5.0816,5.1286,5.3424,5.4557,5.6523,5.8018,5.7851,0.0,0.0,0.0,0.0,0.0,0.0,0.0,0.0,0.0,0.0,0.0,7.7991,7.1063,7.1397,8.3777,7.7136,7.7909,9.026,9.1056,9.1784,9.3307,9.1851,9.2419,9.5334,9.3512,9.3446,9.5136,9.1989,9.0755,9.1198,8.9897,8.9359,8.9359,8.9359,8.9359,8.9359,8.9359,8.9316,8.9272,8.9272,8.9316,8.9359,8.9316,8.9272,8.9272,8.9228,8.9228,8.9228,8.9228,8.9228,8.9228,8.9228,8.9228,8.9228,8.9228,8.9228,8.9009,8.7981,8.7669,8.7446,8.6555,8.5543,8.4825,8.4806,8.4994,8.5202,8.5181,8.4931,8.4972,8.5848,8.6925,8.7641,8.7641,8.4834,8.2693,8.2693,8.1287,8.0223,8.0168,8.0168,8.0168,8.0112,8.0112,7.9529,7.8243,7.713,7.5927,7.4598,7.454,7.4016,7.2767,7.2767,7.2708,7.2708,7.2751,7.3239,7.4114,7.6065,7.702,6.7942,6.9259,6.9618,6.1895,6.0224,5.9027,5.3402,5.1167,5.0957,5.3222,5.3307,0.0,0.0,0.0,0.0,0.0,0.0,5.4375,5.0529,5.6238,0.0,0.0,7.1384,7.6032,8.3478,8.1301,8.2969,9.1613,8.5329,8.4919,9.356,9.4066,9.4323,9.4819,9.3342,9.2958,9.3886,9.3641,9.3612,9.3809,9.32,9.2793,9.2568,9.2235,9.2026,9.2026,9.2026,9.2026,9.2026,9.2026,9.1508,9.0629,9.0629,9.1212,9.1942,9.0985,9.0629,9.0501,8.9534,8.9228,8.9228,8.9228,8.9228,8.9228,8.9228,8.9228,8.9228,8.9228,8.9228,8.9141,8.8877,8.8231,8.7624,8.7356,8.6545,8.5878,8.6,8.608,8.6207,8.6386,8.7025,8.7618,8.7856,8.775,8.7641,8.7641,8.5824,8.4434,8.4434,8.4056,8.3298,8.2059,8.1894,8.1422,8.0168,8.0112,7.9921,7.9585,7.9248,7.8492,7.7164,7.7107,7.6135,7.4016,7.3958,7.355,7.2708,7.335,7.3817,7.4114,7.6065,7.7319,0.0,0.0,0.0,6.1061,6.1061,6.0578,5.2565,5.1227,5.1675,5.1555,0.0,0.0,0.0,0.0,0.0,0.0,5.6054,5.8434,5.5165,6.2343,6.9559,7.4043,7.8031,8.2482,8.7794,8.7157,8.9373,9.6451,8.9846,8.8613,9.5691,9.6189,9.6237,9.6364,9.5472,9.5311,9.5978,9.5898,9.5841,9.5823,9.5176,9.451,9.3934,9.3364,9.3117,9.3117,9.3117,9.3117,9.3117,9.3117,9.2693,9.2055,9.261,9.2911,9.2994,9.2235,9.2013,9.1887,9.1127,9.0515,9.0112,9.0625,9.0402,8.9861,8.9354,8.9228,8.9228,8.9228,8.9228,8.9228,8.9228,8.8789,8.8319,8.8319,8.7608,8.7038,8.7663,8.785,8.7938,8.8232,8.9232,9.003,9.003,8.9344,8.8837,8.8837,8.7302,8.6195,8.6195,8.5586,8.4785,8.3811,8.302,8.2224,8.1256,8.0479,8.0112,8.0112,8.0112,7.9753,7.9,7.8436,7.7221,7.5293,7.5689,7.5595,7.4894,7.5314,7.5462,7.5343,7.6851,7.7829,0.0,0.0,0.0,0.0,6.0497,6.1031,5.1278,0.0,5.4695,5.2183,0.0,5.3217,5.4676,0.0,0.0,5.285,5.891,6.3033,6.0975,6.7329,7.3453,7.6814,8.5065,9.076,9.1396,9.0681,9.2823,9.9126,9.2596,9.1066,9.7381,9.7936,9.7973,9.7812,9.7812,9.8425,9.9683,9.886,9.8724,9.933,9.7264,9.5945,9.5228,9.4096,9.3568,9.3568,9.3568,9.3568,9.3568,9.3568,9.3445,9.3445,9.475,9.458,9.3527,9.3404,9.3411,9.3559,9.3394,9.2439,9.1531,9.2598,9.1956,9.0607,8.9692,8.9539,8.9652,8.9652,8.9652,8.9623,8.9438,8.941,8.9354,8.9285,8.8608,8.8359,8.9554,9.0009,9.0274,9.0509,9.1344,9.1997,9.2097,9.1242,9.0532,9.0532,8.9095,8.7955,8.7955,8.6645,8.5639,8.5426,8.4081,8.3129,8.2911,8.1508,8.0646,8.0646,8.0479,8.0391,8.0391,7.9056,7.7813,7.6616,7.7489,7.7864,7.7742,7.7593,7.7511,7.7604,7.8271,7.8486,0.0,0.0,0.0,0.0,0.0,5.6274,0.0,0.0,0.0,6.5369,6.528,6.4684,6.7046,6.6314,6.5937,6.7745,7.2322,7.4698,7.1974,7.9104,8.4863,8.5601,9.0386,9.4139,9.5527,9.6655,9.845,10.1157,9.8626,9.8105,10.0807,10.0992,10.052,9.9361,9.9296,9.9425,9.9715,9.8305,9.8188,9.933,9.7654,9.6766,9.6612,9.6379,9.6262,9.6262,9.6262,9.6262,9.6262,9.6262,9.5644,9.479,9.6145,9.6457,9.6145,9.5059,9.543,9.6228,9.5056,9.3839,9.2786,9.3017,9.1472,8.9692,9.0381,9.1385,9.222,9.222,9.222,9.1994,9.0889,9.0635,9.0381,8.9438,8.9769,9.048,9.0934,9.1775,9.2538,9.2806,9.2357,9.2247,9.3038,9.2343,9.1645,9.1645,9.0607,8.9842,8.9842,8.9585,8.8811,8.7302,8.6907,8.6142,8.4785,8.4355,8.414,8.414,8.2887,8.2114,8.2114,8.059,7.9136,7.7813,7.7995,7.7576,7.6391,7.7055,7.8712,8.1203,8.0305,7.937,0.0,0.0,0.0,5.4463,0.0,0.0,0.0,5.5916,5.771,6.4582,6.4226,6.4146,6.9077,6.9677,6.9791,7.0943,7.5525,7.9266,8.0275,8.5369,8.8791,8.8123,9.1876,9.5078,9.6659,9.8344,10.0051,10.1736,10.1077,10.0971,10.1806,10.1841,10.1518,10.081,10.0778,10.11,10.1741,10.0223,9.9739,10.0368,9.8851,9.7704,9.699,9.699,9.699,9.699,9.699,9.699,9.699,9.699,9.6612,9.6075,9.6758,9.699,9.6913,9.6231,9.6493,9.7022,9.6284,9.5173,9.4067,9.4057,9.2294,9.0298,9.0829,9.1046,9.1204,9.178,9.2401,9.2785,9.2119,9.1949,9.1808,9.1232,9.1498,9.2152,9.2837,9.3472,9.3972,9.4214,9.3876,9.3679,9.4191,9.3434,9.2691,9.2691,9.182,9.1141,9.1141,9.0735,9.0073,8.9147,8.8241,8.7302,8.646,8.5639,8.5159,8.5159,8.4326,8.384,8.384,8.2255,8.1066,8.0432,8.0561,8.0316,7.9631,7.9876,8.0441,8.1264,8.0601,7.9599,5.2505,5.2266,5.2146,0.0,5.2991,0.0,5.4067,5.5613,5.8955,6.4816,6.4867,6.5594,7.1294,7.2858,7.3279,7.3258,7.7233,8.1776,8.6002,8.8594,8.9641,8.857,9.2305,9.5435,9.6659,9.8641,10.0406,10.1771,10.1841,10.1841,10.1841,10.1841,10.1841,10.1841,10.213,10.2868,10.4185,10.266,10.2036,10.2294,10.016,9.8541,9.7389,9.7113,9.699,9.699,9.699,9.699,9.699,9.699,9.699,9.702,9.7297,9.7235,9.7051,9.7297,9.7389,9.7389,9.7389,9.658,9.5471,9.5477,9.3724,9.1572,9.1705,9.0909,9.0273,9.1731,9.2865,9.3619,9.3392,9.3278,9.3236,9.2982,9.3095,9.3501,9.447,9.4865,9.5082,9.5331,9.5382,9.5382,9.5382,9.4483,9.3799,9.3799,9.2768,9.1947,9.1947,9.104,9.0379,9.0379,8.9095,8.8189,8.8189,8.6934,8.617,8.617,8.5799,8.5639,8.5639,8.4027,8.3129,8.3129,8.3433,8.3479,8.3326,8.3865,8.3348,8.1941,8.1406,8.0454,4.8565,4.8744,5.0419,5.3709,5.2303,0.0,6.7194,6.8778,7.0515,8.1564,8.3666,8.3684,8.4149,8.4007,8.4073,8.4748,8.5117,8.5992,8.7943,8.9436,9.0228,8.9816,9.3809,9.6582,9.6775,9.9699,10.1667,10.1841,10.1841,10.1841,10.1841,10.1841,10.1841,10.1841,10.2965,10.4249,10.5698,10.4161,10.4,10.5196,10.1128,9.9033,9.8849,9.7612,9.699,9.699,9.699,9.699,9.699,9.699,9.699,9.7113,9.838,9.8134,9.7143,9.8449,9.891,9.891,9.891,9.8051,9.6967,9.6955,9.5118,9.3091,9.4115,9.3519,9.3001,9.5446,9.6223,9.608,9.4957,9.4556,9.4188,9.318,9.3727,9.4499,9.464,9.5589,9.6407,9.6453,9.6406,9.6406,9.6406,9.5574,9.4899,9.4899,9.3214,9.1947,9.1947,9.104,9.0379,9.0379,9.0226,9.0046,9.0046,8.9919,8.979,8.979,8.8293,8.738,8.738,8.5771,8.4892,8.4892,8.4925,8.4485,8.3729,8.7503,8.8839,8.7853,8.5549,8.3472,4.4356,4.5893,4.8266,4.9214,0.0,0.0,6.3933,6.666,7.0357,8.106,8.2391,8.252,8.5548,8.5806,8.5841,8.6775,8.6601,8.6838,8.8255,8.8776,8.9635,9.1282,9.4657,9.7188,9.8163,10.0446,10.1841,10.1841,10.1841,10.1841,10.1841,10.1841,10.1841,10.1841,10.2388,10.3525,10.5235,10.4083,10.3976,10.4925,10.2607,10.1083,10.0223,9.884,9.8226,9.8195,9.7358,9.699,9.7051,9.7888,9.8226,9.838,9.9731,9.9915,9.9446,10.0038,9.9801,9.9125,9.9125,9.8251,9.6958,9.6213,9.519,9.4194,9.3913,9.3433,9.3423,9.517,9.567,9.5722,9.5851,9.5812,9.5645,9.5184,9.5466,9.5786,9.5786,9.6229,9.6596,9.6596,9.6596,9.6596,9.6596,9.6862,9.6826,9.607,9.5286,9.4297,9.3021,9.192,9.109,9.043,9.0379,9.0379,9.0379,9.0379,9.0379,9.0379,8.9688,8.925,8.925,8.7537,8.6618,8.6618,8.6319,8.6252,8.6472,8.9285,9.0636,9.0471,8.8644,8.5923,4.21,0.0,0.0,0.0,0.0,0.0,6.5483,6.81,7.1593,8.0478,8.1278,8.1475,8.5141,8.6002,8.6426,8.7398,8.7657,8.8306,9.0035,8.9697,9.0365,9.3372,9.5569,9.7454,9.9183,10.0865,10.1841,10.1841,10.1841,10.1841,10.1841,10.1841,10.1736,10.1562,10.2054,10.3004,10.4458,10.4346,10.4488,10.4961,10.3763,10.267,10.1635,10.0284,9.9678,9.9617,9.8195,9.7612,9.7704,9.9086,9.9463,9.931,10.099,10.1451,10.1113,10.1113,10.0468,9.9586,9.8818,9.8134,9.7426,9.6505,9.6159,9.6011,9.4998,9.4747,9.4926,9.5782,9.6004,9.6194,9.7025,9.6953,9.6596,9.6596,9.6596,9.6596,9.6596,9.6596,9.6596,9.6596,9.6906,9.7047,9.668,9.7696,9.812,9.6793,9.6417,9.5646,9.3762,9.2619,9.1545,9.0481,9.0379,9.0379,9.0379,9.0379,9.0379,9.0379,9.0379,9.0379,9.0379,8.9147,8.8397,8.8397,8.804,8.8276,8.9116,9.1558,9.2876,9.3222,9.212,8.93,0.0,0.0,0.0,6.0144,6.146,6.4294,7.8857,7.9221,7.8283,8.4641,8.621,8.6136,8.5173,8.6426,8.7867,8.8651,8.9943,9.18,9.4499,9.3452,9.3481,9.633,9.6744,9.7454,9.9183,10.0865,10.1841,10.1841,10.1841,10.1841,10.1841,10.1841,10.1492,10.0755,10.2559,10.3604,10.3629,10.5511,10.6442,10.6401,10.4226,10.3202,10.3069,10.1697,10.1052,10.096,9.9648,9.9064,9.9156,10.0468,10.0284,9.9402,10.2096,10.2271,10.1113,10.1113,10.1083,10.0683,9.7972,9.795,9.9064,9.9025,9.9025,9.8964,9.883,9.885,9.8963,9.8858,9.8899,9.8979,9.8897,9.7747,9.6596,9.6596,9.6596,9.6596,9.6596,9.6596,9.6596,9.6596,9.764,9.8092,9.6821,9.7696,9.812,9.6793,9.5746,9.4733,9.3652,9.2619,9.1545,9.0481,9.0379,9.0379,9.0379,9.0379,9.0379,9.0379,9.0379,9.0379,9.0379,9.0328,9.0277,9.0277,9.0303,9.0476,9.0943,9.4992,9.7022,9.7047,9.6495,9.4159,4.7931,5.3157,5.9081,6.4382,6.79,7.1837,7.8566,8.0242,8.1498,8.5318,8.6002,8.5731,8.5079,8.7867,8.9943,8.9003,9.0825,9.3006,9.4792,9.4476,9.516,9.8131,9.8493,9.9152,10.0865,10.1527,10.1841,10.1841,10.1841,10.1841,10.1841,10.1841,10.1736,10.1457,10.1608,10.2025,10.2676,10.4303,10.526,10.5593,10.4873,10.4523,10.4461,10.314,10.2526,10.2434,10.1021,10.0407,10.0407,9.9986,9.9525,9.9402,10.2158,10.2956,10.2578,10.3478,10.3263,10.2373,10.1442,10.0837,10.0407,10.0407,10.0407,10.0419,10.0366,10.0397,10.0417,10.0389,10.0421,10.0426,10.0255,9.9838,9.9208,9.8254,9.8022,9.7789,9.6832,9.7273,9.8148,9.8918,9.8777,9.843,9.7979,9.889,9.9003,9.6934,9.7071,9.6426,9.386,9.316,9.2293,9.0583,9.0379,9.0379,9.0379,9.0379,9.0379,9.0379,9.0379,9.0379,9.0379,9.0379,9.0379,9.0379,9.1831,9.3044,9.3949,9.5357,9.6418,9.7211,9.6992,9.6248,5.2471,5.7698,6.3028,6.9639,7.3978,7.7399,8.0696,8.2108,8.3419,8.5941,8.6352,8.5972,8.4898,8.8337,9.079,8.9108,9.171,9.4389,9.5782,9.581,9.6822,9.9893,9.9694,9.9979,10.1702,10.1841,10.1841,10.1841,10.1841,10.1841,10.1841,10.1841,10.1702,10.1457,10.0616,10.0862,10.2248,10.3855,10.4842,10.5168,10.5168,10.5168,10.5137,10.4308,10.3939,10.3816,10.1871,10.0806,10.0345,10.0016,9.9555,9.9402,10.2158,10.3233,10.3284,10.4154,10.4246,10.3785,10.2803,10.2188,10.181,10.181,10.181,10.181,10.181,10.2188,10.2415,10.1987,10.2192,10.2412,10.1816,10.163,10.1277,9.9844,9.9511,9.9515,9.9561,10.0236,10.0763,10.0511,10.0186,9.9558,9.8103,9.8862,9.8975,9.6934,9.7329,9.6806,9.3882,9.3505,9.2664,9.0583,9.0379,9.0379,9.0379,9.0379,9.0379,9.0379,9.0379,9.0379,9.0379,9.0379,9.059,9.1012,9.2411,9.3888,9.5443,9.5865,9.6445,9.7211,9.7211,9.7102,5.6563,6.0245,6.3644,7.6256,7.9595,8.099,8.5384,8.4882,8.4215,8.6611,8.7362,8.6925,8.4695,8.8021,9.0624,8.9178,9.2717,9.6139,9.749,9.7577,9.8657,10.1603,10.0474,10.0087,10.1702,10.1841,10.1841,10.1841,10.1806,10.1771,10.1771,10.1736,10.1387,10.0648,9.9726,10.0204,10.2248,10.4041,10.5014,10.5168,10.5168,10.5168,10.5168,10.5075,10.5106,10.5014,10.228,10.0376,9.934,10.0407,10.013,9.9279,10.2035,10.3069,10.314,10.3294,10.4093,10.4799,10.2188,10.2188,10.3284,10.3284,10.3284,10.3284,10.3284,10.4185,10.4922,10.3663,10.4215,10.4844,10.3501,10.3188,10.2872,10.1543,10.1203,10.1912,10.4487,10.5124,10.4338,10.1547,10.1914,10.144,9.7626,9.7964,9.8284,9.6935,9.6738,9.5977,9.3848,9.3603,9.2791,9.0684,9.0481,9.043,9.0379,9.0379,9.0379,9.0379,9.0379,9.0379,9.0379,9.0379,9.0933,9.2146,9.2225,9.3282,9.5549,9.6629,9.7211,9.7211,9.7211,9.6937,6.3432,7.0491,7.5379,8.3426,8.3507,8.2592,8.6434,8.5076,8.3779,8.6508,8.6925,8.6595,8.6032,8.9633,9.2211,9.0658,9.5041,9.8781,9.9135,10.0883,10.241,10.322,10.207,10.139,10.1806,10.1841,10.1841,10.1841,10.1317,10.0968,10.0968,10.0335,9.9871,9.9689,9.8852,9.9671,10.2208,10.216,10.314,10.5168,10.5168,10.5168,10.5137,10.4154,10.4246,10.5014,10.228,10.0898,10.0468,9.874,9.7819,9.7827,10.056,10.1635,10.1881,10.3939,10.486,10.5045,10.4369,10.4369,10.4676,10.4676,10.4676,10.4676,10.4676,10.4891,10.5075,10.4768,10.4922,10.5053,10.4719,10.5326,10.6004,10.5601,10.5534,10.5728,10.6417,10.7212,10.7323,10.5541,10.3891,10.2462,10.1451,10.1534,10.0931,9.8548,9.8208,9.7368,9.4968,9.4656,9.3876,9.1796,9.1545,9.1242,9.043,9.0379,9.0379,9.0379,9.0379,9.0379,9.0379,9.0379,9.0933,9.2146,9.2886,9.4415,9.6708,9.708,9.7211,9.7211,9.7211,9.7102,6.2022,7.1649,8.0084,8.6424,8.6704,8.5782,8.7232,8.6473,8.5944,8.7536,8.8195,8.8057,8.6742,9.0248,9.3018,9.208,9.6299,9.9715,9.9715,10.2063,10.3574,10.3029,10.2324,10.1841,10.1841,10.1841,10.1841,10.1841,10.1141,10.0684,10.0684,9.9798,9.933,9.933,9.9186,10.0103,10.2208,10.2098,10.3079,10.5168,10.5168,10.5168,10.5137,10.44,10.3816,10.3263,10.1144,9.9885,9.917,9.7634,9.7358,9.8165,10.0284,10.1482,10.224,10.44,10.5168,10.5168,10.5168,10.5168,10.5168,10.5168,10.5168,10.5168,10.5168,10.5168,10.5168,10.5168,10.5168,10.5168,10.5168,10.6108,10.7122,10.7122,10.7574,10.8359,10.9589,10.9879,10.9655,10.8838,10.5996,10.3398,10.2177,10.1998,10.1417,9.9916,9.9146,9.8086,9.6207,9.545,9.4413,9.2791,9.222,9.1696,9.1141,9.0634,9.0379,9.0379,9.0379,9.0379,9.0379,9.0379,9.1171,9.2781,9.3387,9.4863,9.7211,9.7211,9.7211,9.7211,9.7211,9.7211,5.9036,6.9826,8.1181,8.7242,8.8982,8.8931,8.8145,8.8415,8.8827,8.8827,9.0115,9.0421,8.7621,9.0677,9.3564,9.3455,9.7263,10.0198,10.0005,10.2353,10.3574,10.2291,10.1865,10.1702,10.1702,10.1597,10.1527,10.1527,10.0791,10.0362,10.0362,9.9507,9.9099,9.9287,9.9871,10.0857,10.2362,10.2912,10.3878,10.5168,10.5168,10.5168,10.5168,10.4983,10.3601,10.1298,9.9771,9.8449,9.7266,9.7082,9.7735,9.9002,10.0499,10.185,10.314,10.4615,10.5168,10.5168,10.5168,10.5168,10.5168,10.5168,10.5168,10.5168,10.5168,10.5168,10.5168,10.5168,10.5168,10.5168,10.5168,10.6273,10.7398,10.7398,10.8638,11.0433,11.2799,11.2201,11.1113,11.0959,10.7866,10.4429,10.1882,10.1424,10.138,10.1188,10.0115,9.8888,9.7814,9.6444,9.5161,9.4114,9.2989,9.2247,9.1947,9.109,9.0532,9.0379,9.0379,9.0379,9.0379,9.0379,9.1488,9.3914,9.3756,9.4863,9.7211,9.7211,9.7211,9.7211,9.7211,9.7211,6.9836,7.7652,8.4049,8.9233,8.9151,8.8272,8.999,8.9582,8.8827,8.8827,9.099,9.2342,9.0523,9.2871,9.5076,9.504,9.9575,10.2707,10.1647,10.3834,10.5054,10.3641,10.1955,10.0897,10.0897,10.0191,9.973,9.973,9.9068,9.8586,9.8586,9.7836,9.7974,9.9154,9.9245,10.0522,10.3037,10.3151,10.3878,10.5168,10.5168,10.5168,10.5137,10.4062,10.3325,10.2741,10.0231,9.9002,9.8695,9.7481,9.7143,9.7604,10.0091,10.1267,10.1789,10.4246,10.5168,10.5168,10.5168,10.5168,10.5168,10.5168,10.5168,10.5168,10.5168,10.5168,10.5168,10.5168,10.5168,10.5168,10.5168,10.701,10.8853,10.8853,11.0802,11.2737,11.3229,11.2201,11.0867,10.9775,10.8024,10.6236,10.4722,10.4436,10.3982,10.2825,10.2434,10.1792,10.0401,9.8979,9.7714,9.6643,9.5326,9.3778,9.2097,9.1796,9.1292,9.043,9.0379,9.0379,9.0379,9.0379,9.1858,9.5074,9.4204,9.4863,9.7211,9.7211,9.7211,9.7211,9.7211,9.7211,6.9383,7.6645,8.354,8.7935,8.979,9.0601,9.0902,9.1059,9.1143,9.105,9.2863,9.3724,9.1385,9.3424,9.5721,9.6428,10.0612,10.3384,10.2034,10.4221,10.5151,10.3029,10.1913,10.1109,10.072,10.0295,9.9834,9.9366,9.8592,9.8175,9.8175,9.8097,9.8449,9.9095,10.0539,10.1881,10.3202,10.3908,10.4553,10.5168,10.5168,10.5168,10.5137,10.4523,10.3478,10.2035,10.0714,9.9332,9.798,9.7266,9.7458,9.8226,9.9586,10.0929,10.2373,10.3663,10.4584,10.5168,10.5168,10.5168,10.5168,10.5168,10.5168,10.5168,10.5168,10.5168,10.5168,10.5168,10.5168,10.5168,10.5168,10.7164,10.9265,10.9265,11.0758,11.2201,11.2201,11.1126,10.9775,10.8393,10.7582,10.6692,10.5383,10.5168,10.4928,10.4225,10.3501,10.2782,10.2099,10.0743,9.9634,9.915,9.686,9.4961,9.394,9.2193,9.0888,9.043,9.0379,9.0669,9.1276,9.1276,9.2306,9.4494,9.46,9.547,9.7211,9.7211,9.7211,9.7211,9.7211,9.7211,6.8348,7.5335,8.3068,8.6732,9.0046,9.2312,9.2008,9.263,9.3275,9.3148,9.3876,9.3917,9.1847,9.3653,9.5881,9.733,10.1321,10.3705,10.2098,10.4221,10.489,10.1953,10.1425,10.1007,10.0223,10.0006,9.9575,9.8889,9.8288,9.8036,9.8346,9.8861,9.9402,9.9986,10.2096,10.3386,10.3632,10.4645,10.5168,10.5168,10.5168,10.5168,10.5168,10.5168,10.3663,10.1012,10.0428,9.9139,9.745,9.745,9.8287,9.9586,9.9893,10.1328,10.3263,10.354,10.4277,10.5168,10.5168,10.5168,10.5168,10.5168,10.5168,10.5168,10.5168,10.5168,10.5168,10.5168,10.5168,10.5168,10.5168,10.7164,10.9265,10.9265,11.0021,11.0744,11.0744,10.9744,10.8454,10.7336,10.6876,10.6354,10.5321,10.5168,10.5168,10.5168,10.4213,10.3501,10.3501,10.223,10.1365,10.1365,9.8508,9.6388,9.5694,9.2979,9.1088,9.043,9.0379,9.0801,9.1698,9.2428,9.3512,9.5133,9.5369,9.6023,9.7211,9.7211,9.7211,9.7211,9.7211,9.7211,7.4331,7.9973,8.5157,8.815,8.9151,9.041,9.4175,9.4143,9.3306,9.3307,9.2374,9.1858,9.2922,9.4368,9.5881,9.733,10.2157,10.4829,10.2227,10.4221,10.4642,10.1213,10.0083,9.9257,9.8474,9.7753,9.7297,9.722,9.7143,9.7697,9.8997,9.9103,10.0293,10.2772,10.311,10.3785,10.4953,10.5106,10.5168,10.5168,10.5168,10.5168,10.5168,10.5168,10.3663,10.096,9.8433,9.798,9.8941,9.8941,9.974,10.1052,10.2342,10.3018,10.3386,10.4553,10.5045,10.5168,10.5168,10.5168,10.5168,10.5168,10.5168,10.5168,10.5168,10.5168,10.5168,10.5168,10.5168,10.5168,10.5168,10.7164,10.9265,10.9265,10.9357,10.945,10.945,10.8331,10.7275,10.711,10.6139,10.529,10.5168,10.5168,10.5168,10.5168,10.5053,10.497,10.497,10.3715,10.2825,10.2825,10.107,9.8733,9.5885,9.4926,9.3297,9.0583,9.0379,9.0432,9.0537,9.3274,9.6375,9.9828,9.697,9.6023,9.7211,9.7211,9.7211,9.7211,9.7211,9.7211,6.5507,7.0775,7.6572,7.8674,8.3487,8.841,9.0988,9.1793,9.2501,9.424,9.4819,9.4916,9.4658,9.5752,9.7202,9.8618,10.2868,10.4958,10.2259,10.3796,10.4135,10.107,9.9902,9.9036,9.825,9.7874,9.7495,9.7028,9.699,9.7642,9.9033,9.9854,10.1205,10.313,10.397,10.4645,10.5168,10.5168,10.5168,10.5168,10.5168,10.5168,10.5137,10.4369,10.3816,10.3386,10.0683,10.0284,10.1513,10.0653,10.0622,10.1144,10.1728,10.2455,10.3294,10.3816,10.4492,10.5168,10.5168,10.5168,10.5168,10.5168,10.5168,10.5168,10.5168,10.5168,10.5168,10.5168,10.5168,10.5321,10.6108,10.7122,10.8178,10.9007,10.9265,10.9019,10.8147,10.7521,10.6876,10.6078,10.5536,10.5168,10.5168,10.5168,10.5168,10.5168,10.5168,10.5168,10.5168,10.4677,10.4309,10.4309,10.2069,10.0027,9.8789,9.6888,9.5283,9.4102,9.4004,9.4383,9.5148,9.7055,9.9171,10.1368,10.0775,10.0037,9.9196,9.9196,9.8495,9.7211,9.7211,9.7211,6.1073,6.5661,7.1347,7.3305,7.9446,8.545,8.735,8.8863,9.0698,9.3596,9.4948,9.5365,9.4298,9.5683,9.7556,9.9393,10.3046,10.4762,10.2423,10.3437,10.3331,10.0286,9.9361,9.8666,9.7912,9.7798,9.7571,9.7028,9.7389,9.8257,9.9648,10.099,10.2373,10.3755,10.4676,10.5168,10.5168,10.5168,10.5168,10.5168,10.5168,10.5168,10.5137,10.4215,10.4093,10.4492,10.2557,10.2065,10.2516,10.1933,10.1943,10.228,10.228,10.2925,10.3816,10.3816,10.44,10.5168,10.5168,10.5168,10.5168,10.5168,10.5168,10.5168,10.5168,10.5168,10.5168,10.5168,10.5168,10.5444,10.6784,10.6815,10.6876,10.827,10.8301,10.7748,10.6753,10.6508,10.6231,10.5321,10.5168,10.5168,10.5168,10.5168,10.5168,10.5168,10.5168,10.5168,10.5168,10.5168,10.5168,10.5168,10.3153,10.1541,10.0729,9.8743,9.7169,9.6445,9.6398,9.7702,10.0589,10.1285,10.222,10.3544,10.3702,10.3031,10.1474,10.1474,10.066,9.9115,9.8495,9.8169,6.5496,6.8889,7.2797,7.5624,7.849,8.1301,8.4137,8.5901,8.7766,9.0601,9.1213,9.1191,9.1072,9.3456,9.6397,9.9232,10.2552,10.4278,10.2813,10.3197,10.2249,9.8636,9.8175,9.7874,9.7067,9.699,9.699,9.699,9.8287,9.9709,10.099,10.2434,10.3816,10.5106,10.5168,10.5168,10.5168,10.5168,10.5168,10.5168,10.5168,10.5168,10.5168,10.5137,10.443,10.3222,10.3233,10.2403,10.1236,10.2608,10.397,10.5137,10.5137,10.5137,10.5137,10.5137,10.5137,10.5168,10.5168,10.5168,10.5168,10.5168,10.5168,10.5168,10.5168,10.5168,10.5168,10.5168,10.5168,10.5444,10.6784,10.6139,10.5505,10.6815,10.6108,10.5198,10.5168,10.5168,10.5168,10.5168,10.5168,10.5168,10.5168,10.5168,10.5168,10.5168,10.5168,10.5168,10.5168,10.5168,10.5168,10.5168,10.478,10.3501,10.0892,10.0312,9.9017,9.6587,9.6398,9.9399,10.5964,10.5494,10.5747,10.7027,10.4913,10.3776,10.3776,10.3776,10.3776,10.3646,10.1474,10.0474,5.9869,6.3923,6.8207,7.0171,7.5611,8.0979,8.2878,8.516,8.7444,8.9344,9.0473,9.1764,9.3689,9.5586,9.7632,9.9898,10.2792,10.3732,10.0785,10.177,10.167,9.8524,9.7685,9.7258,9.7028,9.699,9.699,9.699,9.8287,9.9709,10.1021,10.2465,10.4205,10.6415,10.6477,10.698,10.7975,10.701,10.6477,10.6477,10.5598,10.5168,10.5137,10.4246,10.4093,10.4492,10.3632,10.3478,10.3908,10.4369,10.4799,10.5168,10.5168,10.5168,10.5168,10.5168,10.5168,10.5168,10.5168,10.5168,10.5168,10.5168,10.5168,10.5168,10.5168,10.5168,10.5168,10.5168,10.5168,10.5444,10.6784,10.6815,10.66,10.7029,10.6108,10.5168,10.5168,10.5168,10.5168,10.5168,10.5168,10.5168,10.5168,10.5168,10.5168,10.5168,10.5168,10.5168,10.5168,10.5168,10.5168,10.5168,10.4822,10.4231,10.3415,10.2682,10.191,10.1129,10.1942,10.3755,10.6733,10.7139,10.7935,10.9347,10.8696,10.7573,10.6041,10.6041,10.5293,10.3776,10.3082,10.1944,6.0526,6.3976,6.7272,7.0396,7.4676,7.8501,7.9944,8.1619,8.3482,8.5386,8.6514,8.8161,9.1513,9.461,9.7546,10.0073,10.2142,10.2727,10.0685,10.0824,10.046,9.8736,9.7605,9.699,9.699,9.7481,9.8011,9.8494,10.0315,10.1973,10.3284,10.4738,10.6243,10.7858,10.7932,10.8362,10.9265,10.7797,10.7398,10.7889,10.6058,10.5168,10.5137,10.4338,10.44,10.5106,10.4308,10.44,10.5168,10.5168,10.5168,10.5168,10.5168,10.5168,10.5168,10.5168,10.5168,10.5168,10.5168,10.5168,10.5168,10.5168,10.5168,10.5168,10.5168,10.5168,10.5168,10.5168,10.5536,10.5997,10.6262,10.6354,10.6354,10.6354,10.5751,10.5168,10.5168,10.5168,10.5168,10.5168,10.5168,10.5168,10.5168,10.5168,10.5168,10.5168,10.5168,10.5168,10.5168,10.5168,10.5168,10.5168,10.4948,10.4738,10.46,10.4049,10.3635,10.3433,10.501,10.6475,10.777,10.8637,10.9484,11.0399,11.0429,10.9709,10.833,10.833,10.7622,10.6268,10.4589,10.3082,6.5391,6.7452,6.8989,7.4425,7.5096,7.4762,7.6235,7.639,7.6918,7.9385,8.0067,8.1399,8.5391,9.084,9.5995,9.9835,10.0927,10.1507,10.2219,10.0601,9.939,9.9275,9.8103,9.7297,9.7297,9.8472,9.9863,10.1298,10.3816,10.5843,10.706,10.8485,10.9296,10.9345,10.9345,10.945,10.9542,10.8012,10.7858,10.9038,10.6396,10.5168,10.5168,10.5168,10.5168,10.5168,10.5168,10.5168,10.5168,10.5168,10.5168,10.5168,10.5168,10.5168,10.5168,10.5168,10.5168,10.5168,10.5168,10.5168,10.5168,10.5168,10.5168,10.5168,10.5168,10.5168,10.5168,10.5168,10.6078,10.6815,10.5505,10.5229,10.529,10.5168,10.5168,10.5168,10.5168,10.5168,10.5168,10.5168,10.5168,10.5168,10.5168,10.5168,10.5168,10.5168,10.5168,10.5168,10.5168,10.5168,10.5168,10.5168,10.5168,10.5001,10.4642,10.46,10.4462,10.408,10.6,10.7725,10.9036,10.9943,11.0429,11.0429,11.0429,11.0429,11.0429,11.0429,11.0429,11.0335,10.607,10.398,6.0541,6.3717,6.6799,6.9246,7.2891,7.6254,7.7697,7.6332,7.4659,7.4444,7.5957,7.8043,8.0332,8.5575,9.1904,9.905,10.0803,10.1656,10.2684,10.3337,10.2924,10.0858,10.0306,10.0121,10.0121,10.0438,10.1635,10.4031,10.5709,10.6784,10.7091,10.8485,10.9683,11.0727,11.0758,11.128,11.2369,10.9959,10.8362,10.7582,10.5966,10.5168,10.5168,10.5168,10.5168,10.5168,10.5168,10.5168,10.5168,10.5168,10.5168,10.5168,10.5168,10.5168,10.5168,10.5168,10.5168,10.5168,10.5168,10.5168,10.5168,10.5168,10.5168,10.5168,10.5168,10.5168,10.5168,10.5168,10.6078,10.6815,10.5505,10.5905,10.6385,10.5413,10.5168,10.5168,10.5168,10.5168,10.5168,10.5168,10.5168,10.5168,10.5168,10.5168,10.5168,10.5168,10.5168,10.5168,10.5168,10.5168,10.5168,10.5168,10.5168,10.5126,10.5042,10.5001,10.5388,10.6272,10.7113,10.8143,10.958,11.0159,11.0429,11.0429,11.0429,11.0429,11.0429,11.0429,11.0429,11.0335,10.7622,10.5393,6.1475,6.4869,6.7399,6.6403,6.9081,7.1957,7.2084,7.044,6.9069,6.9695,7.0463,7.262,7.7883,8.0985,8.5643,9.449,9.7279,9.8573,9.9271,9.9963,10.0531,10.0872,9.9841,9.9559,10.0722,10.2036,10.3448,10.4785,10.7462,10.8936,10.8901,11.0314,11.1447,11.214,11.2171,11.2201,11.2324,11.0279,10.8516,10.7091,10.5813,10.5168,10.5168,10.5168,10.5168,10.5168,10.5168,10.5168,10.5168,10.5168,10.5168,10.5168,10.5168,10.5168,10.5168,10.5168,10.5168,10.5168,10.5168,10.5168,10.5168,10.5168,10.5168,10.5168,10.5168,10.5168,10.5168,10.5168,10.569,10.6047,10.5352,10.569,10.6016,10.5321,10.5168,10.5168,10.5168,10.5168,10.5168,10.5168,10.5168,10.5168,10.5168,10.5168,10.5168,10.5168,10.5168,10.5168,10.5168,10.5168,10.5168,10.5168,10.5168,10.5168,10.5168,10.5168,10.5444,10.617,10.7366,10.8728,11.0291,11.0413,11.0429,11.0429,11.0429,11.0429,11.0429,11.0429,11.0429,11.0335,10.7085,10.4942,6.4121,6.709,6.8425,6.5317,6.5493,6.6125,6.5085,6.3482,6.2904,6.5267,6.4998,6.6884,7.5131,7.6324,7.8704,8.6898,9.1067,9.373,9.4957,9.5855,9.7458,10.0374,9.9123,9.8829,10.0888,10.3414,10.5085,10.5505,10.9006,11.1213,11.1349,11.2614,11.3321,11.3321,11.3321,11.2419,11.0559,10.9426,10.8208,10.6815,10.569,10.5168,10.5168,10.5168,10.5168,10.5168,10.5168,10.5168,10.5168,10.5168,10.5168,10.5168,10.5168,10.5168,10.5168,10.5168,10.5168,10.5168,10.5168,10.5168,10.5168,10.5168,10.5168,10.5168,10.5168,10.5168,10.5168,10.5168,10.5168,10.5168,10.5168,10.5168,10.5168,10.5168,10.5168,10.5168,10.5168,10.5168,10.5168,10.5168,10.5168,10.5168,10.5168,10.5168,10.5168,10.5168,10.5168,10.5168,10.5168,10.5168,10.5168,10.5168,10.5168,10.5168,10.5168,10.5168,10.5218,10.536,10.7337,10.9119,11.0647,11.056,11.0476,11.0429,11.0429,11.0429,11.0429,11.0429,11.0429,11.0335,10.5842,10.3827,6.2296,6.4033,6.5648,6.6155,6.565,6.5276,6.6155,6.3376,6.0836,6.1578,6.2295,6.3653,6.6672,7.0217,7.3385,7.5473,8.1633,8.8282,9.4493,9.9948,10.2656,10.1009,10.2334,10.3539,10.3922,10.4388,10.6159,10.9763,11.0664,11.1565,11.2931,11.3156,11.3321,11.3321,11.3321,11.1468,10.7617,10.7376,10.6691,10.5444,10.526,10.5168,10.5168,10.5168,10.5168,10.5168,10.5168,10.5168,10.5168,10.5168,10.5168,10.5168,10.5168,10.5168,10.5168,10.5168,10.5168,10.5168,10.5168,10.5168,10.5168,10.5168,10.5168,10.5168,10.5168,10.5168,10.5168,10.5168,10.5168,10.5168,10.5168,10.5168,10.5168,10.5168,10.5168,10.5168,10.5168,10.5168,10.5168,10.5168,10.5168,10.5168,10.5168,10.5168,10.5168,10.5168,10.5168,10.5168,10.5168,10.5168,10.5168,10.5168,10.5168,10.5168,10.5168,10.5168,10.5491,10.6261,10.764,10.8754,10.9306,11.0328,11.0744,11.0429,11.0429,11.0429,11.0429,11.0429,11.0429,11.0335,10.5842,10.3827,6.1189,6.3374,6.5609,6.4877,6.4302,6.385,6.3747,6.2224,6.0857,6.1023,6.0873,6.2062,6.6518,6.72,6.9685,7.7675,7.9761,8.3204,9.1365,9.5858,9.89,10.0375,10.1566,10.2784,10.4137,10.5031,10.5979,10.7125,10.8762,10.9667,10.9543,11.0326,11.0777,11.0777,11.0777,10.9191,10.5782,10.5752,10.4397,10.1798,10.2581,10.2596,10.1896,10.2629,10.2956,10.2956,10.2956,10.3386,10.4062,10.3294,10.3816,10.5075,10.44,10.4553,10.5168,10.5168,10.5168,10.5168,10.5168,10.5168,10.5168,10.5168,10.5168,10.5168,10.5168,10.5168,10.5168,10.5168,10.5168,10.5168,10.5168,10.5168,10.5168,10.5168,10.5168,10.5168,10.5168,10.5168,10.5168,10.5168,10.5168,10.5168,10.5168,10.5168,10.5168,10.5168,10.5168,10.5168,10.5168,10.5168,10.5168,10.5168,10.5168,10.5168,10.5168,10.5168,10.5667,10.6793,10.7601,10.8455,10.9429,11.0268,11.0587,11.0429,11.0429,11.0429,11.0429,11.0429,11.0429,11.0335,10.7085,10.4942,6.2832,0.0,6.6765,6.4863,6.424,6.3722,0.0,6.192,6.16,6.131,6.0437,6.1291,6.637,6.473,6.6187,7.7168,7.6294,7.7152,8.5665,8.8302,0.0,9.7846,9.937,10.0893,10.3348,10.4885,10.5458,10.4579,10.6721,10.7749,10.6889,10.7991,10.8648,10.8648,10.7943,10.6491,10.4261,10.4557,10.3124,9.9926,10.1034,10.1032,10.0147,10.0793,10.1113,10.1113,10.1113,10.1728,10.2649,10.1503,10.2526,10.4615,10.3632,10.4031,10.5168,10.5168,10.5168,10.5168,10.5168,10.5168,10.5168,10.5168,10.5168,10.5168,10.5168,10.5168,10.5168,10.5168,10.5168,10.5168,10.5168,10.5168,10.5168,10.5168,10.5168,10.5168,10.5168,10.5168,10.5168,10.5168,10.5168,10.5168,10.5168,10.5168,10.5168,10.5168,10.5168,10.5168,10.5168,10.5168,10.5168,10.5168,10.5168,10.5168,10.5168,10.5168,10.5709,10.689,10.7396,10.8277,10.961,11.0159,11.0429,11.0429,11.0429,11.0429,11.0429,11.0429,11.0429,11.0335,10.8136,10.5892,0.0,6.9525,6.882,6.8617,6.7652,6.6428,6.5118,6.3925,0.0,6.1484,6.1164,6.1222,6.1712,6.1567,6.1977,6.3807,6.5551,6.9209,7.6506,7.8392,0.0,9.2305,9.6539,9.9644,10.2128,10.3449,10.468,10.6078,10.6375,10.7114,10.8455,10.86,10.8648,10.8648,10.5808,10.3787,10.2639,10.3934,10.399,10.2718,10.2998,10.3007,10.2885,10.1616,10.1113,10.1113,10.1113,10.1144,10.1236,10.1104,10.1964,10.3386,10.3263,10.4031,10.5168,10.5168,10.5168,10.5168,10.5168,10.5168,10.5168,10.5168,10.5168,10.5168,10.5168,10.5168,10.5168,10.5168,10.5168,10.5168,10.5168,10.5168,10.5168,10.5168,10.5168,10.5168,10.5168,10.5168,10.5168,10.5168,10.5168,10.5168,10.5168,10.5168,10.5168,10.5168,10.5168,10.5168,10.5168,10.5168,10.5168,10.5168,10.5168,10.5168,10.5168,10.5168,10.5583,10.6523,10.7282,10.8098,10.9081,10.9973,11.0429,11.0429,11.0429,11.0429,11.0429,11.0429,11.0429,11.0335,10.8136,10.5892,7.0843,7.1109,7.0931,6.9422,6.9218,6.8726,6.5757,6.538,6.4769,6.1833,6.1252,6.1252,6.1252,6.1252,6.2763,6.7433,6.887,7.1286,7.6694,8.1082,0.0,9.0075,9.731,10.2304,10.3235,10.3771,10.4252,10.4832,10.4882,10.5135,10.5708,10.5786,10.5786,10.5786,10.3891,10.1982,10.0044,9.9761,9.8226,9.5536,9.639,9.6815,9.6939,9.721,9.7756,9.8525,9.8525,9.9055,0.0,9.8893,9.9845,10.182,10.099,10.2004,10.397,10.397,10.4461,10.5168,10.5168,10.5168,10.5168,10.5168,10.5168,10.5168,10.5168,10.5168,10.5168,10.5168,10.5168,10.5168,10.5168,10.5168,10.5168,10.5168,10.5168,10.5168,10.5168,10.5168,10.5168,10.5168,10.5168,10.5168,10.5168,10.5168,10.5168,10.5168,10.5168,10.5168,10.5168,10.5168,10.5168,10.5168,10.5168,10.5168,10.5168,10.5168,10.5173,10.529,10.6796,10.7735,10.786,10.9477,11.0429,11.0429,11.0429,11.0429,11.0429,11.0429,11.0429,11.0382,10.9567,10.7232,7.3847,7.425,7.425,7.2941,7.297,7.2247,6.7941,6.733,6.6486,6.2123,6.1252,6.1252,6.1252,6.1252,6.314,6.9012,7.0191,7.2204,7.7402,8.2409,0.0,8.8946,9.6238,10.1401,10.2191,10.3348,10.3974,10.3974,10.3974,10.3974,10.3974,10.3974,10.3827,10.3461,10.2247,10.0463,9.7979,9.7096,9.5199,9.2254,9.3204,9.3667,9.3707,9.4235,9.5139,9.6379,9.6379,9.7162,9.8349,9.7389,9.8341,10.0376,9.9494,10.0539,10.2578,10.3038,10.3785,10.4615,10.5014,10.5168,10.5168,10.5168,10.5168,10.5168,10.5168,10.5168,10.5168,10.5168,10.5168,10.5168,10.5168,10.5168,10.5168,10.5168,10.5168,10.5168,10.5168,10.5168,10.5168,10.5168,10.5168,10.5168,10.5168,10.5168,10.5168,10.5168,10.5168,10.5168,10.5168,10.5168,10.5168,10.5168,10.5168,10.5168,10.5168,10.5168,10.5001,10.46,10.6522,10.7493,10.7137,10.9207,11.0429,11.0429,11.0429,11.0429,11.0429,11.0429,11.0429,11.0429,11.0429,10.804,7.9405,7.9514,7.8845,8.0161,7.9521,7.7216,7.2131,6.9945,6.753,6.2298,6.1252,6.1252,6.1252,6.1252,6.2386,6.5882,6.7267,7.0371,7.7484,8.042,8.3683,0.0,9.2457,9.573,9.8346,10.1881,10.3974,10.3974,10.3974,10.3974,10.3974,10.3946,10.3432,10.2269,10.0978,9.9087,9.6596,9.6675,9.6135,9.4995,9.5106,9.5124,9.4964,9.3707,9.3853,9.5069,9.5069,9.5801,9.699,9.699,9.7827,9.9095,9.9095,9.9924,10.1267,10.268,10.3192,10.3417,10.4707,10.5168,10.5168,10.5168,10.5168,10.5168,10.5168,10.5168,10.5168,10.5168,10.5168,10.5168,10.5168,10.5168,10.5168,10.5168,10.5168,10.5168,10.5168,10.5168,10.5168,10.5168,10.5168,10.5168,10.5168,10.5168,10.5168,10.5168,10.5168,10.5168,10.5168,10.5168,10.5168,10.5168,10.5168,10.5168,10.5168,10.5168,10.5001,10.46,10.6522,10.7493,10.7107,10.9207,11.0429,11.0429,11.0429,11.0429,11.0429,11.0429,11.0429,11.0429,11.0429,10.804,7.8787,7.9521,7.9987,8.0365,8.019,7.8328,7.2334,7.0676,6.8637,6.2501,6.1252,6.1252,6.1252,6.1978,6.3372,6.5685,6.8506,7.164,7.5015,7.9867,8.4585,8.8748,0.0,9.7414,10.083,10.2868,10.3974,10.3974,10.3974,10.3974,10.3974,10.2338,10.1655,10.2213,9.9285,9.6896,9.5279,9.3545,9.2096,9.0962,9.0985,9.1476,9.2313,9.2869,9.3853,9.5109,9.6036,9.6642,9.699,9.699,9.7235,9.7642,9.7642,9.8472,9.9893,10.1236,10.2332,10.3417,10.4707,10.5168,10.5168,10.5168,10.5168,10.5168,10.5168,10.5168,10.5168,10.5168,10.5168,10.5168,10.5168,10.5168,10.5168,10.5168,10.5168,10.5168,10.5168,10.5168,10.5168,10.5168,10.5168,10.5168,10.5168,10.5168,10.5168,10.5168,10.5168,10.5168,10.5168,10.5168,10.5168,10.5168,10.5168,10.5168,10.5168,10.5168,10.4844,10.4043,10.6318,10.736,10.6567,10.9022,11.0429,11.0429,11.0429,11.0429,11.0429,11.0429,11.0429,11.0429,11.0429,10.9709,7.9812,8.0656,8.1354,8.1841,8.1957,8.027,7.3906,7.1665,6.9218,6.3256,6.1164,6.0932,6.2501,6.3838,6.601,6.9968,7.2865,7.5748,7.9195,8.3241,8.7209,9.0962,9.4958,0.0,0.0,10.332,10.3974,10.3974,10.3573,10.3094,10.2586,10.1097,10.0442,10.0773,9.7564,9.5232,9.4009,9.1526,8.9918,8.9228,8.9228,8.9621,9.0415,9.1212,9.2247,9.3568,9.486,9.5722,9.6231,9.6797,9.699,9.699,9.699,9.755,9.8441,9.9792,10.1175,10.2588,10.3939,10.4738,10.5168,10.5168,10.5168,10.5168,10.5168,10.5168,10.5168,10.5168,10.5168,10.5168,10.5168,10.5168,10.5168,10.5168,10.5168,10.5168,10.5168,10.5168,10.5168,10.5168,10.5168,10.5168,10.5168,10.5168,10.5168,10.5168,10.5168,10.5168,10.5168,10.5168,10.5168,10.5168,10.5168,10.5168,10.5168,10.5168,10.4761,10.3843,10.5759,10.6727,10.6356,10.839,10.9813,11.0382,11.0429,11.0429,11.0429,11.0429,11.0429,11.0429,11.0429,11.0429,8.1741,8.2498,8.2809,8.3896,8.4148,8.2501,7.6082,7.2916,6.9684,6.4129,6.1309,6.0842,6.4158,6.6281,6.9727,7.6425,7.867,8.1522,8.6997,8.8626,9.0539,9.4076,0.0,0.0,10.1648,10.2953,10.3686,10.3686,10.2642,10.1535,10.0195,10.0047,9.9539,9.86,9.604,9.4122,9.2954,9.0583,8.9341,8.9228,8.9228,8.9228,8.9228,8.9359,9.0026,9.1241,9.2568,9.3812,9.4949,9.6184,9.672,9.6836,9.6836,9.6874,9.7174,9.8757,10.0078,10.1298,10.2864,10.4185,10.5168,10.5168,10.5168,10.5168,10.5168,10.5168,10.5168,10.5168,10.5168,10.5168,10.5168,10.5168,10.5168,10.5168,10.5168,10.5168,10.5168,10.526,10.529,10.5168,10.5352,10.5444,10.5198,10.526,10.529,10.5168,10.5168,10.5168,10.5168,10.5168,10.5198,10.5321,10.5229,10.5168,10.5168,10.5126,10.4719,10.3843,10.4957,10.5882,10.6326,10.7583,10.8945,11.0399,11.0429,11.0429,11.0429,11.0429,11.0429,11.0429,11.0429,11.0429,8.2003,8.3129,8.3867,8.409,8.4148,8.2501,7.6082,7.4255,7.1516,6.3315,6.282,6.3518,6.2269,6.6992,7.2072,7.525,7.9885,8.4073,8.6999,8.8453,9.0244,0.0,9.4601,0.0,9.9108,10.0413,10.1069,10.1069,10.0893,10.0188,9.9023,9.7979,9.7753,9.8543,9.604,9.4122,9.2954,9.1385,9.0144,8.9228,8.9228,8.9228,8.9228,9.0285,9.09,9.1241,9.2568,9.3282,9.3568,9.3812,9.454,9.5456,9.5456,9.6075,9.7297,9.9762,10.0868,10.1451,10.3908,10.4922,10.5168,10.5168,10.5168,10.5168,10.5168,10.5168,10.5168,10.5168,10.5168,10.5168,10.5168,10.5168,10.5168,10.5168,10.5168,10.5168,10.5168,10.5955,10.6385,10.5352,10.6888,10.7655,10.5536,10.5986,10.6354,10.5321,10.5168,10.5168,10.5168,10.5168,10.5567,10.6569,10.5782,10.5168,10.5168,10.4906,10.4443,10.3843,10.4715,10.5589,10.6281,10.7583,10.8945,11.0399,11.0429,11.0429,11.0429,11.0429,11.0429,11.0429,11.0429,11.0429,8.2917,8.3693,8.4148,8.4148,8.4148,8.2995,7.8467,7.646,7.3901,6.7966,6.6892,6.6746,6.6048,7.0971,7.6186,7.9294,8.3988,8.7891,8.9739,9.0031,9.0567,9.1836,9.3568,9.5429,9.7423,9.9257,10.028,10.028,9.9793,9.889,9.7668,9.6963,9.6906,9.7612,9.5137,9.3529,9.2926,9.1075,8.9833,8.9228,8.9228,8.9228,8.9228,8.9897,9.0242,9.0329,9.1593,9.2151,9.2235,9.2829,9.3894,9.5069,9.5069,9.6274,9.8195,9.9608,10.099,10.2271,10.3755,10.4645,10.5168,10.5168,10.5168,10.5168,10.5168,10.5168,10.5168,10.5168,10.5168,10.5168,10.5168,10.5168,10.5168,10.5168,10.5168,10.5168,10.5168,10.617,10.6937,10.6231,10.7809,10.8804,10.7348,10.7686,10.7901,10.7195,10.7103,10.7103,10.7103,10.6519,10.6108,10.617,10.5567,10.5168,10.5168,10.4959,10.4539,10.3843,10.424,10.4758,10.5399,10.664,10.7972,10.9364,11.0053,11.0429,11.0429,11.0429,11.0429,11.0429,11.0429,11.0429,8.3722,8.4148,8.4148,8.4148,8.4148,8.3518,8.1063,7.8787,7.6367,7.3315,7.1254,7.0236,7.1112,7.5518,8.0509,8.4836,8.8939,9.2,9.3182,9.248,9.1571,0.0,9.2778,9.4611,9.6134,9.8136,0.0,9.9652,9.8326,9.7188,9.6342,9.6285,9.6285,9.6285,9.4309,9.3039,9.2615,9.0539,8.941,8.9228,8.9228,8.9228,8.9228,8.9228,8.9228,8.9272,9.0372,9.0843,9.09,9.1984,9.3364,9.471,9.471,9.6389,9.8787,9.9033,10.0723,10.2895,10.3171,10.4093,10.5168,10.5168,10.5168,10.5168,10.5168,10.5168,10.5168,10.5168,10.5168,10.5168,10.5168,10.5168,10.5168,10.5168,10.5168,10.5229,10.5444,10.6354,10.7183,10.7429,10.8823,10.9818,10.9327,10.945,10.9468,10.9296,10.9265,10.9173,10.8884,10.7828,10.6692,10.5628,10.529,10.5168,10.5168,10.5126,10.4677,10.3873,10.3745,10.392,10.4382,10.5414,10.6699,10.8211,10.9454,11.0143,11.0429,11.0429,11.0429,11.0429,11.0429,11.0429,8.3257,8.4148,8.4148,8.4148,8.4148,8.3518,8.1063,8.0219,7.8554,7.3726,7.3348,7.3581,7.265,7.7267,8.2835,8.7829,0.0,9.545,9.5291,9.5114,9.4022,9.13,9.1284,9.2384,9.4696,9.5232,9.5899,9.7019,9.4958,9.4009,9.4865,9.4922,9.4922,9.4922,9.4583,9.3399,9.1256,9.0917,9.0212,8.9228,8.9228,8.9228,8.9228,8.9228,8.9228,8.9228,8.9403,8.949,8.949,8.9664,9.114,9.3364,9.3364,9.498,9.742,9.8695,10.0109,10.1574,10.2803,10.4093,10.5168,10.5168,10.5168,10.5168,10.5168,10.5168,10.5168,10.5168,10.5168,10.5168,10.5168,10.5168,10.5168,10.5168,10.5168,10.5475,10.66,10.6999,10.749,10.87,11.1047,11.2031,10.9665,11.0174,11.0573,10.945,10.9265,10.8792,10.7551,10.7244,10.706,10.6876,10.5874,10.5168,10.5168,10.4864,10.4401,10.3843,10.3476,10.3634,10.4352,10.4546,10.5772,10.8211,10.8496,10.9185,11.0429,11.0429,11.0429,11.0429,11.0429,11.0429,8.1462,8.3111,8.4148,8.4148,8.4148,8.3858,8.2791,8.2568,8.1724,7.8765,7.859,7.859,7.731,8.0347,8.4137,8.7565,0.0,0.0,9.3828,9.4231,9.3476,0.0,9.0684,0.0,9.2496,9.323,9.3896,9.4507,9.3547,9.318,9.3642,9.367,9.4009,9.464,9.4037,9.3162,9.209,9.068,8.972,8.9228,8.9228,8.9228,8.9228,8.9228,8.9228,8.9228,8.9228,8.9228,8.9228,8.9228,9.0743,9.3117,9.3117,9.518,9.8349,9.97,10.1113,10.2495,10.3847,10.4676,10.5168,10.5168,10.5168,10.5168,10.5168,10.5168,10.5168,10.5168,10.5168,10.5168,10.5168,10.5168,10.5168,10.5168,10.5751,10.6385,10.6999,10.7736,10.87,11.0082,11.1925,11.2922,11.1723,11.1986,11.1925,11.0543,11.0328,10.9591,10.7398,10.7122,10.6845,10.6078,10.5505,10.5168,10.5168,10.481,10.4358,10.3843,10.3433,10.3259,10.3305,10.3978,10.5264,10.7118,10.7912,10.8975,11.0429,11.0429,11.0429,11.0429,11.0429,11.0429,7.9463,8.1346,8.2966,8.3954,8.4148,8.4148,8.4148,8.4148,8.3925,8.3042,8.2643,8.2207,8.1558,8.2908,8.499,8.7567,9.1499,0.0,9.317,9.4494,0.0,9.0896,0.0,9.1197,9.1286,9.2,0.0,9.213,9.2011,9.2107,9.2401,9.2429,9.2824,9.3709,9.288,9.226,9.1994,9.016,8.9228,8.9228,8.9228,8.9228,8.9228,8.9228,8.9228,8.9228,8.9228,8.9228,8.9228,8.9228,9.0558,9.2651,9.2953,9.5139,9.8294,9.995,10.1482,10.2925,10.4584,10.5168,10.5168,10.5168,10.5168,10.5168,10.5168,10.5168,10.5168,10.5168,10.5168,10.5168,10.5168,10.5413,10.5659,10.5659,10.6661,10.7736,10.8073,10.9007,11.0143,11.1495,11.257,11.3321,11.3321,11.3014,11.2386,11.1328,11.0867,10.9701,10.6968,10.663,10.6231,10.526,10.5168,10.5168,10.5168,10.4906,10.4485,10.3843,10.3561,10.3088,10.2467,10.335,10.4516,10.5832,10.7134,10.845,10.9843,11.0249,11.0429,11.0429,11.0429,11.0429,7.7594,7.8729,7.9688,8.3286,8.4148,8.4148,8.4148,8.4148,8.4148,8.4061,8.3178,8.2722,8.378,0.0,8.5398,8.9233,9.4086,9.68,9.5155,9.8172,9.848,0.0,0.0,0.0,0.0,0.0,0.0,9.0022,8.9616,8.989,9.103,9.1086,9.1115,9.1171,9.1115,9.0522,8.9426,8.9313,8.9228,8.9228,8.9228,8.9228,8.9228,8.9228,8.9228,8.9228,8.9228,8.9228,8.9228,8.9228,9.0026,9.141,9.2651,9.4005,9.5579,9.8264,10.0078,10.1574,10.4246,10.5168,10.5168,10.5168,10.5168,10.5168,10.5168,10.5168,10.5168,10.5168,10.5168,10.5168,10.5168,10.6078,10.7029,10.7029,10.8116,10.9468,11.0714,11.1021,11.1526,11.2952,11.326,11.3321,11.3321,11.2201,11.1266,11.1205,11.0143,10.8331,10.5598,10.526,10.5229,10.5168,10.5168,10.5168,10.5168,10.5168,10.4761,10.3843,10.3757,10.336,10.2467,10.2483,10.3141,10.4457,10.5772,10.7058,10.8361,10.9724,11.0429,11.0429,11.0429,11.0429,7.4977,7.6664,7.7791,8.0001,8.1811,8.3042,8.3042,8.3605,8.4148,8.4148,8.3838,8.3964,8.5175,8.4739,8.5175,8.8268,9.096,9.2807,9.3028,9.5374,9.6395,9.4371,9.301,9.2303,0.0,0.0,0.0,9.0343,8.9853,8.9791,9.0173,9.0201,9.0701,9.179,9.0802,9.0443,9.084,8.9783,8.9228,8.9228,8.9228,8.9228,8.9228,8.9228,8.9228,8.9228,8.9228,8.9228,8.9228,8.9228,9.0012,9.1283,9.261,9.447,9.6737,9.9417,10.1267,10.2741,10.4523,10.5168,10.5168,10.5168,10.5168,10.5014,10.4185,10.4492,10.4799,10.3048,10.3202,10.3724,10.2772,10.2854,10.3222,10.3222,10.4983,10.6734,10.7225,10.87,11.0082,11.0617,11.0709,11.0709,11.0709,11.0973,11.0867,11.0051,10.8024,10.6273,10.529,10.443,10.4246,10.5075,10.44,10.4246,10.5075,10.4948,10.4497,10.3843,10.3574,10.3088,10.2467,10.2423,10.3051,10.4367,10.4845,10.6131,10.8241,10.7942,10.8211,10.9035,10.9035,10.857,7.0963,7.3028,7.5006,7.6257,7.8561,8.0452,8.0452,8.1404,8.2414,8.2821,8.3257,8.3954,8.5233,8.4768,8.4739,8.6454,8.8198,8.9943,9.17,9.3884,9.5492,9.5853,9.4415,0.0,0.0,0.0,9.1217,9.0815,9.0329,9.007,9.007,9.007,9.0599,9.1689,9.0627,9.0382,9.1089,9.0002,8.9359,8.9228,8.9228,8.9228,8.9228,8.9359,8.9359,8.9228,8.9534,8.9577,8.9403,8.9403,9.0026,9.1171,9.3067,9.499,9.7155,10.0549,10.3045,10.4726,10.4873,10.5388,10.585,10.488,10.488,10.5045,10.3673,10.3688,10.3794,10.1975,10.199,10.2311,10.1359,10.1451,10.182,10.182,10.354,10.5168,10.5168,10.658,10.784,10.784,10.8208,10.8516,10.8516,10.9652,11.0082,10.8731,10.698,10.5321,10.397,10.3048,10.3048,10.4369,10.3755,10.3755,10.5045,10.4948,10.4497,10.3843,10.3531,10.3088,10.2467,10.2423,10.2842,10.3709,10.4158,10.5234,10.6984,10.6939,10.7463,10.8317,10.8749,10.851,6.5961,6.7968,7.1083,7.2301,7.4536,7.6483,7.6483,7.7507,7.8787,8.0103,8.145,8.2693,8.3838,8.409,8.4148,8.4148,8.6309,8.8879,9.1467,9.407,9.6164,9.7356,9.6042,9.4782,0.0,9.3464,9.2584,9.13,9.0829,9.0615,9.0615,9.0615,9.0615,9.0615,9.0615,9.0329,8.9825,8.9825,8.9636,8.9228,8.9228,8.9228,8.9272,8.9608,8.9593,8.9272,9.0185,9.0314,8.9882,8.9925,9.0256,9.1059,9.4194,9.5643,9.6636,10.1526,10.5204,10.736,10.517,10.5823,10.7164,10.4325,10.4357,10.5206,10.3752,10.2838,10.2248,10.2185,10.1635,10.1061,10.099,10.2044,10.3048,10.3048,10.4031,10.4983,10.4983,10.5014,10.5045,10.5045,10.6047,10.6937,10.6937,10.8147,10.8608,10.7152,10.6937,10.5525,10.1605,10.1113,10.1595,10.3018,10.314,10.3632,10.4922,10.5045,10.4669,10.3782,10.3739,10.3372,10.2467,10.2423,10.2423,10.2423,10.3679,10.4337,10.4397,10.6865,10.8091,10.8181,10.9604,11.0262,6.9046,6.8057,6.7241,6.948,7.1923,7.3751,7.3751,7.4773,7.6082,7.7391,7.9427,8.1121,8.1404,8.2937,8.4148,8.4148,8.5553,8.725,8.8879,9.1351,9.3474,9.4754,9.5306,9.5538,9.5321,9.4289,9.3377,9.2613,9.1618,9.1014,9.1014,9.1014,9.1184,9.1553,9.1184,9.0929,9.0772,9.0501,9.0314,9.0228,9.0228,9.0228,9.0185,8.994,8.9738,8.968,9.0314,9.1045,9.1847,9.3096,9.3934,9.471,9.7805,9.9694,10.1097,10.5018,10.6956,10.7439,10.582,10.5608,10.5874,10.4011,10.3658,10.3721,10.2369,10.25,10.2693,10.0693,10.0724,10.0983,9.9383,9.9261,9.9417,9.8865,9.9762,10.0815,10.0815,10.1543,10.2219,10.2219,10.2526,10.2731,10.2731,10.4738,10.5475,10.3069,10.2731,10.2332,10.1236,10.1113,10.1267,10.1635,10.0806,10.0775,10.2096,10.2219,10.2282,10.2374,10.2393,10.2393,10.2437,10.2423,10.2423,10.2423,10.2782,10.341,10.4397,10.4128,10.4561,10.5473,10.6865,10.6984,6.4275,6.2471,6.0958,6.3547,6.5292,6.7212,7.044,7.1312,7.216,7.4512,7.6606,7.8212,7.8729,8.0939,8.2617,0.0,8.4129,8.5931,8.7803,8.9344,9.1205,9.3604,9.3604,9.3387,9.3387,9.3183,9.2982,9.2653,9.1916,9.1481,9.1481,9.1481,9.1637,9.1962,9.1637,9.1397,9.1156,9.0929,9.0715,9.0572,9.0572,9.0572,9.0572,9.0242,9.0214,9.0415,9.1504,9.2296,9.2944,9.5257,9.6499,9.7226,10.0599,10.2442,10.3474,10.5231,10.6743,10.7506,10.5127,10.4924,10.5385,10.3415,10.313,10.3352,10.2018,10.1925,10.1921,10.0345,10.0216,10.0288,9.8997,9.8666,9.8443,9.7685,9.8112,9.8622,9.8304,9.884,9.9354,9.9354,9.9854,10.0253,10.0253,10.2035,10.2526,9.9753,9.9885,10.0038,9.9446,9.9354,9.9354,9.9354,9.9209,9.9678,10.099,10.1113,10.1017,10.0979,10.0957,10.0944,10.0834,10.136,10.1616,10.1616,10.2154,10.2782,10.356,10.335,10.3619,10.4427,10.5743,10.5623,5.4764,5.3771,5.3766,5.6098,5.6729,5.8649,0.0,6.6576,6.6897,7.0469,7.2592,7.4192,7.5495,7.7972,7.987,8.0016,8.2015,8.439,8.6872,8.7454,8.885,9.2236,9.0944,8.9855,8.9972,9.1164,9.1962,9.1962,9.1962,9.1962,9.1962,9.1962,9.1962,9.1962,9.1962,9.1722,9.1269,9.1269,9.1099,9.0744,9.0744,9.0744,9.0744,9.0844,9.1073,9.1601,9.3289,9.3839,9.3723,9.6867,9.8541,9.934,10.2634,10.4272,10.4715,10.3986,10.5439,10.7358,10.3934,10.4056,10.5279,10.271,10.2611,10.3384,10.2227,10.1387,10.0826,10.0826,10.0227,9.9585,9.9512,9.9476,9.9257,9.84,9.8175,9.7949,9.7182,9.699,9.699,9.699,9.8042,9.891,9.891,9.9977,10.0008,9.7389,9.8072,9.8449,9.7143,9.699,9.699,9.699,9.8134,9.9371,10.053,10.0653,10.0283,9.9513,9.9502,9.9223,9.856,9.9655,10.0283,10.0283,10.1569,10.2257,10.2257,10.353,10.4158,10.4188,10.5503,10.5354,0.0,0.0,0.0,0.0,0.0,0.0,0.0,0.0,5.9256,6.1448,6.5408,6.893,7.0236,7.3377,7.6146,7.7187,7.8641,8.0183,8.1733,8.3673,8.4826,8.4681,8.6912,8.8879,8.9914,9.1164,9.1962,9.1962,9.1962,9.1962,9.1962,9.1962,9.1962,9.1962,9.1962,9.1919,9.1764,9.1764,9.1764,9.1666,9.1666,9.1666,9.1695,9.2338,9.2887,9.3433,9.4391,9.5127,9.591,9.9313,10.1664,10.3151,10.4175,10.572,10.7187,10.5927,10.5862,10.608,10.4232,10.385,10.3928,10.2388,10.2034,10.2195,10.1937,10.1736,10.1632,10.1632,10.1527,10.1215,10.0581,10.0402,10.0042,9.8549,9.8175,9.7949,9.7182,9.699,9.699,9.699,9.7205,9.7389,9.7389,9.8564,9.8932,9.7235,9.7235,9.7297,9.7051,9.699,9.699,9.699,9.7235,9.7512,9.7757,9.7788,9.7897,9.8128,9.8148,9.8257,9.853,9.8787,9.8937,9.8937,10.0223,10.0881,10.0881,10.2198,10.2812,10.2842,10.4158,10.35,0.0,0.0,0.0,0.0,0.0,0.0,0.0,0.0,0.0,0.0,0.0,6.3728,0.0,0.0,7.3689,7.4434,7.6778,7.8546,7.8545,8.0735,8.187,8.0627,8.2751,8.5011,8.6919,8.8257,8.9565,9.0873,9.096,9.1251,9.1932,9.1962,9.1962,9.1962,9.1962,9.1962,9.1962,9.1962,9.1962,9.1962,9.2601,9.2572,9.1991,9.3028,9.326,9.295,9.3347,9.4503,9.6375,9.8091,10.1219,10.4785,10.3732,10.4377,10.5762,10.4414,10.4317,10.4668,10.3287,10.2836,10.2707,10.2066,10.1841,10.1841,10.1841,10.1841,10.1841,10.1841,10.1841,10.1771,10.1387,10.1282,10.0862,9.9178,9.8741,9.8406,9.7258,9.699,9.699,9.699,9.699,9.699,9.699,9.7612,9.7827,9.7113,9.699,9.699,9.699,9.699,9.699,9.699,9.699,9.699,9.699,9.699,9.7103,9.7386,9.7022,9.6727,9.6524,9.7201,9.756,9.756,9.8847,9.9535,9.9535,10.0193,10.0851,10.145,10.0061,9.9146,0.0,0.0,0.0,0.0,0.0,0.0,0.0,0.0,0.0,0.0,0.0,0.0,0.0,0.0,0.0,7.1535,7.4746,7.6856,7.6304,7.8013,7.8877,7.7572,7.9027,8.0881,8.2908,8.4681,8.6629,8.8722,8.9332,9.0175,9.1483,9.1583,9.17,9.1962,9.1962,9.1962,9.1962,9.1962,9.1962,9.1962,9.3009,0.0,9.1991,9.327,9.3299,9.234,9.2572,9.4219,9.6743,9.7013,10.0183,10.4665,10.2923,10.2707,10.3319,10.2259,10.2514,10.3287,10.2227,10.1841,10.1841,10.1841,10.1841,10.1841,10.1841,10.1841,0.0,10.1841,10.1841,10.1841,10.1841,10.1841,10.146,9.9943,9.9439,9.8926,9.7495,9.7105,9.699,9.699,9.699,9.699,9.699,9.699,9.699,9.699,9.699,9.699,9.699,9.699,9.699,9.699,9.699,9.699,9.699,9.6529,9.6429,9.6843,9.5727,9.4552,9.3372,9.421,9.4818,9.5058,9.5866,9.6753,9.777,9.777,9.8308,9.9206,9.3402,9.2155,0.0,0.0,0.0,0.0,0.0,0.0,0.0,0.0,0.0,0.0,0.0,0.0,0.0,0.0,0.0,0.0,7.0509,7.2545,7.4551,7.5129,7.4821,7.3511,7.6547,7.8845,7.9136,8.2326,8.4536,8.4826,8.6988,8.885,9.0146,9.0204,0.0,0.0,0.0,9.1962,9.1962,9.1962,9.1962,9.1962,9.2107,9.2078,9.1991,9.327,9.3837,9.3707,9.4884,9.6558,9.8539,9.9843,10.1122,10.2368,10.3249,10.2965,10.2066,10.1905,10.1937,10.2066,10.1905,0.0,0.0,10.1841,10.1841,10.1841,10.1841,10.1841,10.1841,10.1841,10.1841,10.1841,10.1841,10.1841,10.1632,10.0755,9.9907,9.911,9.825,9.7457,9.699,9.699,9.699,9.699,9.699,9.699,9.699,9.699,9.699,9.699,9.699,9.699,9.699,9.699,9.699,0.0,9.699,9.4909,9.439,9.6334,9.377,9.1342,8.9371,8.8354,8.8354,8.9521,8.8533,9.029,9.4917,9.4917,9.5047,9.4827,8.2927,8.1128,0.0,0.0,0.0,0.0,0.0,0.0,0.0,0.0,0.0,0.0,0.0,0.0,0.0,0.0,0.0,0.0,6.7274,6.9621,7.0649,7.0295,7.0598,7.2476,7.4138,7.5442,7.6198,7.9078,8.1893,8.4222,8.528,8.7093,9.0069,8.9376,8.914,8.9664,8.9693,9.0042,9.0815,9.0815,9.1164,9.1962,9.2718,9.2689,9.2033,9.4241,9.489,9.4334,9.5754,9.7402,9.9141,9.9733,10.0736,10.1744,0.0,0.0,0.0,0.0,9.9359,9.9359,9.9359,9.9906,10.0617,10.0617,10.1164,10.1841,10.1841,10.1841,10.1841,10.1841,10.1841,10.1841,10.1841,10.1841,10.1667,10.0894,10.0011,9.911,9.8362,9.7533,9.699,9.699,9.699,0.0,9.699,9.699,9.699,9.699,9.699,9.699,9.699,9.699,9.699,9.699,9.699,9.699,9.699,9.6007,0.0,0.0,0.0,9.3641,9.2546,9.1703,0.0,0.0,0.0,8.3978,8.5318,8.2378,0.0,0.0,7.4026,7.3758,0.0,0.0,0.0,0.0,0.0,0.0,0.0,0.0,0.0,0.0,0.0,0.0,0.0,0.0,0.0,0.0,0.0,6.527,6.526,6.5602,6.6976,7.0091,7.1058,7.191,7.2817,7.5673,7.8704,8.1602,8.2637,8.4467,8.7477,8.7612,8.7542,8.7512,8.7861,8.8501,8.9449,8.9449,8.9914,9.0885,9.1816,9.2009,9.1589,9.3683,9.434,9.4032,9.5135,9.6603,9.8166,9.8166,9.9159,10.0421,9.7974,9.6976,9.6943,9.6525,9.6396,9.6396,9.6396,9.7105,9.804,9.8427,9.9264,10.0166,10.0552,10.0423,10.0164,10.0584,10.0423,10.0198,10.0584,10.0713,10.0544,9.999,9.9014,9.8052,9.7499,9.6602,9.6038,9.6376,9.6161,9.5915,9.5915,9.6191,9.6468,9.6468,9.6775,9.699,9.699,9.699,9.699,9.699,9.699,9.699,9.699,9.6345,9.6031,9.6262,9.5281,9.4639,9.4509,9.3111,9.1577,8.9902,8.3948,7.9819,0.0,0.0,0.0,0.0,0.0,0.0,0.0,0.0,0.0,0.0,0.0,0.0,0.0,0.0,0.0,0.0,0.0,0.0,0.0,0.0,0.0,0.0,0.0,0.0,5.8216,6.1691,6.4357,6.4747,6.7021,6.8576,6.8635,7.2369,7.4808,7.4929,7.8459,8.0642,8.0774,8.4341,8.6301,8.6145,8.7395,8.8064,8.8123,8.8123,8.8123,8.8152,8.821,8.8993,9.0435,9.0542,9.1288,9.2593,9.263,9.3612,9.5169,9.5169,9.6168,9.7555,9.6074,9.5495,9.5334,9.395,9.3435,9.3435,9.3435,9.3467,9.3725,9.5141,9.5592,9.5881,9.7265,9.6718,9.5913,9.733,9.6686,9.5946,9.733,9.7716,9.7716,9.765,9.6504,9.5362,9.5362,9.4217,9.3588,9.4885,9.408,9.322,9.322,9.4264,9.5131,9.5131,9.6161,0.0,9.699,9.699,9.699,9.699,9.699,9.699,9.699,9.4694,9.3988,9.5749,9.3327,9.2097,9.2574,8.8952,8.575,8.317,8.1614,7.8959,7.5168,0.0,0.0,0.0,0.0,0.0,0.0,0.0,0.0,0.0,0.0,0.0,0.0,0.0,0.0,0.0,0.0,0.0,0.0,0.0,0.0,0.0,0.0,0.0,0.0,0.0,6.2094,6.4285,6.446,6.4454,6.4551,6.8178,7.1354,7.3346,7.6954,7.9165,7.9421,8.1282,8.194,8.111,8.225,8.3788,8.5596,8.5616,8.697,8.9585,8.9585,9.0376,9.1831,9.2973,9.3767,9.4238,9.539,9.6211,9.672,9.672,9.3723,8.9122,8.9603,8.9764,8.9797,9.0279,9.044,9.044,9.044,9.044,9.0698,9.2147,9.3242,9.4143,9.4626,9.4433,9.4143,9.4626,9.4401,9.4143,9.4626,9.4755,9.4755,9.4755,9.361,9.2536,9.2536,9.2109,9.1837,9.2267,9.016,8.7928,8.6623,8.9687,9.1438,8.8731,9.1801,9.438,9.438,9.438,9.438,9.438,9.438,9.438,9.438,9.3396,9.2472,9.1886,9.0737,8.963,8.8683,8.7396,8.5869,8.4133,8.3655,7.7645,6.5892,0.0,0.0,0.0,0.0,0.0,0.0,0.0,0.0,0.0,0.0,0.0,0.0,0.0,0.0,0.0,0.0,0.0,0.0,0.0,0.0,0.0,0.0,0.0,0.0,0.0,0.0,6.2412,6.1582,0.0,6.0838,6.3244,6.5831,6.8283,7.2019,7.4696,7.5889,7.7891,7.881,7.8463,7.9658,8.1112,8.2865,8.2904,8.4209,8.6783,8.6783,8.7591,8.9016,9.0106,9.1193,9.2167,9.2762,9.3306,9.3725,9.321,8.9154,8.3297,8.374,8.3289,8.2552,8.3998,8.4513,8.4674,8.5643,8.5965,8.6126,8.706,8.7317,8.7379,8.7865,8.6963,8.6191,8.8187,8.8734,8.9217,9.1245,9.1793,9.1793,9.1793,9.0714,8.9705,8.9705,8.9049,8.8369,8.8156,8.6773,8.4716,8.2012,8.4773,8.6493,8.3849,8.7318,9.0732,9.2175,9.279,9.3097,9.3097,9.2636,9.236,9.236,9.157,9.0495,8.921,8.8715,8.7743,8.6086,8.5989,8.4529,8.1394,8.0371,7.3993,0.0,0.0,0.0,0.0,0.0,0.0,0.0,0.0,0.0,0.0,0.0,0.0,0.0,0.0,0.0,0.0,0.0,0.0,0.0,0.0,0.0,0.0,0.0,0.0,0.0,0.0,0.0,5.9052,5.8173,0.0,0.0,0.0,0.0,5.9811,6.3831,6.732,6.9799,7.3754,7.6568,7.7923,7.9206,7.9969,8.0156,8.0183,8.0245,8.0402,8.0402,8.1228,8.275,8.275,8.4205,8.6735,8.5324,8.5517,8.6639,8.4841,8.2492,7.9821,7.8522,7.6274,7.3995,7.5527,7.6068,7.6461,7.93,8.0271,8.0239,8.011,7.8238,7.6294,7.7331,7.4761,0.0,0.0,7.9751,8.1099,8.6802,8.8281,8.8376,8.8571,8.7562,8.6619,8.6713,8.5134,8.3368,8.2479,8.327,8.2715,7.8507,0.0,7.9952,7.9828,8.2437,8.5875,8.9872,9.1745,9.2697,9.2697,9.1469,9.067,9.0634,8.9152,8.8027,8.756,8.7175,8.624,8.4618,8.4319,8.1274,7.5141,7.2135,0.0,0.0,0.0,0.0,0.0,0.0,0.0,0.0,0.0,0.0,0.0,0.0,0.0,0.0,0.0,0.0,0.0,0.0,0.0,0.0,0.0,0.0,0.0,0.0,0.0,0.0,4.904,5.3312,5.5141,5.318,5.1677,0.0,0.0,0.0,0.0,0.0,0.0,6.1399,6.5186,6.8922,7.2447,7.3813,7.5959,7.8955,7.8986,7.9991,8.2006,8.2006,8.2815,8.422,8.422,8.4588,8.5292,8.4906,8.497,8.4777,7.8083,7.4285,7.2539,7.1147,6.9448,6.8193,7.0704,7.1605,7.2153,7.6074,7.7427,7.7105,7.4954,7.3054,7.0897,6.6978,0.0,0.0,0.0,0.0,7.1421,7.6668,7.8324,7.9273,8.202,8.091,7.9823,8.1869,8.1917,7.9896,7.4141,7.2522,6.9996,6.339,0.0,0.0,0.0,0.0,7.8537,8.1609,8.4924,8.7011,8.705,8.6708,8.6356,8.6053,8.5402,8.4413,8.3029,8.2652,8.2288,8.1854,7.8058,7.4739,7.2226,0.0,0.0,0.0,0.0,0.0,0.0,0.0,0.0,0.0,0.0,0.0,0.0,0.0,0.0,0.0,0.0,0.0,0.0,0.0,0.0,0.0,0.0,0.0,0.0,0.0,0.0,0.0,4.3758,4.8568,5.0606,4.837,4.6731,0.0,0.0,0.0,0.0,0.0,0.0,0.0,0.0,0.0,6.4787,6.6871,6.9299,7.2204,7.4055,7.5723,7.7242,7.7781,7.8437,7.9241,7.9885,8.0496,8.1103,8.1103,8.0041,7.7857,7.2524,6.8414,6.5341,0.0,0.0,0.0,0.0,6.3632,6.4041,6.7151,6.8115,6.753,6.4936,0.0,0.0,0.0,0.0,0.0,0.0,0.0,6.4664,6.9308,7.3036,7.6123,7.8215,7.7345,7.6476,7.8028,7.4428,6.9583,6.5166,6.3737,6.1383,5.5298,0.0,0.0,0.0,0.0,7.2886,7.7401,8.2038,8.4924,8.4929,8.4435,8.3997,8.3799,8.285,8.2055,8.1566,8.1222,8.0199,7.8294,7.4288,6.9375,0.0,0.0,0.0,0.0,0.0,0.0,0.0,0.0,0.0,0.0,0.0,0.0,0.0,0.0,0.0,0.0,0.0,0.0,0.0,0.0,0.0,0.0,0.0,0.0,0.0,0.0,0.0,0.0,0.0,4.2584,4.5827,0.0,0.0,0.0,0.0,0.0,0.0,0.0,0.0,0.0,0.0,0.0,0.0,0.0,6.0995,6.2967,6.6405,6.8312,6.8724,6.9912,7.0591,7.0841,7.246,7.3967,7.5256,7.4347,0.0,6.927,6.7238,0.0,0.0,0.0,0.0,0.0,0.0,0.0,0.0,0.0,0.0,0.0,0.0,0.0,0.0,0.0,0.0,0.0,0.0,0.0,0.0,0.0,0.0,7.3568,7.3898,7.3754,7.3259,7.2221,6.4195,5.6861,5.5765,5.5672,5.4451,0.0,0.0,0.0,0.0,0.0,0.0,7.4883,8.0809,8.4402,8.4407,8.3393,8.2776,8.2928,8.1433,8.0859,8.1711,8.0585,7.8145,7.4256,7.1385,0.0,0.0,0.0,0.0,0.0,0.0,0.0,0.0,0.0,0.0,0.0,0.0,0.0,0.0,0.0,0.0,0.0,0.0,0.0,0.0,0.0,0.0,0.0,0.0,0.0,0.0,0.0,0.0,0.0,0.0,0.0,0.0,0.0,0.0,0.0,0.0,0.0,0.0,0.0,0.0,0.0,0.0,0.0,0.0,0.0,0.0,0.0,0.0,0.0,0.0,6.134,6.2636,6.3845,6.6493,6.8358,6.9176,6.3469,6.3092,6.614,6.0206,0.0,0.0,0.0,0.0,0.0,0.0,0.0,0.0,0.0,0.0,0.0,0.0,0.0,0.0,0.0,0.0,0.0,0.0,0.0,0.0,0.0,0.0,5.8672,6.0923,6.2615,6.1937,5.5488,0.0,0.0,0.0,0.0,0.0,0.0,0.0,0.0,0.0,0.0,0.0,6.9529,7.6879,8.158,8.158,8.1365,8.1604,8.244,8.1924,8.1496,8.1366,7.605,7.2106,0.0,0.0,0.0,0.0,0.0,0.0,0.0,0.0,0.0,0.0,0.0,0.0,0.0,0.0,0.0,0.0,0.0,0.0,0.0,0.0,0.0,0.0,0.0,0.0,0.0,0.0,0.0,0.0,0.0,0.0,0.0,0.0,0.0,0.0,0.0,0.0,0.0,0.0,0.0,0.0,0.0,0.0,0.0,0.0,0.0,0.0,0.0,0.0,0.0,0.0,0.0,0.0,0.0,0.0,0.0,0.0,0.0,0.0,5.6498,5.3749,0.0,0.0,0.0,0.0,0.0,0.0,0.0,0.0,0.0,0.0,0.0,0.0,0.0,0.0,0.0,0.0,0.0,0.0,0.0,0.0,0.0,0.0,0.0,0.0,0.0,0.0,0.0,0.0,0.0,0.0,0.0,0.0,0.0,0.0,0.0,0.0,0.0,0.0,0.0,0.0,6.775,7.5115,7.9551,7.8814,7.9398,7.9765,7.9513,7.9323,7.8458,7.674,7.2226,0.0,0.0,0.0,0.0,0.0,0.0,0.0,0.0,0.0,0.0,0.0,0.0,0.0,0.0,0.0,0.0,0.0,0.0,0.0,0.0,0.0,0.0,0.0,0.0,0.0,0.0,0.0,0.0,0.0,0.0,0.0,0.0,0.0,0.0,0.0,0.0,0.0,0.0,0.0,0.0,0.0,0.0,0.0,0.0,0.0,0.0,0.0,0.0,0.0,0.0,0.0,0.0,0.0,0.0,0.0,0.0,0.0,0.0,0.0,4.8945,4.4707,0.0,0.0,0.0,0.0,0.0,0.0,0.0,0.0,0.0,0.0,0.0,0.0,0.0,0.0,0.0,0.0,0.0,0.0,0.0,0.0,0.0,0.0,0.0,0.0,0.0,0.0,0.0,0.0,0.0,0.0,0.0,0.0,0.0,0.0,0.0,0.0,0.0,0.0,0.0,0.0,6.7302,7.4419,7.8384,7.6941,7.7801,7.8108,7.7309,7.7187,7.5747,7.2515,6.8374,0.0,0.0,0.0,0.0,0.0,0.0,0.0,0.0,0.0,0.0,0.0,0.0,0.0,0.0,0.0,0.0,0.0,0.0,0.0,0.0,0.0,0.0,0.0,0.0,0.0,0.0,0.0,0.0,0.0,0.0,0.0,0.0,0.0,0.0,0.0,0.0,0.0,0.0,0.0,0.0,0.0,0.0,0.0,0.0,0.0,0.0,0.0,0.0,0.0,0.0,0.0,0.0,0.0,0.0,0.0,0.0,0.0,0.0,0.0,0.0,0.0,0.0,0.0,0.0,0.0,0.0,0.0,0.0,0.0,0.0,0.0,0.0,0.0,0.0,0.0,0.0,0.0,0.0,0.0,0.0,0.0,0.0,0.0,0.0,0.0,0.0,0.0,0.0,0.0,0.0,0.0,0.0,0.0,0.0,0.0,0.0,0.0,0.0,0.0,0.0,0.0,6.7352,7.4419,7.8384,7.6941,7.691,7.7463,7.863,7.8409,7.6511,7.2576,0.0,0.0,0.0,0.0,0.0,0.0,0.0,0.0,0.0,0.0,0.0,0.0,0.0,0.0,0.0,0.0,0.0,0.0,0.0,0.0,0.0,0.0,0.0,0.0,0.0,0.0,0.0,0.0,0.0,0.0,0.0,0.0,0.0,0.0,0.0,0.0,0.0,0.0,0.0,0.0,0.0,0.0,0.0,0.0,0.0,0.0,0.0,0.0,0.0,0.0,0.0,0.0,0.0,0.0,0.0,0.0,0.0,0.0,0.0,0.0,0.0,0.0,0.0,0.0,0.0,0.0,0.0,0.0,0.0,0.0,0.0,0.0,0.0,0.0,0.0,0.0,0.0,0.0,0.0,0.0,0.0,0.0,0.0,0.0,0.0,0.0,0.0,0.0,0.0,0.0,0.0,0.0,0.0,0.0,0.0,0.0,0.0,0.0,0.0,0.0,0.0,0.0,6.5565,7.2932,7.6818,7.4697,7.5159,7.5836,7.6388,7.6328,7.348,6.7013,0.0,0.0,0.0,0.0,0.0,0.0,0.0,0.0,0.0,0.0,0.0,0.0,0.0,0.0,0.0,0.0,0.0,0.0,0.0,0.0,0.0,0.0,0.0,0.0,0.0,0.0,0.0,0.0,0.0,0.0,0.0,0.0,0.0,0.0,0.0,0.0,0.0,0.0,0.0,0.0,0.0,0.0,0.0,0.0,0.0,0.0,0.0,0.0,0.0,0.0,0.0,0.0,0.0,0.0,0.0,0.0,0.0,0.0,0.0,0.0,0.0,0.0,0.0,0.0,0.0,0.0,0.0,0.0,0.0,0.0,0.0,0.0,0.0,0.0,0.0,0.0,0.0,0.0,0.0,0.0,0.0,0.0,0.0,0.0,0.0,0.0,0.0,0.0,0.0,0.0,0.0,0.0,0.0,0.0,0.0,0.0,0.0,0.0,0.0,0.0,0.0,0.0,6.4199,7.1225,7.5067,7.3622,7.3931,7.4453,7.4792,7.4822,7.1381,6.3292,0.0,0.0,0.0,0.0,0.0,0.0,0.0,0.0,0.0,0.0,0.0,0.0,0.0,0.0,0.0,0.0,0.0,0.0,0.0,0.0,0.0,0.0,0.0,0.0,0.0,0.0,0.0,0.0,0.0,0.0,0.0,0.0,0.0,0.0,0.0,0.0,0.0,0.0,0.0,0.0,0.0,0.0,0.0,0.0,0.0,0.0,0.0,0.0,0.0,0.0,0.0,0.0,0.0,0.0,0.0,0.0,0.0,0.0,0.0,0.0,0.0,0.0,0.0,0.0,0.0,0.0,0.0,0.0,0.0,0.0,0.0,0.0,0.0,0.0,0.0,0.0,0.0,0.0,0.0,0.0,0.0,0.0,0.0,0.0,0.0,0.0,0.0,0.0,0.0,0.0,0.0,0.0,0.0,0.0,0.0,0.0,0.0,0.0,0.0,0.0,0.0,0.0,6.3822,6.9604,7.3438,7.4669,7.3683,7.3438,7.47,7.4822,7.1381,0.0,0.0,0.0,0.0,0.0,0.0,0.0,0.0,0.0,0.0,0.0,0.0,0.0,0.0,0.0,0.0,0.0,0.0,0.0,0.0,0.0,0.0,0.0,0.0,0.0,0.0,0.0,0.0,0.0,0.0,0.0,0.0,0.0,0.0,0.0,0.0,0.0,0.0,0.0,0.0,0.0,0.0,0.0,0.0,0.0,0.0,0.0,0.0,0.0,0.0,0.0,0.0,0.0,0.0,0.0,0.0,0.0,0.0,0.0,0.0,0.0,0.0,0.0,0.0,0.0,0.0,0.0,0.0,0.0,0.0,0.0,0.0,0.0,0.0,0.0,0.0,0.0,0.0,0.0,0.0,0.0,0.0,0.0,0.0,0.0,0.0,0.0,0.0,0.0,0.0,0.0,0.0,0.0,0.0,0.0,0.0,0.0,0.0,0.0,0.0,0.0,0.0,0.0,5.9552,6.6966,7.1599,0.0,7.3349,7.4391,7.4792,7.4023,7.0426,6.323,0.0,0.0,0.0,0.0,0.0,0.0,0.0,0.0,0.0,0.0,0.0,0.0,0.0,0.0,0.0,0.0,0.0,0.0,0.0,0.0,0.0,0.0,0.0,0.0,0.0,0.0,0.0,0.0,0.0,0.0,0.0,0.0,0.0,0.0,0.0,0.0,0.0,0.0,0.0,0.0,0.0,0.0,0.0,0.0,0.0,0.0,0.0,0.0,0.0,0.0,0.0,0.0,0.0,0.0,0.0,0.0,0.0,0.0,0.0,0.0,0.0,0.0,0.0,0.0,0.0,0.0,0.0,0.0,0.0,0.0,0.0,0.0,0.0,0.0,0.0,0.0,0.0,0.0,0.0,0.0,0.0,0.0,0.0,0.0,0.0,0.0,0.0,0.0,0.0,0.0,0.0,0.0,0.0,0.0,0.0,0.0,0.0,0.0,0.0,0.0,0.0,0.0,0.0,6.4456,6.9603,0.0,7.1844,7.2765,7.3257,7.2579,6.9228,6.2407,0.0,0.0,0.0,0.0,0.0,0.0,0.0,0.0,0.0,0.0,0.0,0.0,0.0,0.0,0.0,0.0,0.0,0.0,0.0,0.0,0.0,0.0,0.0,0.0,0.0,0.0,0.0,0.0,0.0,0.0,0.0,0.0,0.0,0.0,0.0,0.0,0.0,0.0,0.0,0.0,0.0,0.0,0.0,0.0,0.0,0.0,0.0,0.0,0.0,0.0,0.0,0.0,0.0,0.0,0.0,0.0,0.0,0.0,0.0,0.0,0.0,0.0,0.0,0.0,0.0,0.0,0.0,0.0,0.0,0.0,0.0,0.0,0.0,0.0,0.0,0.0,0.0,0.0,0.0,0.0,0.0,0.0,0.0,0.0,0.0,0.0,0.0,0.0,0.0,0.0,0.0,0.0,0.0,0.0,0.0,0.0,0.0,0.0,0.0,0.0,0.0,0.0,0.0,6.2362,6.7542,7.0217,6.9569,6.9385,7.0524,7.0527,6.7611,6.0945,5.6638,0.0,0.0,0.0,0.0,0.0,0.0,0.0,0.0,0.0,0.0,0.0,0.0,0.0,0.0,0.0,0.0,0.0,0.0,0.0,0.0,0.0,0.0,0.0,0.0,0.0,0.0,0.0,0.0,0.0,0.0,0.0,0.0,0.0,0.0,0.0,0.0,0.0,0.0,0.0,0.0,0.0,0.0,0.0,0.0,0.0,0.0,0.0,0.0,0.0,0.0,0.0,0.0,0.0,0.0,0.0,0.0,0.0,0.0,0.0,0.0,0.0,0.0,0.0,0.0,0.0,0.0,0.0,0.0,0.0,0.0,0.0,0.0,0.0,0.0,0.0,0.0,0.0,0.0,0.0,0.0,0.0,0.0,0.0,0.0,0.0,0.0,0.0,0.0,0.0,0.0,0.0,0.0,0.0,0.0,0.0,0.0,0.0,0.0,0.0,0.0,0.0,0.0,6.2477,6.5822,6.745,6.9234,7.0002,6.9323,6.8248,6.5208,5.9518,5.4335,0.0,0.0,0.0,0.0,0.0,0.0,0.0,0.0,0.0,0.0,0.0,0.0,0.0,0.0,0.0,0.0,0.0,0.0,0.0,0.0,0.0,0.0,0.0,0.0,0.0,0.0,0.0,0.0,0.0,0.0,0.0,0.0,0.0,0.0,0.0,0.0,0.0,0.0,0.0,0.0,0.0,0.0,0.0,0.0,0.0,0.0,0.0,0.0,0.0,0.0,0.0,0.0,0.0,0.0,0.0,0.0,0.0,0.0,0.0,0.0,0.0,0.0,0.0,0.0,0.0,0.0,0.0,0.0,0.0,0.0,0.0,0.0,0.0,0.0,0.0,0.0,0.0,0.0,0.0,0.0,0.0,0.0,0.0,0.0,0.0,0.0,0.0,0.0,0.0,0.0,0.0,0.0,0.0,0.0,0.0,0.0,0.0,0.0,0.0,0.0,0.0,0.0,5.5463,5.9962,6.5198,6.7085,6.7699,6.6989,6.6221,6.3488,5.8082,5.2031,0.0,0.0,0.0,0.0,0.0,0.0,0.0,0.0,0.0,0.0,0.0,0.0,0.0,0.0,0.0,0.0,0.0,0.0,0.0,0.0,0.0,0.0,0.0,0.0,0.0,0.0,0.0,0.0,0.0,0.0,0.0,0.0,0.0,0.0,0.0,0.0,0.0,0.0,0.0,0.0,0.0,0.0,0.0,0.0,0.0,0.0,0.0,0.0,0.0,0.0,0.0,0.0,0.0,0.0,0.0,0.0,0.0,0.0,0.0,0.0,0.0,0.0,0.0,0.0,0.0,0.0,0.0,0.0,0.0,0.0,0.0,0.0,0.0,0.0,0.0,0.0,0.0,0.0,0.0,0.0,0.0,0.0,0.0,0.0,0.0,0.0,0.0,0.0,0.0,0.0,0.0,0.0,0.0,0.0,0.0,0.0,0.0,0.0,0.0,0.0,0.0,0.0,0.0,5.3832,6.2665,6.4276,6.4655,6.447,6.444,6.1989,5.6317,0.0,0.0,0.0,0.0,0.0,0.0,0.0,0.0,0.0,0.0,0.0,0.0,0.0,0.0,0.0,0.0,0.0,0.0,0.0,0.0,0.0,0.0,0.0,0.0,0.0,0.0,0.0,0.0,0.0,0.0,0.0,0.0,0.0,0.0,0.0,0.0,0.0,0.0,0.0,0.0,0.0,0.0,0.0,0.0,0.0,0.0,0.0,0.0,0.0,0.0,0.0,0.0,0.0,0.0,0.0,0.0,0.0,0.0,0.0,0.0,0.0,0.0,0.0,0.0,0.0,0.0,0.0,0.0,0.0,0.0,0.0,0.0,0.0,0.0,0.0,0.0,0.0,0.0,0.0,0.0,0.0,0.0,0.0,0.0,0.0,0.0,0.0,0.0,0.0,0.0,0.0,0.0,0.0,0.0,0.0,0.0,0.0,0.0,0.0,0.0,0.0,0.0,0.0,0.0,0.0,5.8081,6.2227,6.4286,6.3169,6.3077,6.0286,5.3668,0.0,0.0,0.0,0.0,0.0,0.0,0.0,0.0,0.0,0.0,0.0,0.0,0.0,0.0]}],[{"header":{"parameterUnit":"kt","parameterCategory":2,"dx":1,"dy":1,"la1":29.285339999999998,"la2":30.599998999999997,"lo1":-89.70041500000002,"lo2":-87.6738589999976,"nx":112,"ny":82,"refTime":"2022-10-01T00:00:00:Z","depth":0,"parameterNumber":2,"parameterNumberName":"V-component_of_WINDS"},"data":[6.154,6.2382,6.152,5.4549,5.3396,5.2043,4.4852,4.4581,4.5557,4.4446,4.6096,4.7969,4.8651,0.0,0.0,0.0,0.0,0.0,0.0,3.2747,0.0,0.0,0.0,0.0,0.0,0.0,4.7254,5.9614,5.6499,5.8317,6.8111,6.837,6.6108,6.1546,6.5457,6.5649,6.1475,6.795,7.1603,7.2349,7.697,7.9556,8.0253,8.0253,8.0253,8.0253,8.0253,8.0253,8.0253,8.0253,8.0253,8.0253,8.0253,8.0253,8.0253,8.0253,8.0253,8.0253,8.0253,8.0253,8.0253,8.0253,8.0253,8.0253,8.0253,8.0253,8.0253,8.0253,8.1051,8.1938,8.2272,8.3568,8.4983,8.5854,8.659,8.7204,8.7641,8.8456,8.9143,8.9143,9.1287,9.3277,9.371,9.6705,9.9108,9.9473,10.1187,10.2423,10.2423,10.2423,10.2423,10.2423,10.2423,10.2598,10.2915,10.3745,10.4394,10.473,10.5593,10.6332,10.6899,10.694,10.7181,10.7668,10.7668,10.7668,10.7668,10.7668,10.7668,10.7699,10.8651,11.032,5.9949,6.0557,5.9253,5.162,4.9985,4.8418,4.1368,4.1487,4.2754,4.1914,4.4865,4.7238,0.0,0.0,0.0,0.0,0.0,0.0,0.0,0.0,0.0,0.0,0.0,0.0,0.0,0.0,5.0396,5.969,5.6187,5.7824,6.7636,6.6506,6.3958,6.0472,6.3715,6.4038,6.0831,6.6111,6.9491,7.0978,7.5577,7.8383,7.9495,8.0058,8.0253,8.0253,8.0253,8.0253,8.0253,8.0253,8.0253,8.0253,8.0253,8.0253,8.0253,8.0253,8.0253,8.0253,8.0253,8.0253,8.0253,8.0253,8.0253,8.0253,8.0253,8.0253,8.0253,8.0253,8.0762,8.1363,8.1747,8.2815,8.3849,8.4222,8.5083,8.5799,8.5799,8.7101,8.8307,8.8307,9.0424,9.2339,9.281,9.5374,9.7706,9.8646,10.0428,10.1735,10.1735,10.216,10.2423,10.2423,10.2423,10.2423,10.2423,10.2972,10.3488,10.3757,10.4677,10.5552,10.6495,10.6535,10.6899,10.7668,10.7668,10.7668,10.7668,10.7668,10.7919,10.8463,11.0351,11.2167,5.7593,5.6822,5.4952,4.6827,4.5573,4.4964,3.9791,4.0114,4.188,4.3202,4.5365,4.7139,4.7583,0.0,0.0,0.0,0.0,0.0,0.0,0.0,0.0,0.0,0.0,0.0,5.3289,4.6369,4.7313,6.1217,5.1845,5.1506,6.5277,6.3168,6.0535,5.8446,6.0363,6.0881,5.9644,6.2188,6.5052,6.8252,7.2437,7.5648,7.7891,7.9446,8.0107,8.0107,8.0107,8.0107,8.0107,8.0107,8.0156,8.0205,8.0205,8.0156,8.0107,8.0156,8.0205,8.0205,8.0253,8.0253,8.0253,8.0253,8.0253,8.0253,8.0253,8.0253,8.0253,8.0253,8.0253,8.0496,8.1507,8.1842,8.2081,8.313,8.4062,8.4733,8.4806,8.649,8.8037,8.8111,9.0186,9.2326,9.3584,9.4966,9.5854,9.5854,9.8347,10.0203,10.0203,10.1395,10.2336,10.2379,10.2379,10.2379,10.2423,10.2423,10.2829,10.3715,10.4593,10.5469,10.6413,10.6454,10.6819,10.7628,10.7628,10.7668,10.7668,10.773,10.8454,10.9879,11.2639,11.3918,5.3082,5.4111,5.4391,4.8304,4.7052,4.6117,4.1723,4.0021,3.9857,4.1769,4.2213,0.0,0.0,0.0,0.0,0.0,0.0,4.4278,3.886,4.3642,0.0,0.0,5.1923,5.4108,5.7306,5.4903,5.6029,6.2964,5.7758,5.7279,6.4152,6.3747,6.2062,5.9393,6.1343,6.1236,5.8738,6.3087,6.6005,6.73,7.2244,7.5142,7.6138,7.6541,7.6792,7.6792,7.6792,7.6792,7.6792,7.6792,7.7467,7.8609,7.8609,7.7816,7.6893,7.8139,7.8609,7.8758,7.9912,8.0253,8.0253,8.0253,8.0253,8.0253,8.0253,8.0253,8.0253,8.0253,8.0253,8.0351,8.0642,8.1292,8.189,8.2176,8.303,8.4208,8.5813,8.6645,8.7534,8.9163,9.0709,9.1928,9.2278,9.4307,9.5854,9.5854,9.7434,9.8641,9.8641,9.8963,9.9601,10.0772,10.0906,10.1336,10.2379,10.2423,10.2524,10.2785,10.3045,10.3574,10.452,10.4562,10.5273,10.6819,10.6859,10.7141,10.7668,10.8746,10.9438,10.9879,11.2639,11.4495,0.0,0.0,0.0,4.7706,4.7706,4.7276,4.1068,4.0068,4.0418,4.0325,0.0,0.0,0.0,0.0,0.0,0.0,4.6003,4.753,4.2858,4.9147,5.4713,5.5922,6.0827,6.3076,6.041,5.8168,5.9155,6.4828,5.9679,5.8721,6.4393,6.344,6.1976,6.0288,6.141,6.138,5.9974,6.3398,6.5793,6.7018,7.1152,7.359,7.4385,7.51,7.5405,7.5405,7.5405,7.5405,7.5405,7.5405,7.5986,7.6817,7.6087,7.5659,7.5557,7.6541,7.6867,7.7017,7.7916,7.8683,7.9375,7.9826,8.0422,8.0912,8.0454,8.0253,8.0253,8.0253,8.0253,8.0253,8.0253,8.0739,8.1196,8.1196,8.1964,8.3229,8.4933,8.6048,8.7364,8.9589,9.1002,9.1815,9.1815,9.3534,9.485,9.485,9.6112,9.7105,9.7105,9.7592,9.8289,9.922,9.9932,10.0637,10.1469,10.2087,10.2423,10.2423,10.2423,10.2655,10.3188,10.3617,10.4478,10.5923,10.648,10.6965,10.7457,10.9199,11.0571,11.1569,11.3803,11.525,0.0,0.0,0.0,0.0,4.7319,4.7683,4.0063,0.0,4.2781,4.0816,0.0,4.2142,4.3297,0.0,0.0,4.3324,4.8508,5.1443,4.8123,5.3736,5.8296,5.8676,6.8577,7.2032,6.3478,5.917,5.9634,6.6156,5.9846,5.8576,6.5145,6.2844,6.1295,6.1194,6.1194,6.1503,6.2213,6.3513,6.5112,6.7078,6.9779,7.1646,7.2659,7.418,7.4845,7.4845,7.4845,7.4845,7.4845,7.4845,7.4998,7.4998,7.3281,7.3562,7.4896,7.5049,7.5222,7.5341,7.5545,7.6711,7.8261,7.9174,8.0554,8.1672,8.0759,8.0533,8.0634,8.0634,8.0634,8.0609,8.0531,8.0505,8.0454,8.0304,8.1106,8.2216,8.3328,8.5229,8.7367,8.9624,9.1046,9.1897,9.1796,9.2646,9.334,9.334,9.4608,9.5566,9.5566,9.6653,9.7545,9.7732,9.8991,9.9841,10.0022,10.1218,10.1955,10.1955,10.2087,10.2204,10.2204,10.3144,10.4086,10.497,10.6166,10.6926,10.7249,10.9411,11.1602,11.3843,11.5226,11.5951,0.0,0.0,0.0,0.0,0.0,4.3966,0.0,0.0,0.0,5.1072,5.1002,5.0593,5.2441,5.2512,5.2802,5.431,5.9155,6.1167,5.6739,6.4415,7.0502,7.0564,7.2623,7.2644,6.9007,6.6352,6.47,6.4289,6.4432,6.4397,6.399,6.3413,6.2736,6.2012,6.1972,6.2052,6.2233,6.4298,6.5918,6.7078,6.9495,7.079,7.1001,7.1317,7.1474,7.1474,7.1474,7.1474,7.1474,7.1474,7.2236,7.3229,7.1632,7.1211,7.1632,7.2941,7.389,7.4844,7.6205,7.7699,7.9071,7.9269,7.9954,8.0759,8.1469,8.2283,8.2944,8.2944,8.2944,8.2741,8.1927,8.1698,8.1469,8.0531,8.1184,8.2547,8.452,8.5956,8.7528,8.9719,9.1156,9.1645,9.0733,9.1441,9.2247,9.2247,9.3214,9.3952,9.3952,9.4197,9.4823,9.6112,9.652,9.7152,9.8289,9.8658,9.8842,9.8842,9.9993,10.0727,10.0727,10.1999,10.3131,10.4086,10.4329,10.5679,10.8216,10.9791,11.1503,11.3319,11.4421,11.5349,0.0,0.0,0.0,4.2647,0.0,0.0,0.0,4.3003,4.4033,5.023,4.9449,4.9054,5.3726,5.5053,5.5764,5.6938,6.1775,6.5415,6.5442,7.0843,7.4505,7.3944,7.3738,7.2792,7.055,6.8382,6.6066,6.3726,6.4626,6.4791,6.3615,6.356,6.3359,6.2917,6.2897,6.3098,6.3575,6.5944,6.7354,6.7779,7.0104,7.0986,7.0548,7.0548,7.0548,7.0548,7.0548,7.0548,7.0548,7.0548,7.1001,7.1661,7.0865,7.0548,7.0654,7.1452,7.2054,7.2615,7.3465,7.4776,7.6344,7.7793,7.8653,7.9451,8.1425,8.1979,8.203,8.2639,8.3198,8.3452,8.2944,8.2792,8.2664,8.2056,8.2385,8.3247,8.4976,8.5745,8.6772,8.9016,8.9867,9.0071,8.9481,9.0326,9.1088,9.1088,9.202,9.2746,9.2746,9.3142,9.3783,9.4559,9.5354,9.6112,9.687,9.7545,9.7965,9.7965,9.8733,9.9146,9.9146,10.0563,10.1572,10.2027,10.4046,10.586,10.737,10.9312,11.1482,11.3928,11.4445,11.5144,4.1021,4.0834,4.0741,0.0,4.1448,0.0,4.229,4.2337,4.4275,5.0299,4.9549,4.9597,5.5576,5.7824,5.8879,5.9389,6.3525,6.7861,7.121,7.3438,7.4554,7.4237,7.3505,7.2324,7.055,6.7953,6.5594,6.3671,6.356,6.356,6.356,6.356,6.356,6.356,6.3741,6.4279,6.5181,6.7627,6.8905,6.8998,7.095,7.1513,7.0838,7.0637,7.0548,7.0548,7.0548,7.0548,7.0548,7.0548,7.0548,7.057,7.0771,7.0727,7.0593,7.0771,7.0838,7.0838,7.0838,7.1874,7.3589,7.5861,7.7003,7.8037,8.0955,8.1051,8.0395,8.1783,8.2794,8.3375,8.3173,8.3528,8.3858,8.363,8.3731,8.4189,8.5155,8.5511,8.6177,8.793,8.8266,8.8266,8.8266,8.9173,8.9891,8.9891,9.1064,9.1947,9.1947,9.2845,9.3488,9.3488,9.4608,9.5402,9.5402,9.6444,9.7077,9.7077,9.7405,9.7545,9.7545,9.9037,9.9841,9.9841,10.3031,10.5183,10.6175,10.7826,11.0231,11.3302,11.3734,11.4502,3.7986,3.8126,3.9436,4.2009,4.091,0.0,5.2498,5.3554,5.4783,6.3582,6.5147,6.5308,6.6561,6.7348,6.8233,6.9628,7.0791,7.1044,6.9719,7.0585,7.2335,7.5115,7.2635,7.0655,7.0392,6.6459,6.3837,6.356,6.356,6.356,6.356,6.356,6.356,6.356,6.434,6.5221,6.6128,6.8454,7.0066,7.0872,7.1553,7.1869,7.1735,7.0919,7.0548,7.0548,7.0548,7.0548,7.0548,7.0548,7.0548,7.0637,7.1477,7.1298,7.066,7.1446,7.178,7.178,7.178,7.2886,7.4322,7.4649,7.5153,7.6398,8.0204,8.0492,8.0046,8.2151,8.282,8.2696,8.173,8.3289,8.4901,8.3808,8.4392,8.518,8.5307,8.6069,8.6805,8.7038,8.709,8.709,8.709,8.8058,8.8785,8.8785,9.0607,9.1947,9.1947,9.2845,9.3488,9.3488,9.3636,9.3756,9.3756,9.3931,9.4001,9.4001,9.5306,9.6092,9.6092,9.748,9.8197,9.8197,9.8669,10.1133,10.5615,10.4746,10.5757,10.8489,11.0363,11.2037,3.4616,3.5856,3.7752,3.845,0.0,0.0,4.995,5.1266,5.3682,6.3117,6.3507,6.3463,6.7668,6.8867,6.9126,6.887,6.9272,6.9462,6.9263,7.1171,7.2828,7.3508,7.1653,6.9885,6.8575,6.5464,6.356,6.356,6.356,6.356,6.356,6.356,6.356,6.356,6.3902,6.5162,6.7285,6.9054,7.0712,7.2282,7.3273,7.3441,7.2816,7.1812,7.1365,7.1343,7.0816,7.0548,7.0593,7.112,7.1365,7.1477,7.2459,7.2593,7.2335,7.2682,7.2427,7.1936,7.1936,7.204,7.232,7.3245,7.3704,7.4423,7.7072,7.7535,7.7785,8.1014,8.1891,8.2297,8.4059,8.5422,8.6119,8.561,8.5864,8.6246,8.6246,8.655,8.688,8.688,8.688,8.688,8.688,8.7887,8.8434,8.7743,8.9538,9.0962,9.0914,9.192,9.2795,9.3439,9.3488,9.3488,9.3488,9.3488,9.3488,9.3488,9.4099,9.4462,9.4462,9.5949,9.6728,9.6728,9.8212,10.0432,10.3282,10.1922,10.301,10.6515,10.7893,10.9976,3.2818,0.0,0.0,0.0,0.0,0.0,5.0988,5.2196,5.444,6.2876,6.2649,6.2518,6.7876,6.8562,6.7904,6.6459,6.6054,6.6392,6.7693,7.0316,7.2041,7.1647,7.0879,6.9513,6.7294,6.4956,6.356,6.356,6.356,6.356,6.356,6.356,6.3726,6.4004,6.4859,6.6334,6.8486,7.03,7.198,7.3495,7.4527,7.4679,7.3842,7.2861,7.2338,7.2293,7.1343,7.0919,7.0986,7.199,7.2181,7.207,7.3374,7.3709,7.3463,7.3463,7.2994,7.2271,7.1713,7.1298,7.1109,7.2228,7.2625,7.3009,7.5059,7.5619,7.6186,7.9044,7.9846,8.0627,8.4157,8.5966,8.688,8.688,8.688,8.688,8.688,8.688,8.688,8.688,8.7159,8.7286,8.6956,8.787,8.8251,8.7057,8.8544,8.9876,9.015,9.1215,9.2347,9.3389,9.3488,9.3488,9.3488,9.3488,9.3488,9.3488,9.3488,9.3488,9.3488,9.4559,9.5209,9.5209,9.7031,9.9014,10.106,10.0246,10.1356,10.4218,10.5042,10.7252,0.0,0.0,0.0,4.6411,4.6313,4.7467,6.1126,6.1894,6.1368,6.7101,6.781,6.7904,6.9589,6.7904,6.5838,6.4779,6.2906,6.2285,6.4191,6.6428,6.8465,7.0229,7.0369,6.9513,6.7294,6.4956,6.356,6.356,6.356,6.356,6.356,6.356,6.4114,6.5197,6.8124,6.9635,6.9734,7.277,7.4358,7.4417,7.4859,7.4981,7.497,7.3887,7.3418,7.3351,7.2315,7.1892,7.1958,7.2994,7.2861,7.2137,7.4177,7.4389,7.3463,7.3463,7.3441,7.3151,7.1263,7.1165,7.1892,7.1946,7.1946,7.248,7.5323,7.6108,7.6023,7.6285,7.6231,7.6811,7.9729,8.3668,8.688,8.688,8.688,8.688,8.688,8.688,8.688,8.688,8.7819,8.8225,8.7083,8.787,8.8251,8.7057,8.7927,8.9018,9.0045,9.1215,9.2347,9.3389,9.3488,9.3488,9.3488,9.3488,9.3488,9.3488,9.3488,9.3488,9.3488,9.3537,9.3587,9.3587,9.3614,9.5654,9.9574,10.0319,10.0689,10.0824,10.1352,10.3321,3.707,3.992,4.3469,4.9682,5.2456,5.5184,6.1314,6.3116,6.4465,6.7713,6.8562,6.896,6.9823,6.5838,6.2906,6.4294,6.3301,6.2807,6.4164,6.6691,6.8348,6.8156,6.8168,6.7273,6.4956,6.4059,6.356,6.356,6.356,6.356,6.356,6.356,6.3726,6.417,6.5906,6.8171,7.1063,7.278,7.439,7.5754,7.5845,7.594,7.5895,7.4936,7.449,7.4423,7.3396,7.295,7.295,7.2561,7.2226,7.2137,7.4222,7.4802,7.4612,7.5181,7.5025,7.4378,7.3786,7.3262,7.295,7.295,7.295,7.3126,7.4098,7.4375,7.473,7.6597,7.7055,7.7671,8.0463,8.23,8.3708,8.4942,8.5209,8.5476,8.6616,8.7489,8.8276,8.9066,8.8939,8.853,8.8124,8.9041,8.9143,8.7184,8.7883,8.9038,9.0048,9.0554,9.1491,9.3291,9.3488,9.3488,9.3488,9.3488,9.3488,9.3488,9.3488,9.3488,9.3488,9.3488,9.3488,9.3488,9.5094,9.6983,9.911,9.9394,9.9953,10.0665,10.0877,10.1535,3.8871,4.2209,4.5531,5.2239,5.6509,5.9659,6.185,6.4366,6.6503,6.7599,6.7998,6.8538,6.9984,6.5142,6.1745,6.4149,6.2957,6.2031,6.3022,6.5771,6.7246,6.5961,6.6535,6.6175,6.3782,6.356,6.356,6.356,6.356,6.356,6.356,6.356,6.3782,6.417,6.5341,6.7793,7.1678,7.3483,7.5042,7.6409,7.6409,7.6409,7.6386,7.5784,7.5516,7.5427,7.4099,7.324,7.2905,7.2583,7.2248,7.2137,7.4222,7.5003,7.5126,7.5672,7.5739,7.5405,7.469,7.4244,7.4054,7.4054,7.4054,7.4054,7.4054,7.4244,7.4836,7.6244,7.692,7.77,8.0086,8.075,8.1192,8.2948,8.3407,8.3874,8.5693,8.6655,8.7496,8.8534,8.8443,8.8179,8.8042,8.9015,8.9117,8.7184,8.754,8.8512,8.997,9.0198,9.1061,9.3291,9.3488,9.3488,9.3488,9.3488,9.3488,9.3488,9.3488,9.3488,9.3488,9.3488,9.3706,9.4143,9.5695,9.733,9.8942,9.9379,9.9981,10.0665,10.0665,10.0771,3.9422,4.1842,4.4203,5.4644,5.883,6.0961,6.3325,6.5871,6.7514,6.6986,6.6507,6.7077,7.005,6.5505,6.1921,6.4051,6.1806,6.0074,6.0993,6.3746,6.5145,6.3797,6.556,6.6011,6.3782,6.356,6.356,6.356,6.3615,6.3671,6.3671,6.3726,6.428,6.5362,6.6556,6.8627,7.1678,7.4727,7.6297,7.6409,7.6409,7.6409,7.6409,7.6342,7.6364,7.6297,7.4311,7.2927,7.2092,7.295,7.2749,7.2048,7.4133,7.497,7.4936,7.5047,7.5628,7.6141,7.4244,7.4244,7.5126,7.5126,7.5126,7.5126,7.5126,7.5695,7.623,7.5315,7.5717,7.6787,7.8526,7.9,7.9473,8.1042,8.1587,8.2159,8.4047,8.4466,8.4774,8.5586,8.6563,8.7118,8.6753,8.7628,8.8011,8.6899,8.6722,8.7562,8.984,9.0096,9.0986,9.3192,9.3389,9.3439,9.3488,9.3488,9.3488,9.3488,9.3488,9.3488,9.3488,9.3488,9.4061,9.5212,9.5294,9.6596,9.9052,10.0172,10.0665,10.0665,10.0665,10.093,4.6139,5.1214,5.5207,6.2014,6.3861,6.4239,6.528,6.6918,6.7994,6.7057,6.7077,6.7503,6.828,6.3347,5.9811,6.1872,6.1868,6.165,6.1871,6.3729,6.5007,6.4577,6.4479,6.4205,6.3615,6.356,6.356,6.356,6.4391,6.4867,6.4867,6.5704,6.6338,6.661,6.778,6.9467,7.1733,7.3376,7.4936,7.6409,7.6409,7.6409,7.6386,7.5672,7.5739,7.6297,7.4311,7.3307,7.2994,7.1821,7.1151,7.1075,7.3061,7.3842,7.4021,7.5516,7.6186,7.6319,7.5829,7.5829,7.6052,7.6052,7.6052,7.6052,7.6052,7.6208,7.6342,7.6119,7.623,7.6501,7.6959,7.7671,7.835,7.8766,8.0432,8.2048,8.2583,8.3293,8.4322,8.5943,8.5261,8.4369,8.4282,8.4538,8.4785,8.5008,8.4995,8.5955,8.8656,8.9044,8.9867,9.2097,9.2347,9.2646,9.3439,9.3488,9.3488,9.3488,9.3488,9.3488,9.3488,9.3488,9.4061,9.5212,9.6186,9.7877,10.0254,10.0529,10.0665,10.0665,10.0665,10.0771,4.2676,4.9647,5.6795,6.2288,6.4158,6.4568,6.4401,6.5607,6.6545,6.5963,6.5335,6.5457,6.7314,6.2534,5.9117,6.1598,6.209,6.2233,6.2233,6.3776,6.4799,6.438,6.3861,6.356,6.356,6.356,6.356,6.356,6.4667,6.5307,6.5307,6.6447,6.7078,6.7078,6.8567,7.0174,7.1733,7.3331,7.4891,7.6409,7.6409,7.6409,7.6386,7.5851,7.5427,7.5025,7.3485,7.257,7.2134,7.1017,7.0816,7.1321,7.2861,7.3731,7.4367,7.5851,7.6409,7.6409,7.6409,7.6409,7.6409,7.6409,7.6409,7.6409,7.6409,7.6409,7.6409,7.6409,7.6409,7.6409,7.6409,7.7181,7.7918,7.7918,7.9419,8.11,8.1927,8.2237,8.2725,8.3797,8.3,8.2247,8.2557,8.2597,8.2769,8.3099,8.384,8.5077,8.7197,8.8137,8.9302,9.0986,9.1619,9.2197,9.2746,9.3241,9.3488,9.3488,9.3488,9.3488,9.3488,9.3488,9.4307,9.6077,9.6811,9.8341,10.0665,10.0665,10.0665,10.0665,10.0665,10.0665,3.7204,4.4645,5.3923,5.9401,6.2161,6.3287,6.2295,6.3357,6.4537,6.4537,6.266,6.2217,6.6102,6.2248,5.932,6.193,6.2486,6.2535,6.2414,6.3957,6.4799,6.3841,6.3807,6.3782,6.3782,6.3948,6.4059,6.4059,6.5142,6.58,6.58,6.6882,6.7553,6.7681,6.9444,7.0949,7.2175,7.4086,7.5471,7.6409,7.6409,7.6409,7.6409,7.6275,7.5271,7.3597,7.2404,7.1446,7.0749,7.0615,7.1008,7.1847,7.3017,7.3999,7.4936,7.6007,7.6409,7.6409,7.6409,7.6409,7.6409,7.6409,7.6409,7.6409,7.6409,7.6409,7.6409,7.6409,7.6409,7.6409,7.6409,7.7212,7.8119,7.8119,7.893,8.0142,8.1859,8.1519,8.0821,8.0709,8.0364,8.0313,8.086,8.0948,8.1003,8.1303,8.262,8.4086,8.5216,8.6934,8.8449,8.9506,9.0784,9.1645,9.1947,9.2795,9.334,9.3488,9.3488,9.3488,9.3488,9.3488,9.4739,9.7357,9.7299,9.8341,10.0665,10.0665,10.0665,10.0665,10.0665,10.0665,4.7661,5.1824,5.5367,6.0117,6.1918,6.2312,6.1704,6.3091,6.4537,6.4537,6.1518,5.961,6.2069,6.0816,5.9627,6.0111,6.26,6.4179,6.3439,6.4883,6.5725,6.4762,6.4874,6.4977,6.4977,6.5923,6.648,6.648,6.7532,6.8233,6.8233,6.9304,7.0288,7.1053,7.1446,7.2532,7.4432,7.4857,7.5471,7.6409,7.6409,7.6409,7.6386,7.5605,7.507,7.4646,7.2739,7.1847,7.1624,7.0905,7.066,7.0995,7.2804,7.3575,7.3954,7.5739,7.6409,7.6409,7.6409,7.6409,7.6409,7.6409,7.6409,7.6409,7.6409,7.6409,7.6409,7.6409,7.6409,7.6409,7.6409,7.7748,7.9087,7.9087,8.041,8.1815,8.2171,8.1519,8.0642,7.9756,7.8935,7.8163,7.7402,7.7278,7.7824,7.9347,7.9851,8.0607,8.2214,8.3978,8.5505,8.6542,8.8215,8.9969,9.1796,9.2097,9.2596,9.3439,9.3488,9.3488,9.3488,9.3488,9.5121,9.856,9.7658,9.8341,10.0665,10.0665,10.0665,10.0665,10.0665,10.0665,4.4843,4.8711,5.2582,5.6426,5.8799,6.0395,6.1242,6.1348,6.1766,6.3311,6.1174,5.9493,6.1134,6.0453,5.9813,6.0328,6.2946,6.4601,6.368,6.5124,6.5785,6.438,6.4302,6.4646,6.5252,6.5834,6.6393,6.7023,6.8157,6.8823,6.8823,7.0376,7.1446,7.1914,7.2962,7.4021,7.4981,7.5494,7.5962,7.6409,7.6409,7.6409,7.6386,7.594,7.5181,7.4133,7.3173,7.2169,7.1187,7.0749,7.0808,7.1365,7.2271,7.3329,7.4378,7.5315,7.5985,7.6409,7.6409,7.6409,7.6409,7.6409,7.6409,7.6409,7.6409,7.6409,7.6409,7.6409,7.6409,7.6409,7.6409,7.7859,7.9295,7.9295,8.047,8.1519,8.1519,8.0738,7.9756,7.8752,7.8253,7.7605,7.6565,7.6409,7.6673,7.7563,7.8526,7.9403,8.0218,8.1854,8.3141,8.3659,8.6356,8.8552,8.9634,9.1592,9.2994,9.3439,9.3488,9.3788,9.4416,9.4416,9.5586,9.7959,9.8068,9.897,10.0665,10.0665,10.0665,10.0665,10.0665,10.0665,4.1271,4.549,5.0531,5.3345,5.5926,5.8315,6.0539,5.9653,5.8995,6.1362,6.0383,5.9401,6.0576,6.0168,5.9986,6.0892,6.3389,6.4802,6.3721,6.5124,6.5701,6.4095,6.4149,6.4736,6.5944,6.6271,6.6849,6.7726,6.8662,6.9285,6.9504,7.1006,7.2137,7.2561,7.4177,7.5114,7.5293,7.6029,7.6409,7.6409,7.6409,7.6409,7.6409,7.6409,7.5315,7.3474,7.3049,7.2111,7.0883,7.0883,7.141,7.2271,7.2494,7.3619,7.5025,7.5226,7.5762,7.6409,7.6409,7.6409,7.6409,7.6409,7.6409,7.6409,7.6409,7.6409,7.6409,7.6409,7.6409,7.6409,7.6409,7.7859,7.9295,7.9295,7.9935,8.0553,8.0553,7.9734,7.8797,7.8074,7.7739,7.7359,7.652,7.6409,7.6409,7.6409,7.7642,7.8526,7.8526,8.0051,8.1082,8.1082,8.4413,8.6883,8.7591,9.0576,9.2691,9.3439,9.3488,9.3925,9.4853,9.4673,9.5366,9.7126,9.8327,9.9543,10.0665,10.0665,10.0665,10.0665,10.0665,10.0665,4.5606,4.9549,5.3147,5.4949,5.564,5.6563,5.9205,5.9042,5.8375,5.8659,5.7932,5.7469,5.8417,5.9183,5.9986,6.0892,6.3913,6.5584,6.3801,6.5124,6.6024,6.5258,6.6087,6.7186,6.8394,6.9486,7.0124,7.023,7.0336,7.0737,7.1596,7.1838,7.2784,7.4668,7.4914,7.5405,7.6253,7.6364,7.6409,7.6409,7.6409,7.6409,7.6409,7.6409,7.5315,7.3351,7.1598,7.1187,7.1802,7.1802,7.2382,7.3418,7.4356,7.4847,7.5114,7.5962,7.6319,7.6409,7.6409,7.6409,7.6409,7.6409,7.6409,7.6409,7.6409,7.6409,7.6409,7.6409,7.6409,7.6409,7.6409,7.7859,7.9295,7.9295,7.9362,7.9429,7.9429,7.8707,7.8029,7.7998,7.7203,7.6498,7.6409,7.6409,7.6409,7.6409,7.6501,7.6616,7.6616,7.8243,7.9347,7.9347,8.1571,8.4326,8.7382,8.8423,9.0194,9.3291,9.3488,9.3543,9.3652,9.2767,9.3782,9.693,9.8248,9.9543,10.0665,10.0665,10.0665,10.0665,10.0665,10.0665,3.9069,4.3053,4.7326,4.8329,5.1663,5.5178,5.6855,5.7358,5.7801,5.8887,5.9321,5.9382,5.9149,5.9905,6.0738,6.1624,6.4279,6.5664,6.3821,6.5728,6.6821,6.5479,6.6359,6.751,6.8716,6.925,6.9783,7.0495,7.0548,7.0941,7.1869,7.2548,7.353,7.5014,7.5538,7.6029,7.6409,7.6409,7.6409,7.6409,7.6409,7.6409,7.6386,7.5829,7.5427,7.5114,7.3151,7.2861,7.3753,7.3128,7.3106,7.3485,7.3909,7.4523,7.5047,7.5427,7.5918,7.6409,7.6409,7.6409,7.6409,7.6409,7.6409,7.6409,7.6409,7.6409,7.6409,7.6409,7.6409,7.652,7.7181,7.7918,7.8596,7.9198,7.9295,7.9116,7.8573,7.8208,7.7739,7.7158,7.6677,7.6409,7.6409,7.6409,7.6409,7.6409,7.6409,7.6409,7.6409,7.7016,7.7449,7.7449,8.0194,8.2548,8.3909,8.6097,8.7982,8.9299,8.9402,8.9664,9.0292,9.0704,9.1773,9.3704,9.5007,9.6605,9.8441,9.8441,9.925,10.0665,10.0665,10.0665,3.62,3.9697,4.3936,4.4811,4.9103,5.3395,5.4582,5.5528,5.6674,5.8485,5.9402,5.988,6.0147,6.0444,6.096,6.2032,6.4782,6.626,6.4702,6.6853,6.7989,6.6536,6.7099,6.805,6.9197,6.9357,6.9677,7.0495,7.0838,7.1388,7.2315,7.3374,7.4378,7.5382,7.6052,7.6409,7.6409,7.6409,7.6409,7.6409,7.6409,7.6409,7.6386,7.5717,7.5628,7.5918,7.4512,7.4155,7.4568,7.4144,7.4066,7.4311,7.4311,7.478,7.5427,7.5427,7.5851,7.6409,7.6409,7.6409,7.6409,7.6409,7.6409,7.6409,7.6409,7.6409,7.6409,7.6409,7.6409,7.661,7.7672,7.7694,7.7739,7.8663,7.8685,7.8283,7.765,7.7471,7.727,7.652,7.6409,7.6409,7.6409,7.6409,7.6409,7.6409,7.6409,7.6409,7.6409,7.6409,7.6409,7.6409,7.8795,8.0679,8.1569,8.3963,8.5779,8.6649,8.6702,8.6724,8.6769,8.863,9.004,9.1006,9.2659,9.4307,9.598,9.598,9.6889,9.8576,9.925,9.9571,4.0333,4.2786,4.5488,4.7198,4.8987,5.0864,5.2702,5.3677,5.4776,5.6614,5.6996,5.7886,6.0852,6.0474,6.0235,6.1932,6.549,6.7719,6.6768,6.8467,6.9537,6.8826,6.8823,6.925,7.0442,7.0548,7.0548,7.0548,7.141,7.236,7.3374,7.4423,7.5427,7.6364,7.6409,7.6409,7.6409,7.6409,7.6409,7.6409,7.6409,7.6409,7.6409,7.6386,7.5873,7.5081,7.5003,7.44,7.3552,7.4635,7.5538,7.6386,7.6386,7.6386,7.6386,7.6386,7.6386,7.6409,7.6409,7.6409,7.6409,7.6409,7.6409,7.6409,7.6409,7.6409,7.6409,7.6409,7.6409,7.661,7.7672,7.7203,7.6654,7.7694,7.7181,7.6431,7.6409,7.6409,7.6409,7.6409,7.6409,7.6409,7.6409,7.6409,7.6409,7.6409,7.6409,7.6409,7.6409,7.6409,7.6409,7.6409,7.7004,7.8526,8.1428,8.2141,8.3639,8.6491,8.6702,8.5648,8.3348,8.648,8.8732,8.9806,9.2209,9.3543,9.3543,9.3543,9.3543,9.3631,9.598,9.7027,3.6508,3.9412,4.2517,4.3529,4.7075,5.0663,5.1851,5.3214,5.4575,5.5761,5.6534,5.7619,5.983,6.0456,6.2049,6.6435,6.7634,6.8415,6.9592,7.0436,7.0449,6.8987,6.9517,7.0177,7.0495,7.0548,7.0548,7.0548,7.141,7.236,7.3396,7.4445,7.5796,7.7404,7.7449,7.7725,7.8358,7.7748,7.7449,7.7449,7.6721,7.6409,7.6386,7.5739,7.5628,7.5918,7.5293,7.5181,7.5494,7.5829,7.6141,7.6409,7.6409,7.6409,7.6409,7.6409,7.6409,7.6409,7.6409,7.6409,7.6409,7.6409,7.6409,7.6409,7.6409,7.6409,7.6409,7.6409,7.6409,7.661,7.7672,7.7694,7.7538,7.7851,7.7181,7.6409,7.6409,7.6409,7.6409,7.6409,7.6409,7.6409,7.6409,7.6409,7.6409,7.6409,7.6409,7.6409,7.6409,7.6409,7.6409,7.6409,7.6947,7.7745,7.8639,7.9594,8.0519,8.1437,8.2183,8.253,8.2548,8.4556,8.624,8.7271,8.802,8.927,9.0968,9.0968,9.1833,9.3543,9.4251,9.5481,3.7181,3.9542,4.1935,4.3669,4.6493,4.9112,4.9955,5.1001,5.2102,5.3355,5.4983,5.6775,5.8934,6.0855,6.3726,6.8618,6.9627,7.052,7.2566,7.3085,7.2488,7.0266,7.0346,7.0548,7.0548,7.0905,7.1209,7.1642,7.2883,7.4088,7.5126,7.6096,7.719,7.8454,7.8417,7.873,7.9295,7.8409,7.8119,7.8476,7.7056,7.6409,7.6386,7.5806,7.5851,7.6364,7.5784,7.5851,7.6409,7.6409,7.6409,7.6409,7.6409,7.6409,7.6409,7.6409,7.6409,7.6409,7.6409,7.6409,7.6409,7.6409,7.6409,7.6409,7.6409,7.6409,7.6409,7.6409,7.6677,7.7011,7.7292,7.7359,7.7359,7.7359,7.6833,7.6409,7.6409,7.6409,7.6409,7.6409,7.6409,7.6409,7.6409,7.6409,7.6409,7.6409,7.6409,7.6409,7.6409,7.6409,7.6409,7.6409,7.6775,7.7061,7.7312,7.8051,7.8538,7.8741,8.0304,8.1701,8.2695,8.4305,8.5442,8.6059,8.6083,8.6876,8.841,8.841,8.9211,9.0761,9.2634,9.4251,4.0861,4.2149,4.3057,4.6393,4.7039,4.7,4.7579,4.7618,4.8064,4.9846,5.237,5.5098,5.7801,6.1129,6.4825,6.9097,7.1246,7.3243,7.5552,7.6067,7.5151,7.2376,7.1276,7.0771,7.0771,7.1544,7.2471,7.3597,7.5427,7.69,7.7873,7.8819,7.9317,7.9444,7.9444,7.9429,7.9496,7.8565,7.8454,7.922,7.7301,7.6409,7.6409,7.6409,7.6409,7.6409,7.6409,7.6409,7.6409,7.6409,7.6409,7.6409,7.6409,7.6409,7.6409,7.6409,7.6409,7.6409,7.6409,7.6409,7.6409,7.6409,7.6409,7.6409,7.6409,7.6409,7.6409,7.6409,7.7158,7.7694,7.6654,7.6453,7.6498,7.6409,7.6409,7.6409,7.6409,7.6409,7.6409,7.6409,7.6409,7.6409,7.6409,7.6409,7.6409,7.6409,7.6409,7.6409,7.6409,7.6409,7.6409,7.6409,7.6409,7.6638,7.7255,7.7312,7.7562,7.8074,8.0696,8.2567,8.3477,8.5223,8.6083,8.6083,8.6083,8.6083,8.6083,8.6083,8.6083,8.6203,9.0993,9.3317,3.7876,3.9815,4.169,4.3217,4.711,5.0292,4.8964,4.764,4.7163,4.8691,4.915,5.0259,5.3486,5.6708,6.2063,7.1717,7.1158,7.1595,7.7466,7.7165,7.5554,7.3362,7.296,7.2826,7.2826,7.2972,7.3842,7.5583,7.689,7.7672,7.7895,7.8819,7.9689,8.0448,8.047,8.085,8.1547,7.989,7.873,7.8253,7.6989,7.6409,7.6409,7.6409,7.6409,7.6409,7.6409,7.6409,7.6409,7.6409,7.6409,7.6409,7.6409,7.6409,7.6409,7.6409,7.6409,7.6409,7.6409,7.6409,7.6409,7.6409,7.6409,7.6409,7.6409,7.6409,7.6409,7.6409,7.7158,7.7694,7.6654,7.6944,7.7382,7.6587,7.6409,7.6409,7.6409,7.6409,7.6409,7.6409,7.6409,7.6409,7.6409,7.6409,7.6409,7.6409,7.6409,7.6409,7.6409,7.6409,7.6409,7.6409,7.6409,7.6466,7.6581,7.6638,7.7009,7.7922,8.0167,8.1955,8.295,8.5006,8.6083,8.6083,8.6083,8.6083,8.6083,8.6083,8.6083,8.6203,8.9211,9.1718,3.846,4.1475,4.3926,4.302,4.6541,4.9802,4.8336,4.69,4.6423,4.8068,4.7752,4.8695,5.3715,5.4625,5.7631,6.6934,6.9629,7.2691,7.9141,7.9247,7.8279,7.7402,7.6438,7.6308,7.7287,7.7064,7.7777,8.0223,7.9699,7.9875,8.1136,8.0885,8.0878,8.1474,8.1497,8.1519,8.1608,8.0031,7.8841,7.7895,7.6877,7.6409,7.6409,7.6409,7.6409,7.6409,7.6409,7.6409,7.6409,7.6409,7.6409,7.6409,7.6409,7.6409,7.6409,7.6409,7.6409,7.6409,7.6409,7.6409,7.6409,7.6409,7.6409,7.6409,7.6409,7.6409,7.6409,7.6409,7.6788,7.7136,7.6543,7.6788,7.7114,7.652,7.6409,7.6409,7.6409,7.6409,7.6409,7.6409,7.6409,7.6409,7.6409,7.6409,7.6409,7.6409,7.6409,7.6409,7.6409,7.6409,7.6409,7.6409,7.6409,7.6409,7.6409,7.6409,7.661,7.7225,7.9446,8.1747,8.3772,8.5298,8.6083,8.6083,8.6083,8.6083,8.6083,8.6083,8.6083,8.6203,8.9855,9.2234,4.0457,4.467,4.7634,4.4786,4.6393,4.8374,4.7287,4.6069,4.5702,4.7746,4.7278,4.8427,5.4774,5.3629,5.3525,5.9097,6.662,7.3725,7.9502,8.1147,8.1777,8.1826,8.0537,8.0477,8.2337,8.18,8.2378,8.4961,8.289,8.2481,8.4576,8.314,8.2238,8.2238,8.2238,8.1865,8.1065,8.0234,7.907,7.7694,7.6788,7.6409,7.6409,7.6409,7.6409,7.6409,7.6409,7.6409,7.6409,7.6409,7.6409,7.6409,7.6409,7.6409,7.6409,7.6409,7.6409,7.6409,7.6409,7.6409,7.6409,7.6409,7.6409,7.6409,7.6409,7.6409,7.6409,7.6409,7.6409,7.6409,7.6409,7.6409,7.6409,7.6409,7.6409,7.6409,7.6409,7.6409,7.6409,7.6409,7.6409,7.6409,7.6409,7.6409,7.6409,7.6409,7.6409,7.6409,7.6409,7.6409,7.6409,7.6409,7.6409,7.6409,7.6409,7.6409,7.6533,7.6725,7.8973,8.1669,8.4807,8.5605,8.6023,8.6083,8.6083,8.6083,8.6083,8.6083,8.6083,8.6203,9.1199,9.3487,4.1184,4.615,5.009,4.8009,4.9079,5.0201,4.8396,4.6151,4.5119,4.7411,4.6783,4.6993,5.0813,5.2672,5.3624,5.3649,6.1306,6.9596,7.6178,8.1207,8.3594,8.1887,8.3146,8.4313,8.4624,8.4532,8.4632,8.5084,8.4724,8.3975,8.271,8.2401,8.2238,8.2238,8.2238,8.22,8.2019,8.1835,8.0033,7.661,7.6476,7.6409,7.6409,7.6409,7.6409,7.6409,7.6409,7.6409,7.6409,7.6409,7.6409,7.6409,7.6409,7.6409,7.6409,7.6409,7.6409,7.6409,7.6409,7.6409,7.6409,7.6409,7.6409,7.6409,7.6409,7.6409,7.6409,7.6409,7.6409,7.6409,7.6409,7.6409,7.6409,7.6409,7.6409,7.6409,7.6409,7.6409,7.6409,7.6409,7.6409,7.6409,7.6409,7.6409,7.6409,7.6409,7.6409,7.6409,7.6409,7.6409,7.6409,7.6409,7.6409,7.6409,7.6409,7.6409,7.6996,7.845,7.965,8.1396,8.3873,8.4849,8.5554,8.6083,8.6083,8.6083,8.6083,8.6083,8.6083,8.6203,9.1199,9.3487,4.2745,4.7432,5.1259,4.9222,5.0465,5.1762,5.031,4.9053,4.8516,4.9581,4.8801,4.8707,5.1388,5.1623,5.281,5.7084,6.1757,6.7377,7.4731,8.0613,8.4656,8.6203,8.7322,8.8467,8.9631,8.8817,8.8632,8.9689,8.7878,8.6746,8.6842,8.5906,8.5387,8.5387,8.5387,8.4831,8.3579,8.3556,8.184,7.8378,7.7476,7.6699,7.6176,7.5251,7.4802,7.4802,7.4802,7.5114,7.5605,7.5047,7.5427,7.6342,7.5851,7.5962,7.6409,7.6409,7.6409,7.6409,7.6409,7.6409,7.6409,7.6409,7.6409,7.6409,7.6409,7.6409,7.6409,7.6409,7.6409,7.6409,7.6409,7.6409,7.6409,7.6409,7.6409,7.6409,7.6409,7.6409,7.6409,7.6409,7.6409,7.6409,7.6409,7.6409,7.6409,7.6409,7.6409,7.6409,7.6409,7.6409,7.6409,7.6409,7.6409,7.6409,7.6409,7.6409,7.6948,7.8304,7.9894,8.1542,8.3212,8.4803,8.5818,8.6083,8.6083,8.6083,8.6083,8.6083,8.6083,8.6203,8.9855,9.2234,4.7079,0.0,5.3226,5.1652,5.2545,5.3528,0.0,5.2072,5.1803,5.1559,5.0769,5.0693,5.238,5.1087,5.206,5.9213,6.137,6.481,7.2441,7.7524,0.0,8.8101,8.9473,9.0845,9.3055,9.2184,9.1875,9.2931,9.0346,8.9118,9.0088,8.8823,8.8079,8.8079,8.8882,8.8077,8.5469,8.5047,8.3136,7.9842,7.7877,7.6566,7.5723,7.4158,7.3463,7.3463,7.3463,7.3909,7.4579,7.3831,7.449,7.6007,7.5293,7.5583,7.6409,7.6409,7.6409,7.6409,7.6409,7.6409,7.6409,7.6409,7.6409,7.6409,7.6409,7.6409,7.6409,7.6409,7.6409,7.6409,7.6409,7.6409,7.6409,7.6409,7.6409,7.6409,7.6409,7.6409,7.6409,7.6409,7.6409,7.6409,7.6409,7.6409,7.6409,7.6409,7.6409,7.6409,7.6409,7.6409,7.6409,7.6409,7.6409,7.6409,7.6409,7.6409,7.689,7.8106,8.0105,8.1778,8.2973,8.5006,8.6083,8.6083,8.6083,8.6083,8.6083,8.6083,8.6083,8.6203,8.8647,9.1142,0.0,5.7952,5.7492,5.7321,5.6641,5.5678,5.464,5.364,0.0,5.1706,5.1437,5.1428,5.1611,5.1489,5.2005,5.3957,5.6358,6.0428,6.7538,7.0045,0.0,8.3021,8.6829,8.9622,9.1856,9.2942,9.2817,9.11,9.0753,8.9879,8.8316,8.8139,8.8079,8.8079,9.1472,9.142,8.7469,8.5867,8.3088,7.9175,7.6476,7.5183,7.5094,7.3998,7.3463,7.3463,7.3463,7.3485,7.3552,7.3541,7.4166,7.5114,7.5025,7.5583,7.6409,7.6409,7.6409,7.6409,7.6409,7.6409,7.6409,7.6409,7.6409,7.6409,7.6409,7.6409,7.6409,7.6409,7.6409,7.6409,7.6409,7.6409,7.6409,7.6409,7.6409,7.6409,7.6409,7.6409,7.6409,7.6409,7.6409,7.6409,7.6409,7.6409,7.6409,7.6409,7.6409,7.6409,7.6409,7.6409,7.6409,7.6409,7.6409,7.6409,7.6409,7.6409,7.7063,7.8733,8.0385,8.2014,8.3606,8.5246,8.6083,8.6083,8.6083,8.6083,8.6083,8.6083,8.6083,8.6203,8.8647,9.1142,5.892,5.9667,5.9584,5.8252,5.8081,5.7604,5.5177,5.48,5.4347,5.1999,5.151,5.151,5.151,5.151,5.3192,5.8361,6.0066,6.2723,6.8527,7.2846,0.0,8.1015,8.7618,9.2115,9.2953,9.3436,9.3355,9.2646,9.2588,9.2302,9.1587,9.1554,9.1554,9.1554,9.2219,9.1223,8.8317,8.6912,8.4451,8.0877,7.8842,7.6924,7.5228,7.3753,7.2583,7.1665,7.1665,7.1968,0.0,7.1933,7.2625,7.3976,7.3374,7.411,7.5538,7.5538,7.5895,7.6409,7.6409,7.6409,7.6409,7.6409,7.6409,7.6409,7.6409,7.6409,7.6409,7.6409,7.6409,7.6409,7.6409,7.6409,7.6409,7.6409,7.6409,7.6409,7.6409,7.6409,7.6409,7.6409,7.6409,7.6409,7.6409,7.6409,7.6409,7.6409,7.6409,7.6409,7.6409,7.6409,7.6409,7.6409,7.6409,7.6409,7.6409,7.6409,7.6852,7.7911,8.0021,8.1739,8.2764,8.4957,8.6083,8.6083,8.6083,8.6083,8.6083,8.6083,8.6083,8.6143,8.7056,8.968,6.1897,6.2303,6.2303,6.1205,6.1229,6.0555,5.6946,5.6434,5.5727,5.2243,5.151,5.151,5.151,5.151,5.3511,5.9728,6.115,6.3461,6.9159,7.4039,0.0,7.9999,8.6653,9.1302,9.2013,9.3055,9.3721,9.3721,9.3721,9.3721,9.3721,9.3721,9.3487,9.3156,9.2064,9.0358,8.8124,8.6377,8.4225,8.1709,7.9692,7.7729,7.5883,7.4372,7.2838,7.1317,7.1317,7.1405,7.1455,7.0838,7.1531,7.2927,7.2204,7.2962,7.4612,7.4947,7.5405,7.6007,7.6297,7.6409,7.6409,7.6409,7.6409,7.6409,7.6409,7.6409,7.6409,7.6409,7.6409,7.6409,7.6409,7.6409,7.6409,7.6409,7.6409,7.6409,7.6409,7.6409,7.6409,7.6409,7.6409,7.6409,7.6409,7.6409,7.6409,7.6409,7.6409,7.6409,7.6409,7.6409,7.6409,7.6409,7.6409,7.6409,7.6409,7.6409,7.6638,7.7312,7.9816,8.1555,8.2209,8.4748,8.6083,8.6083,8.6083,8.6083,8.6083,8.6083,8.6083,8.6083,8.6083,8.8764,6.6555,6.672,6.6159,6.7189,6.6652,6.4792,6.0458,5.8691,5.6727,5.239,5.151,5.151,5.151,5.151,5.2697,5.6206,5.8089,6.1578,6.8552,7.1935,7.5348,0.0,8.3249,8.6196,8.8454,9.1734,9.3721,9.3721,9.3721,9.3721,9.3721,9.3696,9.3131,9.1983,9.0921,8.9219,8.688,8.4039,8.2107,8.1044,7.8312,7.703,7.6986,7.5883,7.4487,7.2867,7.2867,7.2028,7.0548,7.0548,7.1075,7.1914,7.1914,7.2516,7.3575,7.4601,7.5059,7.5137,7.6074,7.6409,7.6409,7.6409,7.6409,7.6409,7.6409,7.6409,7.6409,7.6409,7.6409,7.6409,7.6409,7.6409,7.6409,7.6409,7.6409,7.6409,7.6409,7.6409,7.6409,7.6409,7.6409,7.6409,7.6409,7.6409,7.6409,7.6409,7.6409,7.6409,7.6409,7.6409,7.6409,7.6409,7.6409,7.6409,7.6409,7.6409,7.6638,7.7312,7.9816,8.1555,8.2186,8.4748,8.6083,8.6083,8.6083,8.6083,8.6083,8.6083,8.6083,8.6083,8.6083,8.8764,6.611,6.6652,6.7043,6.736,6.7213,6.5652,6.0628,5.9238,5.7593,5.2561,5.151,5.151,5.151,5.2121,5.3648,5.6785,5.9617,6.2896,6.7101,7.1755,7.6161,7.9822,0.0,8.7616,9.0688,9.2623,9.3721,9.3721,9.3721,9.3721,9.3721,9.2247,9.153,9.1932,8.9397,8.7341,8.5789,8.34,8.1659,8.0477,7.9704,7.8733,7.7632,7.6131,7.4487,7.2815,7.1714,7.1023,7.0548,7.0548,7.0727,7.0941,7.0941,7.1544,7.2494,7.3552,7.4434,7.5137,7.6074,7.6409,7.6409,7.6409,7.6409,7.6409,7.6409,7.6409,7.6409,7.6409,7.6409,7.6409,7.6409,7.6409,7.6409,7.6409,7.6409,7.6409,7.6409,7.6409,7.6409,7.6409,7.6409,7.6409,7.6409,7.6409,7.6409,7.6409,7.6409,7.6409,7.6409,7.6409,7.6409,7.6409,7.6409,7.6409,7.6409,7.6409,7.6787,7.787,8.0025,8.1731,8.2886,8.4986,8.6083,8.6083,8.6083,8.6083,8.6083,8.6083,8.6083,8.6083,8.6083,8.6876,6.6896,6.7603,6.8189,6.8672,6.877,6.7355,6.1945,6.0068,5.8081,5.3137,5.1437,5.1241,5.2502,5.3626,5.582,6.0422,6.334,6.6503,7.0685,7.4704,7.8524,8.1902,8.5407,0.0,0.0,9.3029,9.3721,9.3721,9.3258,9.2826,9.2369,9.1128,9.0438,9.0637,8.7847,8.5841,8.4646,8.241,8.0962,8.0253,8.0253,7.9814,7.8856,7.7816,7.6466,7.4845,7.32,7.2132,7.1452,7.0812,7.0548,7.0548,7.0548,7.0874,7.1522,7.2503,7.3508,7.4534,7.5516,7.6096,7.6409,7.6409,7.6409,7.6409,7.6409,7.6409,7.6409,7.6409,7.6409,7.6409,7.6409,7.6409,7.6409,7.6409,7.6409,7.6409,7.6409,7.6409,7.6409,7.6409,7.6409,7.6409,7.6409,7.6409,7.6409,7.6409,7.6409,7.6409,7.6409,7.6409,7.6409,7.6409,7.6409,7.6409,7.6409,7.6409,7.6902,7.8074,7.9695,8.1433,8.3094,8.4684,8.5699,8.6143,8.6083,8.6083,8.6083,8.6083,8.6083,8.6083,8.6083,8.6083,6.8437,6.9071,6.9408,7.0475,7.0765,6.9303,6.384,6.1116,5.8472,5.387,5.1501,5.1053,5.3835,5.5616,5.8833,6.549,6.8236,7.1493,7.7223,7.9276,8.1521,8.4799,0.0,0.0,9.1424,9.2699,9.336,9.336,9.242,9.1323,9.0315,9.0082,8.9625,8.8682,8.6475,8.4748,8.3605,8.1472,8.0355,8.0253,8.0253,8.0253,8.0253,8.0107,7.9299,7.7841,7.6138,7.4538,7.3022,7.1579,7.0918,7.0759,7.0759,7.0707,7.0682,7.1669,7.2627,7.3597,7.4735,7.5695,7.6409,7.6409,7.6409,7.6409,7.6409,7.6409,7.6409,7.6409,7.6409,7.6409,7.6409,7.6409,7.6409,7.6409,7.6409,7.6409,7.6409,7.6476,7.6498,7.6409,7.6543,7.661,7.6431,7.6476,7.6498,7.6409,7.6409,7.6409,7.6409,7.6409,7.6431,7.652,7.6453,7.6409,7.6409,7.6466,7.6959,7.8074,7.9181,8.0788,8.3071,8.4053,8.5022,8.6059,8.6083,8.6083,8.6083,8.6083,8.6083,8.6083,8.6083,8.6083,6.8656,6.9676,7.0451,7.0716,7.0765,6.9303,6.384,6.2238,6.0009,5.3245,5.2771,5.3298,5.2365,5.6776,6.176,6.5342,7.0135,7.4627,7.7906,7.9469,8.1167,0.0,8.5179,0.0,8.9139,9.0413,9.1103,9.1103,9.0845,9.0209,8.9063,8.8124,8.7921,8.8631,8.6475,8.4748,8.3605,8.2283,8.1166,8.0253,8.0253,8.0253,8.0253,7.9004,7.8238,7.7841,7.6138,7.5202,7.4845,7.4538,7.3614,7.2422,7.2422,7.1661,7.0771,7.2481,7.3285,7.3709,7.5494,7.623,7.6409,7.6409,7.6409,7.6409,7.6409,7.6409,7.6409,7.6409,7.6409,7.6409,7.6409,7.6409,7.6409,7.6409,7.6409,7.6409,7.6409,7.7069,7.7382,7.6543,7.7658,7.8216,7.6677,7.7091,7.7359,7.652,7.6409,7.6409,7.6409,7.6409,7.6699,7.7516,7.6855,7.6409,7.6409,7.6832,7.746,7.8074,7.9627,8.1296,8.3129,8.4053,8.5022,8.6059,8.6083,8.6083,8.6083,8.6083,8.6083,8.6083,8.6083,8.6083,6.9575,7.0304,7.0765,7.0765,7.0765,6.9718,6.5842,6.4158,6.201,5.7093,5.6129,5.6007,5.5421,5.9949,6.5069,6.9081,7.3575,7.7588,8.0536,8.1064,8.1547,8.269,8.4341,8.6019,8.772,8.9371,9.0391,9.0391,8.9854,8.9041,8.7844,8.721,8.7159,8.7794,8.5662,8.4214,8.3579,8.2004,8.0886,8.0253,8.0253,8.0253,8.0253,7.9446,7.9053,7.8955,7.7367,7.6642,7.6541,7.576,7.4436,7.2867,7.2867,7.2219,7.1343,7.237,7.3374,7.4389,7.5382,7.6029,7.6409,7.6409,7.6409,7.6409,7.6409,7.6409,7.6409,7.6409,7.6409,7.6409,7.6409,7.6409,7.6409,7.6409,7.6409,7.6409,7.6409,7.7225,7.7784,7.727,7.8328,7.896,7.7993,7.8239,7.8395,7.7882,7.7815,7.7815,7.7815,7.7391,7.7181,7.7225,7.6699,7.6409,7.6409,7.6695,7.7267,7.8074,7.8997,8.0384,8.2347,8.341,8.4357,8.5349,8.5886,8.6083,8.6083,8.6083,8.6083,8.6083,8.6083,8.6083,7.0329,7.0765,7.0765,7.0765,7.0765,7.0158,6.7945,6.611,6.4151,6.1586,5.9789,5.8935,5.9604,6.3508,6.8307,7.3584,7.7313,8.0504,8.3351,8.2996,8.2361,0.0,8.363,8.5282,8.6655,8.8459,0.0,8.9727,8.8533,8.7413,8.6651,8.66,8.66,8.66,8.4823,8.3681,8.33,8.1521,8.0505,8.0253,8.0253,8.0253,8.0253,8.0253,8.0253,8.0205,7.8906,7.8362,7.8238,7.6842,7.51,7.3332,7.3332,7.2635,7.1691,7.1869,7.3096,7.4757,7.4958,7.5628,7.6409,7.6409,7.6409,7.6409,7.6409,7.6409,7.6409,7.6409,7.6409,7.6409,7.6409,7.6409,7.6409,7.6409,7.6409,7.6453,7.661,7.7359,7.7962,7.8141,7.9064,7.9696,7.9339,7.9429,7.9533,7.9317,7.9295,7.9228,7.9109,7.8431,7.7605,7.6743,7.6498,7.6409,7.6409,7.6466,7.7016,7.8096,7.8266,7.9292,8.1552,8.2451,8.3457,8.4544,8.5419,8.5956,8.6083,8.6083,8.6083,8.6083,8.6083,8.6083,6.9938,7.0765,7.0765,7.0765,7.0765,7.0158,6.7945,6.7238,6.5915,6.1864,6.1546,6.1742,6.0961,6.5556,7.0904,7.5345,0.0,8.3248,8.4121,8.4149,8.355,8.2207,8.2282,8.3274,8.5358,8.5841,8.6348,8.7261,8.5407,8.4646,8.5511,8.5562,8.5562,8.5562,8.5256,8.4189,8.2257,8.1952,8.1316,8.0253,8.0253,8.0253,8.0253,8.0253,8.0253,8.0253,8.0058,7.9961,7.9961,7.9765,7.7841,7.51,7.51,7.3293,7.0861,7.1624,7.265,7.3798,7.469,7.5628,7.6409,7.6409,7.6409,7.6409,7.6409,7.6409,7.6409,7.6409,7.6409,7.6409,7.6409,7.6409,7.6409,7.6409,7.6409,7.6632,7.7538,7.7828,7.8186,7.8975,8.0588,8.1302,7.9585,8.0046,8.0336,7.9429,7.9295,7.9042,7.823,7.8007,7.7873,7.7739,7.6922,7.6409,7.6409,7.6889,7.7517,7.8074,7.8685,7.9791,8.1528,8.1772,8.2731,8.4544,8.4671,8.5209,8.6083,8.6083,8.6083,8.6083,8.6083,8.6083,6.8355,6.9816,7.0765,7.0765,7.0765,7.0521,6.9547,6.9282,6.8575,6.6018,6.5872,6.5872,6.4799,6.7794,7.1543,7.4953,0.0,0.0,8.2104,8.2912,8.2792,0.0,8.1473,0.0,8.3375,8.4036,8.4544,8.5001,8.4138,8.3808,8.4316,8.4341,8.4646,8.5307,8.4671,8.3884,8.2919,8.1648,8.0785,8.0253,8.0253,8.0253,8.0253,8.0253,8.0253,8.0253,8.0253,8.0253,8.0253,8.0253,7.8362,7.5405,7.5405,7.3779,7.1455,7.2437,7.3463,7.4467,7.5449,7.6052,7.6409,7.6409,7.6409,7.6409,7.6409,7.6409,7.6409,7.6409,7.6409,7.6409,7.6409,7.6409,7.6409,7.6409,7.6833,7.7382,7.7828,7.8364,7.8975,7.9979,8.1318,8.1948,8.1079,8.1363,8.1318,8.0314,8.0158,7.9622,7.8119,7.7918,7.7717,7.7158,7.6654,7.6409,7.6409,7.7026,7.7574,7.8074,7.8741,7.9592,8.071,8.1328,8.2334,8.3784,8.431,8.5045,8.6083,8.6083,8.6083,8.6083,8.6083,8.6083,6.6604,6.8258,6.9694,7.0524,7.0765,7.0765,7.0765,7.0765,7.05,6.9603,6.9192,6.8827,6.8359,6.9645,7.1711,7.4542,7.7889,0.0,8.0547,8.2323,0.0,7.9977,0.0,8.1754,8.1655,8.2565,0.0,8.2591,8.2666,8.2843,8.3198,8.3223,8.3579,8.4468,8.363,8.3071,8.2741,8.1091,8.0253,8.0253,8.0253,8.0253,8.0253,8.0253,8.0253,8.0253,8.0253,8.0253,8.0253,8.0253,7.8634,7.6037,7.5608,7.408,7.2237,7.2868,7.3731,7.478,7.5985,7.6409,7.6409,7.6409,7.6409,7.6409,7.6409,7.6409,7.6409,7.6409,7.6409,7.6409,7.6409,7.6587,7.6766,7.6766,7.7583,7.8364,7.861,7.9198,8.0024,8.1006,8.1787,8.2238,8.2238,8.2015,8.1653,8.0977,8.0642,7.9794,7.7806,7.756,7.727,7.6476,7.6409,7.6409,7.6409,7.6832,7.7403,7.8074,7.8572,7.9192,8.0056,8.0837,8.1749,8.2778,8.3702,8.4731,8.5723,8.5943,8.6083,8.6083,8.6083,8.6083,6.5109,6.6061,6.6867,6.9962,7.0765,7.0765,7.0765,7.0765,7.0765,7.0692,6.9795,6.9335,7.0378,0.0,7.1816,7.5042,7.9122,8.1675,8.1091,8.3755,8.4389,0.0,0.0,0.0,0.0,0.0,0.0,7.982,8.0162,8.0937,8.2054,8.2104,8.213,8.2181,8.213,8.1596,8.0431,8.0329,8.0253,8.0253,8.0253,8.0253,8.0253,8.0253,8.0253,8.0253,8.0253,8.0253,8.0253,8.0253,7.9299,7.7642,7.6037,7.4357,7.2762,7.2215,7.2627,7.3798,7.5739,7.6409,7.6409,7.6409,7.6409,7.6409,7.6409,7.6409,7.6409,7.6409,7.6409,7.6409,7.6409,7.7158,7.7851,7.7851,7.8551,7.9533,8.0531,8.0754,8.1028,8.1971,8.2194,8.2238,8.2238,8.1519,8.0933,8.0888,8.0024,7.8707,7.6721,7.6476,7.6453,7.6409,7.6409,7.6409,7.6409,7.6409,7.6902,7.8074,7.8187,7.8775,8.0056,8.0159,8.0673,8.1702,8.2731,8.3737,8.4661,8.5629,8.6083,8.6083,8.6083,8.6083,6.2913,6.4329,6.5347,6.7203,6.8648,6.9603,6.9603,7.0231,7.0765,7.0765,7.0426,7.0454,7.155,7.1183,7.155,7.4066,7.6409,7.8047,7.8493,8.1009,8.2329,8.0957,8.0674,8.0503,0.0,0.0,0.0,7.9054,7.9495,7.9966,8.0394,8.0419,8.0599,8.1031,8.06,8.0547,8.09,8.0487,8.0253,8.0253,8.0253,8.0253,8.0253,8.0253,8.0253,8.0253,8.0253,8.0253,8.0253,8.0253,7.9373,7.7791,7.6087,7.4809,7.381,7.3146,7.3575,7.4646,7.594,7.6409,7.6409,7.6409,7.6409,7.6297,7.5695,7.5918,7.6141,7.4869,7.4981,7.536,7.4668,7.4813,7.5081,7.5081,7.6275,7.7547,7.7904,7.8975,7.9979,8.0276,8.0343,8.0343,8.0343,8.0626,8.0642,7.9957,7.8484,7.7212,7.6498,7.5873,7.5739,7.6342,7.5851,7.5739,7.6342,7.6775,7.7324,7.8074,7.8492,7.9192,8.0056,8.0112,8.0603,8.1632,8.2006,8.3012,8.4567,8.4333,8.4544,8.5092,8.5092,8.4824,5.9545,6.1278,6.2937,6.3987,6.5848,6.7433,6.7433,6.8306,6.923,6.9572,6.9938,7.0524,7.1599,7.1208,7.1183,7.2624,7.4089,7.5555,7.6945,7.9303,8.0929,8.1325,8.0905,0.0,0.0,0.0,7.8858,7.8511,7.8955,7.925,7.925,7.925,7.9453,7.9879,7.9478,7.97,8.0677,8.0242,8.0107,8.0253,8.0253,8.0253,8.0253,8.0107,8.0107,8.0253,7.9912,7.9863,8.0058,8.0058,7.9299,7.8039,7.6548,7.5558,7.4887,7.4233,7.4096,7.4356,7.5065,7.5259,7.5067,7.4466,7.4466,7.4496,7.3609,7.4045,7.4549,7.3243,7.3676,7.4333,7.3642,7.3709,7.3976,7.3976,7.5226,7.6409,7.6409,7.7435,7.835,7.835,7.8618,7.8841,7.8841,7.9667,7.9979,7.8997,7.7725,7.652,7.5538,7.4869,7.4869,7.5829,7.5382,7.5382,7.6319,7.6775,7.7324,7.8074,7.8549,7.9192,8.0056,8.0112,8.0439,8.1118,8.1468,8.231,8.3585,8.3644,8.3959,8.4531,8.4964,8.4777,5.5348,5.7032,5.958,6.0668,6.2612,6.4248,6.4248,6.5036,6.611,6.714,6.8193,6.9311,7.0426,7.0716,7.0765,7.0765,7.2502,7.4578,7.675,7.8846,8.0602,8.1782,8.1396,8.0416,0.0,7.9211,7.9074,7.8064,7.8436,7.8684,7.8684,7.8684,7.8684,7.8684,7.8684,7.8955,7.947,7.947,7.974,8.0253,8.0253,8.0253,8.0205,7.9715,7.9789,8.0205,7.9177,7.9029,7.9521,7.9472,7.9153,7.8635,7.7389,7.6505,7.5925,7.5211,7.4007,7.2756,7.3129,7.2986,7.2368,7.0534,7.0555,7.113,7.0229,7.0761,7.1678,7.1634,7.2412,7.3341,7.3374,7.4055,7.4869,7.4869,7.5583,7.6275,7.6275,7.6297,7.6319,7.6319,7.7136,7.7784,7.7784,7.8573,7.8908,7.794,7.7784,7.6756,7.382,7.3463,7.3898,7.4847,7.4936,7.5293,7.623,7.6319,7.6834,7.8028,7.8085,7.8695,8.0056,8.0112,8.0112,8.0112,8.1094,8.1609,8.1655,8.3492,8.445,8.452,8.5536,8.605,5.7873,5.7043,5.6422,5.8301,6.0351,6.1953,6.1953,6.2742,6.384,6.4939,6.6647,6.7994,6.8306,6.9669,7.0765,7.0765,7.1867,7.3212,7.4578,7.6652,7.8434,7.9508,8.0149,8.0344,7.9895,7.9293,7.8962,7.9099,7.8509,7.8164,7.8164,7.8164,7.7965,7.7591,7.7965,7.8263,7.8387,7.8758,7.9029,7.9128,7.9128,7.9128,7.9177,7.9397,7.9568,7.9691,7.9029,7.9231,7.9929,7.8117,7.8298,7.9383,7.6156,7.5125,7.5407,7.3876,7.308,7.2639,7.205,7.1822,7.1497,7.0321,7.0165,7.0208,6.9293,6.9708,7.0167,6.872,6.9145,6.9973,7.0075,7.0313,7.075,7.1583,7.2481,7.3163,7.3163,7.3775,7.4266,7.4266,7.449,7.4724,7.4724,7.6096,7.6632,7.497,7.4724,7.4434,7.3552,7.3463,7.3575,7.3842,7.324,7.3218,7.4177,7.4266,7.5082,7.7057,7.7159,7.8038,8.0032,8.0112,8.0112,8.0112,8.0392,8.0884,8.1655,8.1445,8.1692,8.2498,8.3492,8.3585,5.3873,5.2361,5.1093,5.3322,5.4787,5.6397,5.9106,5.9838,6.0482,6.2523,6.428,6.5555,6.6061,6.7916,6.9401,0.0,7.0671,7.2185,7.3675,7.4969,7.653,7.8456,7.8456,7.8361,7.8361,7.819,7.8194,7.8524,7.7985,7.7616,7.7616,7.7616,7.7491,7.7165,7.7491,7.7716,7.794,7.8263,7.8511,7.8733,7.8733,7.8733,7.8733,7.9053,7.9028,7.8856,7.8758,7.9177,7.9821,7.7828,7.7622,7.8294,7.5121,7.4088,7.4149,7.2239,7.1155,7.0484,6.9747,6.9365,6.9011,6.7721,6.7534,6.768,6.6806,6.7223,6.778,6.6653,6.712,6.7964,6.8039,6.805,6.8372,6.9517,7.0225,7.0753,7.1258,7.1812,7.2268,7.2268,7.2548,7.2838,7.2838,7.4133,7.449,7.2558,7.257,7.2682,7.2335,7.2268,7.2268,7.2268,7.2079,7.2338,7.3374,7.3463,7.4238,7.6007,7.6163,7.6934,7.8692,7.9191,7.948,7.948,7.9901,8.0392,8.1001,8.0837,8.1047,8.1679,8.2708,8.2614,4.5952,4.5069,4.5015,4.702,4.7391,4.8941,0.0,5.5678,5.5885,5.913,6.0912,6.2254,6.3418,6.5427,6.6945,6.7067,6.8819,7.089,7.2894,7.3382,7.4554,7.731,7.6311,7.5481,7.5579,7.658,7.7165,7.7165,7.7165,7.7165,7.7165,7.7165,7.7165,7.7165,7.7165,7.7391,7.7865,7.7865,7.8064,7.8535,7.8535,7.8535,7.8535,7.8709,7.856,7.8062,7.8713,7.9002,7.8905,7.7224,7.6384,7.5969,7.3886,7.2758,7.2052,7.0222,6.8719,6.7411,6.6853,6.6451,6.5866,6.4103,6.4118,6.4601,6.3801,6.428,6.5087,6.5087,6.5868,6.6698,6.6807,6.6861,6.7186,6.8501,6.8823,6.9144,7.0283,7.0548,7.0548,7.0548,7.1232,7.178,7.178,7.2637,7.266,7.0838,7.1254,7.1446,7.066,7.0548,7.0548,7.0548,7.1298,7.2115,7.3039,7.3128,7.3699,7.4988,7.5065,7.5622,7.6917,7.7859,7.835,7.835,7.9355,7.9892,7.9892,8.0977,8.1468,8.1492,8.2521,8.2404,0.0,0.0,0.0,0.0,0.0,0.0,0.0,0.0,4.8145,5.1276,5.4884,5.7775,5.8935,6.1571,6.3823,6.4768,6.5988,6.7281,6.8506,7.021,7.1257,7.0898,7.2847,7.4578,7.553,7.658,7.7165,7.7165,7.7165,7.7165,7.7165,7.7165,7.7165,7.7165,7.7165,7.7215,7.7341,7.7341,7.7341,7.7515,7.7515,7.7515,7.754,7.8777,7.907,7.866,7.9996,7.8941,7.5864,7.1742,7.1517,7.3492,7.035,6.8984,6.8532,6.7401,6.6794,6.6447,6.5607,6.5287,6.502,6.3902,6.368,6.3781,6.362,6.3726,6.3893,6.3893,6.4059,6.4481,6.5396,6.567,6.6217,6.8286,6.8823,6.9144,7.0283,7.0548,7.0548,7.0548,7.0704,7.0838,7.0838,7.1611,7.1879,7.0727,7.0727,7.0771,7.0593,7.0548,7.0548,7.0548,7.0727,7.0928,7.1106,7.1129,7.1945,7.3861,7.396,7.4885,7.6893,7.7181,7.7298,7.7298,7.8303,7.8817,7.8817,7.9845,8.0416,8.0439,8.1468,8.0954,0.0,0.0,0.0,0.0,0.0,0.0,0.0,0.0,0.0,0.0,0.0,5.1491,0.0,0.0,5.8549,6.041,6.2521,6.4318,6.5689,6.7745,6.8697,6.7579,6.9359,7.1332,7.3015,7.4138,7.5237,7.6336,7.6409,7.6653,7.7141,7.7165,7.7165,7.7165,7.7165,7.7165,7.7165,7.7165,7.7165,7.7165,7.7702,7.7677,7.7189,7.8493,7.8689,7.7995,7.8762,7.773,7.5212,7.2832,7.1949,7.1681,6.7445,6.6016,6.6168,6.5245,6.5185,6.5483,6.4541,6.4259,6.4179,6.3701,6.356,6.356,6.356,6.356,6.356,6.356,6.356,6.3671,6.428,6.4446,6.5032,6.737,6.7942,6.8426,7.0177,7.0548,7.0548,7.0548,7.0548,7.0548,7.0548,7.0919,7.1075,7.0637,7.0548,7.0548,7.0548,7.0548,7.0548,7.0548,7.0548,7.0548,7.0548,7.0548,7.1036,7.2062,7.2615,7.3636,7.5328,7.5942,7.6223,7.6223,7.7228,7.7765,7.7765,7.8279,7.8794,7.9261,7.8264,7.7461,0.0,0.0,0.0,0.0,0.0,0.0,0.0,0.0,0.0,0.0,0.0,0.0,0.0,0.0,0.0,5.5389,5.8925,6.1822,6.304,6.4667,6.5528,6.5018,6.6238,6.7867,6.9645,7.1135,7.2771,7.4529,7.5042,7.575,7.6849,7.6848,7.6945,7.7165,7.7165,7.7165,7.7165,7.7165,7.7165,7.7165,7.8043,0.0,7.7189,7.8263,7.8288,7.7482,7.7677,7.6638,7.4738,7.4947,7.2871,6.9276,6.5333,6.4179,6.4561,6.3821,6.4058,6.4541,6.3801,6.356,6.356,6.356,6.356,6.356,6.356,6.356,0.0,6.356,6.356,6.356,6.356,6.356,6.4094,6.6229,6.6915,6.7672,6.9783,7.0389,7.0548,7.0548,7.0548,7.0548,7.0548,7.0548,7.0548,7.0548,7.0548,7.0548,7.0548,7.0548,7.0548,7.0548,7.0548,7.0548,7.0548,7.0213,7.0221,7.0684,7.1239,7.198,7.295,7.3605,7.3997,7.4184,7.4815,7.5591,7.6386,7.6386,7.6807,7.7508,7.2974,7.1918,0.0,0.0,0.0,0.0,0.0,0.0,0.0,0.0,0.0,0.0,0.0,0.0,0.0,0.0,0.0,0.0,5.5898,5.9602,5.9234,5.936,6.0051,6.1411,6.4231,6.6159,6.6403,6.9157,7.1012,7.1257,7.2992,7.4554,7.5725,7.5774,0.0,0.0,0.0,7.7165,7.7165,7.7165,7.7165,7.7165,7.7287,7.7263,7.7189,7.8263,7.8651,7.8629,7.9529,7.7064,7.2417,7.3208,6.9906,6.4434,6.4674,6.434,6.3701,6.36,6.362,6.3701,6.36,0.0,0.0,6.356,6.356,6.356,6.356,6.356,6.356,6.356,6.356,6.356,6.356,6.356,6.3893,6.5197,6.6284,6.7402,6.8716,6.9836,7.0548,7.0548,7.0548,7.0548,7.0548,7.0548,7.0548,7.0548,7.0548,7.0548,7.0548,7.0548,7.0548,7.0548,7.0548,0.0,7.0548,6.8955,6.8894,7.1121,7.018,6.9615,6.9746,6.8952,6.8952,6.9863,6.9092,7.0543,7.4241,7.4241,7.4259,7.4171,6.4427,6.3029,0.0,0.0,0.0,0.0,0.0,0.0,0.0,0.0,0.0,0.0,0.0,0.0,0.0,0.0,0.0,0.0,4.8989,5.1693,5.1448,5.3575,5.6031,5.8363,6.1251,6.3304,6.3938,6.6354,6.7958,6.805,7.0534,7.2274,7.2774,7.3922,7.4798,7.5237,7.5261,7.5554,7.6287,7.6287,7.658,7.7165,7.7799,7.7775,7.7139,7.6912,7.6413,7.5711,7.4896,7.2486,6.9097,6.951,6.723,6.35,0.0,0.0,0.0,0.0,6.2086,6.2086,6.2086,6.2428,6.2796,6.2796,6.3138,6.356,6.356,6.356,6.356,6.356,6.356,6.356,6.356,6.356,6.3837,6.5053,6.6196,6.7402,6.8555,6.973,7.0548,7.0548,7.0548,0.0,7.0548,7.0548,7.0548,7.0548,7.0548,7.0548,7.0548,7.0548,7.0548,7.0548,7.0548,7.0548,7.0548,6.9833,0.0,0.0,0.0,7.1045,7.1415,7.1324,0.0,0.0,0.0,6.5611,6.6732,6.4144,0.0,0.0,5.7381,5.7045,0.0,0.0,0.0,0.0,0.0,0.0,0.0,0.0,0.0,0.0,0.0,0.0,0.0,0.0,0.0,0.0,0.0,4.5121,4.433,4.7608,5.1103,5.3904,5.7158,5.9476,6.0226,6.3146,6.5023,6.5128,6.7292,6.9012,6.9817,7.1343,7.2566,7.3431,7.3724,7.4261,7.5139,7.5139,7.553,7.6262,7.7043,7.6693,7.5416,7.4519,7.3376,7.1909,7.0316,6.8351,6.6291,6.6291,6.4934,6.275,6.1221,6.0671,6.065,6.0389,6.0308,6.0308,6.0308,6.0678,6.1188,6.1429,6.1952,6.2515,6.2756,6.2675,6.2589,6.2776,6.2675,6.2535,6.2776,6.2856,6.3056,6.3931,6.5225,6.6527,6.7402,6.8747,6.9856,7.0101,6.9945,6.9766,6.9766,6.9967,7.0168,7.0168,7.0392,7.0548,7.0548,7.0548,7.0548,7.0548,7.0548,7.0548,7.0548,7.0079,7.0252,7.1474,7.1393,7.1802,7.2847,7.242,7.1548,7.0239,6.5587,6.2362,0.0,0.0,0.0,0.0,0.0,0.0,0.0,0.0,0.0,0.0,0.0,0.0,0.0,0.0,0.0,0.0,0.0,0.0,0.0,0.0,0.0,0.0,0.0,0.0,3.9498,4.1611,4.4439,4.7041,5.1544,5.4487,5.4473,5.9458,6.2701,6.2734,6.304,6.4505,6.7403,6.7842,6.9342,7.2284,7.3334,7.3895,7.3944,7.3944,7.3944,7.3968,7.4017,7.2954,7.0974,7.0899,6.9811,6.7814,6.7764,6.6465,6.4419,6.4419,6.3126,6.1033,6.0107,5.9744,5.9644,5.8706,5.8385,5.8385,5.8385,5.8405,5.8566,5.9451,5.9805,5.9986,6.0852,6.051,6.0006,6.0892,6.0489,6.0026,6.0892,6.1134,6.1134,6.1167,6.282,6.4474,6.4474,6.6201,6.7996,6.8859,6.8353,6.7728,6.7728,6.8487,6.9037,6.9037,6.9945,0.0,7.0548,7.0548,7.0548,7.0548,7.0548,7.0548,7.0548,6.8799,6.8994,7.1907,7.0327,7.0191,7.2245,6.9419,6.692,6.498,6.3764,6.1551,5.8201,0.0,0.0,0.0,0.0,0.0,0.0,0.0,0.0,0.0,0.0,0.0,0.0,0.0,0.0,0.0,0.0,0.0,0.0,0.0,0.0,0.0,0.0,0.0,0.0,0.0,4.2031,4.3873,4.6726,4.8459,4.8203,5.1844,5.4628,5.571,5.7989,6.054,6.3174,6.2582,6.3159,6.5316,6.6382,6.6648,6.6127,6.7949,6.8869,6.8974,6.8974,6.8879,6.8652,6.7162,6.6115,6.5375,6.3888,6.2854,6.2138,6.2138,5.9636,5.5757,5.599,5.6091,5.6111,5.6413,5.6513,5.6513,5.6513,5.6513,5.6674,5.758,5.8264,5.8827,5.9129,5.9008,5.8827,5.9129,5.8988,5.8827,5.9129,5.9209,5.9209,5.9209,6.0864,6.2417,6.2417,6.4645,6.6724,6.7036,6.4831,6.2863,6.2791,6.5162,6.6434,6.4541,6.6774,6.865,6.865,6.865,6.865,6.865,6.865,6.865,6.865,6.8324,6.8426,6.9084,6.8842,6.8853,6.9209,6.8204,6.7013,6.5658,6.5285,6.0458,5.1019,0.0,0.0,0.0,0.0,0.0,0.0,0.0,0.0,0.0,0.0,0.0,0.0,0.0,0.0,0.0,0.0,0.0,0.0,0.0,0.0,0.0,0.0,0.0,0.0,0.0,0.0,4.0241,4.2176,0.0,4.3046,4.5686,4.7939,4.9213,5.143,5.4146,5.7446,5.6917,5.7654,6.0207,6.1331,6.1679,6.1177,6.2899,6.3817,6.3923,6.3923,6.3784,6.3495,6.2073,6.1149,6.0643,5.8954,5.8375,5.8566,5.8315,5.5777,5.2113,5.2263,5.1982,5.1584,5.2424,5.2745,5.2846,5.3516,5.3717,5.3818,5.4401,5.4562,5.4534,5.4904,5.4341,5.3858,5.5105,5.5447,5.5749,5.7016,5.7358,5.7358,5.7358,5.891,6.0436,6.0436,6.2064,6.3616,6.3975,6.2324,6.0567,5.9449,6.1591,6.2841,6.099,6.3513,6.592,6.6969,6.7416,6.7639,6.7639,6.7304,6.7103,6.7103,6.7219,6.7269,6.7148,6.7613,6.7632,6.7106,6.7107,6.5893,6.3306,6.2581,5.7485,0.0,0.0,0.0,0.0,0.0,0.0,0.0,0.0,0.0,0.0,0.0,0.0,0.0,0.0,0.0,0.0,0.0,0.0,0.0,0.0,0.0,0.0,0.0,0.0,0.0,0.0,0.0,3.6098,3.7778,0.0,0.0,0.0,0.0,4.3306,4.3461,4.5622,5.0422,5.0808,5.2747,5.6874,5.8142,5.877,5.8773,5.8927,5.8972,5.8886,5.8886,5.7873,5.6013,5.6013,5.5338,5.4132,5.3381,5.3502,5.4072,5.3079,5.1609,4.9938,4.9007,4.7661,4.6293,4.7137,4.7417,4.772,4.9552,5.022,5.02,5.0119,4.8888,4.7558,4.8263,4.6716,0.0,0.0,4.9834,5.0615,5.424,5.5097,5.5089,5.5278,5.6863,5.8357,5.8489,5.8716,5.9055,5.9581,6.043,6.0096,5.7039,0.0,5.8022,5.7998,5.9962,6.2464,6.5296,6.6657,6.7349,6.7349,6.6456,6.5876,6.5925,6.5444,6.5434,6.6056,6.6439,6.6474,6.5963,6.5729,6.3213,5.8049,5.5916,0.0,0.0,0.0,0.0,0.0,0.0,0.0,0.0,0.0,0.0,0.0,0.0,0.0,0.0,0.0,0.0,0.0,0.0,0.0,0.0,0.0,0.0,0.0,0.0,0.0,0.0,2.9176,3.1796,3.2806,3.231,3.1784,0.0,0.0,0.0,0.0,0.0,0.0,4.4609,4.3146,4.4438,4.9559,5.079,5.1416,5.1642,5.3717,5.44,5.3637,5.3637,5.3716,5.3848,5.3848,5.3694,5.3361,5.3119,5.316,5.3039,4.8851,4.6475,4.5327,4.4403,4.3396,4.2611,4.4181,4.4744,4.5086,4.7479,4.8323,4.8122,4.6836,4.5649,4.4301,4.1904,0.0,0.0,0.0,0.0,4.3233,4.7675,4.8173,4.8222,5.1003,5.2607,5.3904,5.5351,5.7292,5.7385,5.264,5.1313,4.9755,4.6003,0.0,0.0,0.0,0.0,5.7126,5.9293,6.1771,6.329,6.3173,6.2997,6.3029,6.3314,6.3555,6.361,6.3423,6.3852,6.4074,6.3951,6.0917,5.8196,5.5861,0.0,0.0,0.0,0.0,0.0,0.0,0.0,0.0,0.0,0.0,0.0,0.0,0.0,0.0,0.0,0.0,0.0,0.0,0.0,0.0,0.0,0.0,0.0,0.0,0.0,0.0,0.0,2.6098,2.9003,3.0182,2.8742,2.7561,0.0,0.0,0.0,0.0,0.0,0.0,0.0,0.0,0.0,4.1672,4.3064,4.3989,4.4572,4.7406,4.8532,4.7974,4.8544,4.9072,4.9576,4.9978,5.0361,5.0679,5.0679,5.0015,4.871,4.5208,4.2543,4.0582,0.0,0.0,0.0,0.0,3.9377,3.9726,4.1554,4.2305,4.2095,3.9939,0.0,0.0,0.0,0.0,0.0,0.0,0.0,3.8998,4.3046,4.5031,4.6534,4.8637,4.987,5.0919,5.2014,5.1034,4.8893,4.5471,4.4268,4.2732,3.9307,0.0,0.0,0.0,0.0,5.2955,5.6235,5.9672,6.1771,6.1634,6.1346,6.1238,6.1444,6.1516,6.1692,6.2024,6.2535,6.2307,6.117,5.791,5.3837,0.0,0.0,0.0,0.0,0.0,0.0,0.0,0.0,0.0,0.0,0.0,0.0,0.0,0.0,0.0,0.0,0.0,0.0,0.0,0.0,0.0,0.0,0.0,0.0,0.0,0.0,0.0,0.0,0.0,2.5841,2.774,0.0,0.0,0.0,0.0,0.0,0.0,0.0,0.0,0.0,0.0,0.0,0.0,0.0,3.6922,3.8209,4.0593,4.1913,4.2114,4.3369,4.4003,4.4105,4.5168,4.6051,4.6854,4.6232,0.0,4.318,4.1558,0.0,0.0,0.0,0.0,0.0,0.0,0.0,0.0,0.0,0.0,0.0,0.0,0.0,0.0,0.0,0.0,0.0,0.0,0.0,0.0,0.0,0.0,4.547,4.573,4.6817,4.7518,4.6677,4.1888,3.777,3.7836,3.8039,3.7336,0.0,0.0,0.0,0.0,0.0,0.0,5.4406,5.8779,6.1392,6.1255,6.0519,6.0141,6.032,5.9983,6.0312,6.1644,6.1557,6.037,5.795,5.5397,0.0,0.0,0.0,0.0,0.0,0.0,0.0,0.0,0.0,0.0,0.0,0.0,0.0,0.0,0.0,0.0,0.0,0.0,0.0,0.0,0.0,0.0,0.0,0.0,0.0,0.0,0.0,0.0,0.0,0.0,0.0,0.0,0.0,0.0,0.0,0.0,0.0,0.0,0.0,0.0,0.0,0.0,0.0,0.0,0.0,0.0,0.0,0.0,0.0,0.0,3.7451,3.8242,3.8885,4.0448,4.1839,4.2755,3.8989,3.8805,4.0879,3.6759,0.0,0.0,0.0,0.0,0.0,0.0,0.0,0.0,0.0,0.0,0.0,0.0,0.0,0.0,0.0,0.0,0.0,0.0,0.0,0.0,0.0,0.0,3.4217,3.5708,3.8277,3.8938,3.3629,0.0,0.0,0.0,0.0,0.0,0.0,0.0,0.0,0.0,0.0,0.0,5.0342,5.5792,5.9204,5.9204,5.9047,5.9493,6.0794,6.1106,6.1551,6.2223,5.8487,5.5768,0.0,0.0,0.0,0.0,0.0,0.0,0.0,0.0,0.0,0.0,0.0,0.0,0.0,0.0,0.0,0.0,0.0,0.0,0.0,0.0,0.0,0.0,0.0,0.0,0.0,0.0,0.0,0.0,0.0,0.0,0.0,0.0,0.0,0.0,0.0,0.0,0.0,0.0,0.0,0.0,0.0,0.0,0.0,0.0,0.0,0.0,0.0,0.0,0.0,0.0,0.0,0.0,0.0,0.0,0.0,0.0,0.0,0.0,3.4453,3.2616,0.0,0.0,0.0,0.0,0.0,0.0,0.0,0.0,0.0,0.0,0.0,0.0,0.0,0.0,0.0,0.0,0.0,0.0,0.0,0.0,0.0,0.0,0.0,0.0,0.0,0.0,0.0,0.0,0.0,0.0,0.0,0.0,0.0,0.0,0.0,0.0,0.0,0.0,0.0,0.0,4.7605,5.3889,5.7797,5.7262,5.7686,5.8085,5.8301,5.8495,5.8388,5.7894,5.4674,0.0,0.0,0.0,0.0,0.0,0.0,0.0,0.0,0.0,0.0,0.0,0.0,0.0,0.0,0.0,0.0,0.0,0.0,0.0,0.0,0.0,0.0,0.0,0.0,0.0,0.0,0.0,0.0,0.0,0.0,0.0,0.0,0.0,0.0,0.0,0.0,0.0,0.0,0.0,0.0,0.0,0.0,0.0,0.0,0.0,0.0,0.0,0.0,0.0,0.0,0.0,0.0,0.0,0.0,0.0,0.0,0.0,0.0,0.0,2.9555,2.673,0.0,0.0,0.0,0.0,0.0,0.0,0.0,0.0,0.0,0.0,0.0,0.0,0.0,0.0,0.0,0.0,0.0,0.0,0.0,0.0,0.0,0.0,0.0,0.0,0.0,0.0,0.0,0.0,0.0,0.0,0.0,0.0,0.0,0.0,0.0,0.0,0.0,0.0,0.0,0.0,4.5986,5.2838,5.6949,5.5901,5.6525,5.6749,5.6168,5.6208,5.554,5.3781,5.0825,0.0,0.0,0.0,0.0,0.0,0.0,0.0,0.0,0.0,0.0,0.0,0.0,0.0,0.0,0.0,0.0,0.0,0.0,0.0,0.0,0.0,0.0,0.0,0.0,0.0,0.0,0.0,0.0,0.0,0.0,0.0,0.0,0.0,0.0,0.0,0.0,0.0,0.0,0.0,0.0,0.0,0.0,0.0,0.0,0.0,0.0,0.0,0.0,0.0,0.0,0.0,0.0,0.0,0.0,0.0,0.0,0.0,0.0,0.0,0.0,0.0,0.0,0.0,0.0,0.0,0.0,0.0,0.0,0.0,0.0,0.0,0.0,0.0,0.0,0.0,0.0,0.0,0.0,0.0,0.0,0.0,0.0,0.0,0.0,0.0,0.0,0.0,0.0,0.0,0.0,0.0,0.0,0.0,0.0,0.0,0.0,0.0,0.0,0.0,0.0,0.0,4.5912,5.2838,5.6949,5.5901,5.5878,5.628,5.7128,5.7623,5.6679,5.3826,0.0,0.0,0.0,0.0,0.0,0.0,0.0,0.0,0.0,0.0,0.0,0.0,0.0,0.0,0.0,0.0,0.0,0.0,0.0,0.0,0.0,0.0,0.0,0.0,0.0,0.0,0.0,0.0,0.0,0.0,0.0,0.0,0.0,0.0,0.0,0.0,0.0,0.0,0.0,0.0,0.0,0.0,0.0,0.0,0.0,0.0,0.0,0.0,0.0,0.0,0.0,0.0,0.0,0.0,0.0,0.0,0.0,0.0,0.0,0.0,0.0,0.0,0.0,0.0,0.0,0.0,0.0,0.0,0.0,0.0,0.0,0.0,0.0,0.0,0.0,0.0,0.0,0.0,0.0,0.0,0.0,0.0,0.0,0.0,0.0,0.0,0.0,0.0,0.0,0.0,0.0,0.0,0.0,0.0,0.0,0.0,0.0,0.0,0.0,0.0,0.0,0.0,4.3191,5.1127,5.5811,5.4209,5.4606,5.5161,5.5563,5.5774,5.3816,4.9024,0.0,0.0,0.0,0.0,0.0,0.0,0.0,0.0,0.0,0.0,0.0,0.0,0.0,0.0,0.0,0.0,0.0,0.0,0.0,0.0,0.0,0.0,0.0,0.0,0.0,0.0,0.0,0.0,0.0,0.0,0.0,0.0,0.0,0.0,0.0,0.0,0.0,0.0,0.0,0.0,0.0,0.0,0.0,0.0,0.0,0.0,0.0,0.0,0.0,0.0,0.0,0.0,0.0,0.0,0.0,0.0,0.0,0.0,0.0,0.0,0.0,0.0,0.0,0.0,0.0,0.0,0.0,0.0,0.0,0.0,0.0,0.0,0.0,0.0,0.0,0.0,0.0,0.0,0.0,0.0,0.0,0.0,0.0,0.0,0.0,0.0,0.0,0.0,0.0,0.0,0.0,0.0,0.0,0.0,0.0,0.0,0.0,0.0,0.0,0.0,0.0,0.0,4.1393,4.9526,5.4539,5.3428,5.3714,5.4093,5.4402,5.4424,5.1862,4.5879,0.0,0.0,0.0,0.0,0.0,0.0,0.0,0.0,0.0,0.0,0.0,0.0,0.0,0.0,0.0,0.0,0.0,0.0,0.0,0.0,0.0,0.0,0.0,0.0,0.0,0.0,0.0,0.0,0.0,0.0,0.0,0.0,0.0,0.0,0.0,0.0,0.0,0.0,0.0,0.0,0.0,0.0,0.0,0.0,0.0,0.0,0.0,0.0,0.0,0.0,0.0,0.0,0.0,0.0,0.0,0.0,0.0,0.0,0.0,0.0,0.0,0.0,0.0,0.0,0.0,0.0,0.0,0.0,0.0,0.0,0.0,0.0,0.0,0.0,0.0,0.0,0.0,0.0,0.0,0.0,0.0,0.0,0.0,0.0,0.0,0.0,0.0,0.0,0.0,0.0,0.0,0.0,0.0,0.0,0.0,0.0,0.0,0.0,0.0,0.0,0.0,0.0,4.1348,4.8399,5.3294,5.4312,5.3473,5.3294,5.4335,5.4424,5.1862,0.0,0.0,0.0,0.0,0.0,0.0,0.0,0.0,0.0,0.0,0.0,0.0,0.0,0.0,0.0,0.0,0.0,0.0,0.0,0.0,0.0,0.0,0.0,0.0,0.0,0.0,0.0,0.0,0.0,0.0,0.0,0.0,0.0,0.0,0.0,0.0,0.0,0.0,0.0,0.0,0.0,0.0,0.0,0.0,0.0,0.0,0.0,0.0,0.0,0.0,0.0,0.0,0.0,0.0,0.0,0.0,0.0,0.0,0.0,0.0,0.0,0.0,0.0,0.0,0.0,0.0,0.0,0.0,0.0,0.0,0.0,0.0,0.0,0.0,0.0,0.0,0.0,0.0,0.0,0.0,0.0,0.0,0.0,0.0,0.0,0.0,0.0,0.0,0.0,0.0,0.0,0.0,0.0,0.0,0.0,0.0,0.0,0.0,0.0,0.0,0.0,0.0,0.0,3.8581,4.6673,5.2079,0.0,5.3352,5.4048,5.4402,5.3781,5.1109,4.5834,0.0,0.0,0.0,0.0,0.0,0.0,0.0,0.0,0.0,0.0,0.0,0.0,0.0,0.0,0.0,0.0,0.0,0.0,0.0,0.0,0.0,0.0,0.0,0.0,0.0,0.0,0.0,0.0,0.0,0.0,0.0,0.0,0.0,0.0,0.0,0.0,0.0,0.0,0.0,0.0,0.0,0.0,0.0,0.0,0.0,0.0,0.0,0.0,0.0,0.0,0.0,0.0,0.0,0.0,0.0,0.0,0.0,0.0,0.0,0.0,0.0,0.0,0.0,0.0,0.0,0.0,0.0,0.0,0.0,0.0,0.0,0.0,0.0,0.0,0.0,0.0,0.0,0.0,0.0,0.0,0.0,0.0,0.0,0.0,0.0,0.0,0.0,0.0,0.0,0.0,0.0,0.0,0.0,0.0,0.0,0.0,0.0,0.0,0.0,0.0,0.0,0.0,0.0,4.5028,5.0628,0.0,5.2258,5.2928,5.3285,5.2732,5.0239,4.5289,0.0,0.0,0.0,0.0,0.0,0.0,0.0,0.0,0.0,0.0,0.0,0.0,0.0,0.0,0.0,0.0,0.0,0.0,0.0,0.0,0.0,0.0,0.0,0.0,0.0,0.0,0.0,0.0,0.0,0.0,0.0,0.0,0.0,0.0,0.0,0.0,0.0,0.0,0.0,0.0,0.0,0.0,0.0,0.0,0.0,0.0,0.0,0.0,0.0,0.0,0.0,0.0,0.0,0.0,0.0,0.0,0.0,0.0,0.0,0.0,0.0,0.0,0.0,0.0,0.0,0.0,0.0,0.0,0.0,0.0,0.0,0.0,0.0,0.0,0.0,0.0,0.0,0.0,0.0,0.0,0.0,0.0,0.0,0.0,0.0,0.0,0.0,0.0,0.0,0.0,0.0,0.0,0.0,0.0,0.0,0.0,0.0,0.0,0.0,0.0,0.0,0.0,0.0,4.3717,4.9072,5.1074,5.0545,5.0411,5.1297,5.1358,4.9235,4.433,4.115,0.0,0.0,0.0,0.0,0.0,0.0,0.0,0.0,0.0,0.0,0.0,0.0,0.0,0.0,0.0,0.0,0.0,0.0,0.0,0.0,0.0,0.0,0.0,0.0,0.0,0.0,0.0,0.0,0.0,0.0,0.0,0.0,0.0,0.0,0.0,0.0,0.0,0.0,0.0,0.0,0.0,0.0,0.0,0.0,0.0,0.0,0.0,0.0,0.0,0.0,0.0,0.0,0.0,0.0,0.0,0.0,0.0,0.0,0.0,0.0,0.0,0.0,0.0,0.0,0.0,0.0,0.0,0.0,0.0,0.0,0.0,0.0,0.0,0.0,0.0,0.0,0.0,0.0,0.0,0.0,0.0,0.0,0.0,0.0,0.0,0.0,0.0,0.0,0.0,0.0,0.0,0.0,0.0,0.0,0.0,0.0,0.0,0.0,0.0,0.0,0.0,0.0,4.441,4.7822,4.9005,5.036,5.0918,5.0366,4.9585,4.7376,4.3193,3.9476,0.0,0.0,0.0,0.0,0.0,0.0,0.0,0.0,0.0,0.0,0.0,0.0,0.0,0.0,0.0,0.0,0.0,0.0,0.0,0.0,0.0,0.0,0.0,0.0,0.0,0.0,0.0,0.0,0.0,0.0,0.0,0.0,0.0,0.0,0.0,0.0,0.0,0.0,0.0,0.0,0.0,0.0,0.0,0.0,0.0,0.0,0.0,0.0,0.0,0.0,0.0,0.0,0.0,0.0,0.0,0.0,0.0,0.0,0.0,0.0,0.0,0.0,0.0,0.0,0.0,0.0,0.0,0.0,0.0,0.0,0.0,0.0,0.0,0.0,0.0,0.0,0.0,0.0,0.0,0.0,0.0,0.0,0.0,0.0,0.0,0.0,0.0,0.0,0.0,0.0,0.0,0.0,0.0,0.0,0.0,0.0,0.0,0.0,0.0,0.0,0.0,0.0,3.7808,4.2377,4.726,4.8796,4.9243,4.867,4.8113,4.6126,4.2199,3.7803,0.0,0.0,0.0,0.0,0.0,0.0,0.0,0.0,0.0,0.0,0.0,0.0,0.0,0.0,0.0,0.0,0.0,0.0,0.0,0.0,0.0,0.0,0.0,0.0,0.0,0.0,0.0,0.0,0.0,0.0,0.0,0.0,0.0,0.0,0.0,0.0,0.0,0.0,0.0,0.0,0.0,0.0,0.0,0.0,0.0,0.0,0.0,0.0,0.0,0.0,0.0,0.0,0.0,0.0,0.0,0.0,0.0,0.0,0.0,0.0,0.0,0.0,0.0,0.0,0.0,0.0,0.0,0.0,0.0,0.0,0.0,0.0,0.0,0.0,0.0,0.0,0.0,0.0,0.0,0.0,0.0,0.0,0.0,0.0,0.0,0.0,0.0,0.0,0.0,0.0,0.0,0.0,0.0,0.0,0.0,0.0,0.0,0.0,0.0,0.0,0.0,0.0,0.0,3.6696,4.5061,4.6592,4.6974,4.6841,4.6818,4.5089,4.1011,0.0,0.0,0.0,0.0,0.0,0.0,0.0,0.0,0.0,0.0,0.0,0.0,0.0,0.0,0.0,0.0,0.0,0.0,0.0,0.0,0.0,0.0,0.0,0.0,0.0,0.0,0.0,0.0,0.0,0.0,0.0,0.0,0.0,0.0,0.0,0.0,0.0,0.0,0.0,0.0,0.0,0.0,0.0,0.0,0.0,0.0,0.0,0.0,0.0,0.0,0.0,0.0,0.0,0.0,0.0,0.0,0.0,0.0,0.0,0.0,0.0,0.0,0.0,0.0,0.0,0.0,0.0,0.0,0.0,0.0,0.0,0.0,0.0,0.0,0.0,0.0,0.0,0.0,0.0,0.0,0.0,0.0,0.0,0.0,0.0,0.0,0.0,0.0,0.0,0.0,0.0,0.0,0.0,0.0,0.0,0.0,0.0,0.0,0.0,0.0,0.0,0.0,0.0,0.0,0.0,4.0763,4.4694,4.6707,4.579,4.5723,4.375,3.9037,0.0,0.0,0.0,0.0,0.0,0.0,0.0,0.0,0.0,0.0,0.0,0.0,0.0,0.0]}]]]